[[{"header":{"parameterUnit":"m.s-1","parameterCategory":1,"la1":30.6,"la2":29.2853,"lo1":-89.7004,"lo2":-87.6739,"dx":0.0162,"dy":0.0183,"nx":112,"ny":82,"refTime":"2022-12-26T06:00:00:Z","depth":0,"parameterNumber":2,"parameterNumberName":"U-component_of_WINDS"},"data":[0.0,0.0,0.0,0.0,0.0,0.0,0.0,0.0,0.0,0.0,0.0,0.0,0.0,0.0,0.0,0.0,0.0,0.0,0.0,0.0,0.0,0.0,0.0,0.0,0.0,0.0,0.0,0.0,0.0,0.0,0.0,0.0,0.0,0.0,0.0,0.0,0.0,0.0,0.0,0.0,0.0,0.0,0.0,0.0,0.0,0.0,0.0,0.0,0.0,0.0,0.0,0.0,0.0,0.0,0.0,0.0,0.0,0.0,0.0,0.0,0.0,0.0,0.0,0.0,0.0,0.0,0.0,0.0,0.0,0.0,0.0,0.0,0.0,0.0,0.0,0.0,0.0,0.0,0.0,0.0,0.0,0.0,0.0,0.0,0.0,0.0,0.0,0.0,0.0,0.0,0.0,0.017,-0.1672,-0.2457,-0.164,-0.1615,-0.0915,0.063,0.0,0.0,0.0,0.0,0.0,0.0,0.0,0.0,0.0,0.0,0.0,0.0,0.0,0.0,0.0,0.0,0.0,0.0,0.0,0.0,0.0,0.0,0.0,0.0,0.0,0.0,0.0,0.0,0.0,0.0,0.0,0.0,0.0,0.0,0.0,0.0,0.0,0.0,0.0,0.0,0.0,0.0,0.0,0.0,0.0,0.0,0.0,0.0,0.0,0.0,0.0,0.0,0.0,0.0,0.0,0.0,0.0,0.0,0.0,0.0,0.0,0.0,0.0,0.0,0.0,0.0,0.0,0.0,0.0,0.0,0.0,0.0,0.0,0.0,0.0,0.0,0.0,0.0,0.0,0.0,0.0,0.0,0.0,0.0,0.0,0.0,0.0,0.0,0.0,0.0,0.0,0.0,0.0,0.0,0.0,0.0,0.0,0.0,0.0,0.0,0.0,0.0,0.0,0.0,0.1359,-0.1056,-0.2235,-0.2505,-0.1641,-0.1562,-0.0868,0.0769,0.0,0.0,0.0,0.0,0.0,0.0,0.0,0.0,0.0,0.0,0.0,0.0,0.0,0.0,0.0,0.0,0.0,0.0,0.0,0.0,0.0,0.0,0.0,0.0,0.0,0.0,0.0,0.0,0.0,0.0,0.0,0.0,0.0,0.0,0.0,0.0,0.0,0.0,0.0,0.0,0.0,0.0,0.0,0.0,0.0,0.0,0.0,0.0,0.0,0.0,0.0,0.0,0.0,0.0,0.0,0.0,0.0,0.0,0.0,0.0,0.0,0.0,0.0,0.0,0.0,0.0,0.0,0.0,0.0,0.0,0.0,0.0,0.0,0.0,0.0,0.0,0.0,0.0,0.0,0.0,0.0,0.0,0.0,0.0,0.0,0.0,0.0,0.0,0.0,0.0,0.0,0.0,0.0,0.0,0.0,0.0,0.0,0.0,0.0,0.0,0.0,0.0,0.0,0.1988,0.0466,-0.0632,-0.1123,-0.1162,-0.0784,-0.0706,-0.0217,0.1045,0.0984,0.0,0.0,0.0,0.0,0.0,0.0,0.0,0.0,0.0,0.0,0.0,0.0,0.0,0.0,0.0,0.0,0.0,0.0,0.0,0.0,0.0,0.0,0.0,0.0,0.0,0.0,0.0,0.0,0.0,0.0,0.0,0.0,0.0,0.0,0.0,0.0,0.0,0.0,0.0,0.0,0.0,0.0,0.0,0.0,0.0,0.0,0.0,0.0,0.0,0.0,0.0,0.0,0.0,0.0,0.0,0.0,0.0,0.0,0.0,0.0,0.0,0.0,0.0,0.0,0.0,0.0,0.0,0.0,0.0,0.0,0.0,0.0,0.0,0.0,0.0,0.0,0.0,0.0,0.0,0.0,0.0,0.0,0.0,0.0,0.0,0.0,0.0,0.0,0.0,0.0,0.0,0.0,0.0,0.0,0.0,0.0,0.0,0.0,0.0,0.0,0.0,0.0,0.1074,0.0,0.0,0.0,0.0,0.0,0.0236,0.0576,0.1138,0.1406,0.0,0.0,0.0,0.0,0.0,0.0,0.0,0.0,0.0,0.0,0.0,0.0,0.0,0.0,0.0,0.0,0.0,0.0,0.0,0.0,0.0,0.0,0.0,0.0,0.0,0.0,0.0,0.0,0.0,0.0,0.0,0.0,0.0,0.0,0.0,0.0,0.0,0.0,0.0,0.0,0.0,0.0,0.0,0.0,0.0,0.0,0.0,0.0,0.0,0.0,0.0,0.0,0.0,0.0,0.0,0.0,0.0,0.0,0.0,0.0,0.0,0.0,0.0,0.0,0.0,0.0,0.0,0.0,0.0,0.0,0.0,0.0,0.0,0.0,0.0,0.0,0.0,0.0,0.0,0.0,0.0,0.0,0.0,0.0,0.0,0.0,0.0,0.0,0.0,0.0,0.0,0.0,0.0,0.0,0.0,0.0,0.0,0.0,0.0,0.0,0.0,0.0,0.0613,0.0,0.0,0.0,0.0,0.0,0.0941,0.1296,0.0798,0.216,0.0,0.0,0.0,0.0,0.0,0.0,0.0,0.0,0.0,0.0,0.0,0.0,0.0,0.0,0.0,0.0,0.0,0.0,0.0,0.0,0.0,0.0,0.0,0.0,0.0,0.0,0.0,0.0,0.0,0.0,0.0,0.0,0.0,0.0,0.0,0.0,0.0,0.0,0.0,0.0,0.0,0.0,0.0,0.0,0.0,0.0,0.0,0.0,0.0,0.0,0.0,0.0,0.0,0.0,0.0,0.0,0.0,0.0,0.0,0.0,0.0,0.0,0.0,0.0,0.0,0.0,0.0,0.0,0.0,0.0,0.0,0.0,0.0,0.0,0.0,0.0,0.0,0.0,0.0,0.0,0.0,0.0,0.0,0.0,0.0,0.0,0.0,0.0,0.0,0.0,0.0,0.0,0.0,0.0,0.0,0.0,0.0,0.0,0.0,0.0,0.0,0.0,0.096,0.0538,0.0,0.0,0.0,0.0,0.102,0.1439,0.1081,0.0,0.0,0.0,0.0,0.0,0.0,0.0,0.0,0.0,0.0,0.0,0.0,0.0,0.0,0.0,0.0,0.0,0.0,0.0,0.0,0.0,0.0,0.0,0.0,0.0,0.0,0.0,0.0,0.0,0.0,0.0,0.0,0.0,0.0,0.0,0.0,0.0,0.0,0.0,0.0,0.0,0.0,0.0,0.0,0.0,0.0,0.0,0.0,0.0,0.0,0.0,0.0,0.0,0.0,0.0,0.0,0.0,0.0,0.0,0.0,0.0,0.0,0.0,0.0,0.0,0.0,0.0,0.0,0.0,0.0,0.0,0.0,0.0,0.0,0.0,0.0,0.0,0.0,0.0,0.0,0.0,0.0,0.0,0.0,0.0,0.0,0.0,0.0,0.0,0.0,0.0,0.0,0.0,0.0,0.0,0.0,0.0,0.0,0.0,0.0,0.0,0.0,0.1437,0.1198,0.0804,0.0,0.0,0.0157,0.0471,0.1488,0.2091,0.2129,0.0,0.0,0.0,0.0,0.0,0.0,0.0,0.0,0.0,0.0,0.0,0.0,0.0,0.0,0.0,0.0,0.0,0.0,0.0,0.0,0.0,0.0,0.0,0.0,0.0,0.0,0.0,0.0,0.0,0.0,0.0,0.0,0.0,0.0,0.0,0.0,0.0,0.0,0.0,0.0,0.0,0.0,0.0,0.0,0.0,0.0,0.0,0.0,0.0,0.0,0.0,0.0,0.0,0.0,0.0,0.0,0.0,0.0,0.0,0.0,0.0,0.0,0.0,0.0,0.0,0.0,0.0,0.0,0.0,0.0,0.0,0.0,0.0,0.0,0.0,0.0,0.0,0.0,0.0,0.0,0.0,0.0,0.0,0.0,0.0,0.0,0.0,0.0,0.0,0.0,0.0,0.0,0.0,0.0,0.0,0.0,0.0,0.0,0.0,0.0,0.0,0.0,0.1451,0.1227,0.0833,0.0075,0.0,0.0471,0.1489,0.2503,0.3403,0.0,0.0,0.0,0.0,0.0,0.0,0.0,0.0,0.0,0.0,0.0,0.0,0.0,0.0,0.0,0.0,0.0,0.0,0.0,0.0,0.0,0.0,0.0,0.0,0.0,0.0,0.0,0.0,0.0,0.0,0.0,0.0,0.0,0.0,0.0,0.0,0.0,0.0,0.0,0.0,0.0,0.0,0.0,0.0,0.0,0.0,0.0,0.0,0.0,0.0,0.0,0.0,0.0,0.0,0.0,0.0,0.0,0.0,0.0,0.0,0.0,0.0,0.0,0.0,0.0,0.0,0.0,0.0,0.0,0.0,0.0,0.0,0.0,0.0,0.0,0.0,0.0,0.0,0.0,0.0,0.0,0.0,0.0,0.0,0.0,0.0,0.0,0.0,0.0,0.0,0.0,0.0,0.0,0.0,0.0,0.0,0.0,0.0,0.0,0.0,0.0,0.0,0.0,0.2381,0.2692,0.2489,0.1049,0.1696,0.2034,0.1645,0.3205,0.4128,0.4019,0.0,0.0,0.0,0.0,0.0,0.0,0.0,0.0,0.0,0.0,0.0,0.0,0.0,0.0,0.0,0.0,0.0,0.0,0.0,0.0,0.0,0.0,0.0,0.0,0.0,0.0,0.0,0.0,0.0,0.0,0.0,0.0,0.0,0.0,0.0,0.0,0.0,0.0,0.0,0.0,0.0,0.0,0.0,0.0,0.0,0.0,0.0,0.0,0.0,0.0,0.0,0.0,0.0,0.0,0.0,0.0,0.0,0.0,0.0,0.0,0.0,0.0,0.0,0.0,0.0,0.0,0.0,0.0,0.0,0.0,0.0,0.0,0.0,0.0,0.0,0.0,0.0,0.0,0.0,0.0,0.0,0.0,0.0,0.0,0.0,0.0,0.0,0.0,0.0,0.0,0.0,0.0,0.0,0.0,0.0,0.0,0.0,0.0,0.0,0.0,0.0,0.0,0.3044,0.3493,0.3411,0.2069,0.2604,0.3046,0.2817,0.3986,0.4913,0.5344,0.0,0.0,0.0,0.0,0.0,0.0,0.0,0.0,0.0,0.0,0.0,0.0,0.0,0.0,0.0,0.0,0.0,0.0,0.0,0.0,0.0,0.0,0.0,0.0,0.0,0.0,0.0,0.0,0.0,0.0,0.0,0.0,0.0,0.0,0.0,0.0,0.0,0.0,0.0,0.0,0.0,0.0,0.0,0.0,0.0,0.0,0.0,0.0,0.0,0.0,0.0,0.0,0.0,0.0,0.0,0.0,0.0,0.0,0.0,0.0,0.0,0.0,0.0,0.0,0.0,0.0,0.0,0.0,0.0,0.0,0.0,0.0,0.0,0.0,0.0,0.0,0.0,0.0,0.0,0.0,0.0,0.0,0.0,0.0,0.0,0.0,0.0,0.0,0.0,0.0,0.0,0.0,0.0,0.0,0.0,0.0,0.0,0.0,0.0,0.0,0.0,0.0,0.3492,0.3875,0.3876,0.3114,0.3262,0.3748,0.4608,0.4766,0.5609,0.7447,0.0,0.0,0.0,0.0,0.0,0.0,0.0,0.0,0.0,0.0,0.0,0.0,0.0,0.0,0.0,0.0,0.0,0.0,0.0,0.0,0.0,0.0,0.0,0.0,0.0,0.0,0.0,0.0,0.0,0.0,0.0,0.0,0.0,0.0,0.0,0.0,0.0,0.0,0.0,0.0,0.0,0.0,0.0,0.0,0.0,0.0,0.0,0.0,0.0,0.0,0.0,0.0,0.0,0.0,0.0,0.0,0.0,0.0,0.0,0.0,0.785,0.0,0.0,0.0,0.0,0.0,0.0,0.0,0.0,0.0,0.0,0.0,0.0,0.0,0.0,0.0,0.0,0.0,0.0,0.0,0.0,0.0,0.0,0.0,0.0,0.0,0.0,0.0,0.0,0.0,0.0,0.0,0.0,0.0,0.0,0.0,0.0,0.0,0.0,0.0,0.0,0.0,0.4383,0.4928,0.4938,0.4054,0.4936,0.5392,0.4766,0.5473,0.6485,0.7788,0.0,0.0,0.0,0.0,0.0,0.0,0.0,0.0,0.0,0.0,0.0,0.0,0.0,0.0,0.0,0.0,0.0,0.0,0.0,0.0,0.0,0.0,0.0,0.0,0.0,0.0,0.0,0.0,0.0,0.0,0.0,0.0,0.0,0.0,0.0,0.0,0.0,0.0,0.0,0.0,0.0,0.0,0.0,0.0,0.0,0.0,0.0,0.0,0.0,0.0,0.0,0.0,0.0,0.0,0.0,0.0,0.0,0.0,0.0,0.0,0.0,0.8229,0.0,0.0,0.0,0.0,0.0,0.0,0.0,0.0,0.0,0.0,0.0,0.0,0.0,0.0,0.0,0.0,0.0,0.0,0.0,0.0,0.0,0.0,0.0,0.0,0.0,0.0,0.0,0.0,0.0,0.0,0.0,0.0,0.0,0.0,0.0,0.0,0.0,0.0,0.0,0.0,0.4761,0.5348,0.5506,0.5,0.5773,0.6103,0.555,0.5944,0.687,0.8277,0.7521,0.0,0.0,0.0,0.0,0.0,0.0,0.0,0.0,0.0,0.0,0.0,0.0,0.0,0.0,0.0,0.0,0.0,0.0,0.0,0.0,0.0,0.0,0.0,0.0,0.0,0.0,0.0,0.0,0.0,0.0,0.0,0.0,0.0,0.0,0.0,0.0,0.0,0.0,0.0,0.0,0.0,0.0,0.0,0.0,0.0,0.0,0.0,0.0,0.0,0.0,0.0,0.0,0.0,0.0,0.0,1.0485,1.0477,1.0585,1.0766,1.0156,1.0083,1.0308,0.0,0.0,0.0,0.0,0.0,0.0,0.0,0.0,0.0,0.0,0.0,0.0,0.0,0.0,0.0,0.0,0.0,0.0,0.0,0.0,0.0,0.0,0.0,0.0,0.0,1.2157,1.2983,0.0,0.0,0.0,0.0,0.0,0.0,0.0,0.0,0.0,0.0,0.0,0.0,0.4888,0.5403,0.5772,0.58,0.6051,0.623,0.6257,0.6338,0.7034,0.8798,0.8172,0.835,0.0,0.0,0.0,0.0,0.0,0.0,0.0,0.0,0.0,0.0,0.0,0.0,0.0,0.0,0.0,0.0,0.0,0.0,0.0,0.0,0.0,0.0,0.0,0.0,0.0,0.0,0.0,0.0,0.0,0.0,0.0,0.0,0.9896,1.0993,0.0,0.0,0.0,0.0,0.0,0.0,0.0,0.0,0.0,0.0,0.0,0.0,0.0,0.0,0.9805,0.8985,0.8472,0.8323,0.8194,0.8348,0.8732,0.9887,1.0447,1.0484,1.1512,0.0,1.0223,1.1475,0.0,0.0,0.0,0.0,0.0,0.0,0.0,0.0,0.0,0.0,0.0,0.0,0.0,0.0,0.0,0.0,0.0,0.0,0.0,0.0,0.0,0.0,1.1989,1.2448,1.3013,1.3589,0.0,1.3509,1.2697,1.2705,0.0,0.0,0.0,0.0,0.0,0.0,0.0,0.0,0.5004,0.5382,0.5664,0.5789,0.5956,0.6115,0.6251,0.6338,0.7165,0.91,0.8827,0.9302,1.0782,1.0587,0.0,0.0,0.0,0.0,0.0,0.0,0.0,0.0,0.0,0.0,0.0,0.0,0.0,0.0,0.0,0.0,0.0,0.0,0.0,0.0,0.0,0.0,0.0,0.0,0.0,0.0,0.0,0.0,0.0,1.0037,1.0879,1.0925,1.1201,1.1437,0.0,0.0,0.0,0.0,0.0,0.0,0.0,0.0,0.0,1.1633,1.0585,0.971,0.9104,0.8607,0.8293,0.8187,0.8158,0.8359,0.8662,0.9406,1.0103,1.0625,1.1187,1.1422,1.137,1.188,1.1148,0.982,0.0,0.0,0.0,0.0,0.0,0.0,0.0,0.0,0.0,0.0,0.0,0.0,0.0,0.0,0.0,0.0,0.0,0.0,0.0,0.0,0.0,1.3194,1.41,1.5196,1.61,1.5238,1.4105,0.0,1.2869,1.1793,0.9636,0.0,0.0,0.0,0.0,0.0,0.5009,0.5359,0.5644,0.5786,0.5861,0.6,0.624,0.6179,0.7067,0.914,0.92,0.9801,1.1434,1.1111,1.0787,0.0,0.0,0.0,0.0,0.0,0.0,0.0,0.0,0.0,0.0,0.0,0.0,0.0,0.0,0.0,0.0,0.0,0.0,0.0,0.0,0.0,0.0,0.0,0.0,0.0,0.0,0.0,0.0,1.142,1.1907,1.1396,1.2361,1.2861,0.0,0.0,0.0,0.0,0.0,0.0,1.1882,1.1002,1.0214,0.9513,0.8651,0.7885,0.7322,0.714,0.7085,0.7205,0.7346,0.7682,0.8075,0.8608,0.9311,1.0034,1.0265,1.0864,1.1575,1.2054,1.1775,1.1083,1.2241,0.0,0.0,0.0,1.2977,1.3825,1.3843,1.4582,0.0,1.6235,0.0,0.0,1.5636,0.0,0.0,0.0,0.0,1.074,1.0669,0.0,1.2513,1.3037,1.4152,1.5317,1.5999,1.5303,1.4494,0.0,1.3511,1.218,0.9858,0.0,0.0,0.0,0.0,0.5651,0.505,0.5301,0.5586,0.5732,0.5745,0.5926,0.6497,0.6442,0.7335,0.9425,0.9637,1.0416,1.1912,1.1563,1.1652,0.0,0.0,0.0,0.0,0.0,0.0,0.0,0.0,0.0,0.0,0.0,0.0,0.0,0.0,0.0,0.0,0.0,0.0,0.0,0.0,0.0,0.0,0.0,0.0,0.0,0.0,0.0,0.0,0.0,0.0,1.3849,1.4593,0.0,0.0,0.0,0.0,1.3434,1.2474,1.1351,1.0005,0.9112,0.8044,0.6713,0.5837,0.5036,0.424,0.3394,0.3452,0.4394,0.4399,0.5024,0.6176,0.7138,0.7759,0.8008,0.8993,0.9372,0.9669,1.2437,1.2643,1.1267,1.2227,1.186,1.0848,1.1225,1.2789,1.4683,1.5097,1.5815,1.6717,1.7287,1.6775,1.5719,1.537,1.3893,0.0,0.0,0.0,1.0508,1.0953,1.1051,1.1245,1.1737,1.2153,1.2552,1.3099,1.2872,1.3296,0.0,1.505,0.0,1.2762,0.0,0.0,0.7669,0.6055,0.5019,0.5064,0.5267,0.5433,0.5586,0.5599,0.6007,0.6948,0.7256,0.8226,1.0208,1.0574,1.1162,1.2204,1.2251,1.2515,1.3124,1.2739,0.0,0.0,0.0,0.0,0.0,0.0,0.0,0.0,0.0,0.0,0.0,0.0,0.0,0.0,0.0,0.0,0.0,0.0,0.0,0.0,0.0,0.0,0.0,0.0,0.0,0.0,0.0,0.0,1.2633,1.3537,0.0,0.0,1.3007,1.2429,1.0822,1.0447,0.9448,0.7369,0.6482,0.5643,0.4941,0.404,0.3458,0.3137,0.2874,0.292,0.3348,0.3348,0.398,0.5073,0.5522,0.641,0.7605,0.8107,0.8694,0.9372,1.0409,1.0931,1.1013,1.1971,1.2465,1.2659,1.278,1.3779,1.4976,1.4866,1.5433,1.6281,1.7114,1.7038,1.6631,1.6127,1.4817,1.3259,1.2371,1.1686,1.1108,1.019,1.093,1.1934,1.2123,1.2623,1.2981,1.2625,1.1841,1.1265,1.1715,1.1541,1.1099,1.0294,0.9074,0.7709,0.6137,0.599,0.59,0.5387,0.5328,0.542,0.5576,0.5501,0.5945,0.6982,0.7275,0.8222,1.0252,1.0642,1.1242,1.2224,1.2305,1.3006,1.4457,1.403,1.4096,0.0,0.0,0.0,0.0,0.0,0.0,0.0,0.0,0.0,0.0,0.0,0.0,0.0,0.0,0.0,0.0,0.0,0.0,0.0,0.0,0.0,0.0,0.0,0.0,0.0,0.0,1.1735,1.0921,1.2074,1.2399,1.104,1.1274,1.0651,0.8552,0.817,0.7083,0.4911,0.3974,0.3251,0.2667,0.2075,0.1811,0.1811,0.1794,0.2002,0.2378,0.2356,0.292,0.3971,0.4043,0.4808,0.6069,0.6401,0.6992,0.7712,0.8004,0.8733,0.976,1.0777,1.1589,1.217,1.2069,1.2877,1.4049,1.4307,1.4841,1.5459,1.5871,1.5807,1.5453,1.4944,1.3696,1.2195,1.1131,1.0691,1.0319,0.9518,1.0296,1.1339,1.1339,1.1774,1.1936,1.1056,1.0219,0.947,0.8884,0.9011,0.9047,0.8579,0.7982,0.7126,0.5703,0.5907,0.6075,0.5495,0.5686,0.5792,0.5569,0.5948,0.6568,0.7353,0.7784,0.8731,1.0615,1.0869,1.1563,1.2725,1.2539,1.326,1.5214,1.5605,1.5958,1.6076,0.0,0.0,0.0,0.0,0.0,0.0,0.0,0.0,0.0,0.0,0.0,0.0,0.0,0.0,0.0,0.0,0.0,0.0,0.0,0.0,0.0,0.0,0.0,1.0619,0.9792,0.9016,0.9023,1.0398,1.0453,0.8197,0.9143,0.9059,0.6778,0.5627,0.427,0.2525,0.1603,0.0805,-0.0067,-0.0067,-0.0067,-0.0067,-0.0065,0.0387,0.1286,0.1249,0.181,0.2819,0.2885,0.2931,0.3145,0.3882,0.4284,0.4544,0.5377,0.6455,0.7552,0.867,0.9114,0.9078,0.8841,0.9973,1.1783,1.3547,1.4155,1.4097,1.3603,1.287,1.2134,1.175,1.047,0.9156,0.9093,0.8548,0.82,0.8988,0.925,0.9262,0.9262,0.9268,0.9005,0.8156,0.7962,0.7962,0.7897,0.7897,0.7897,0.7962,0.7242,0.6654,0.6654,0.5947,0.0,0.5428,0.6203,0.6396,0.5557,0.699,0.8027,0.8027,0.8818,0.9896,1.1321,1.1436,1.211,1.3643,1.2986,1.3443,1.5357,1.7431,1.8531,1.862,0.0,0.0,0.0,0.0,0.0,0.0,0.0,0.0,0.0,0.0,0.0,0.0,0.0,0.0,0.0,0.0,0.0,0.0,0.0,0.0,0.0,0.0,0.5479,0.7858,0.7862,0.7531,0.7226,0.7583,0.7631,0.6955,0.5568,0.4153,0.2912,0.1376,0.0,-0.12,-0.147,-0.174,-0.1944,-0.1944,-0.1661,-0.0978,-0.0971,-0.051,0.0375,0.0372,0.0866,0.1744,0.1908,0.232,0.299,0.3253,0.3766,0.4344,0.4677,0.5383,0.6231,0.762,0.851,0.9078,0.8841,0.9231,0.9944,1.0443,1.0925,1.1282,1.1019,1.0481,0.9888,0.9596,0.8819,0.7825,0.7213,0.7345,0.7542,0.7176,0.7598,0.8153,0.8153,0.8228,0.8091,0.7242,0.7046,0.6854,0.6207,0.6145,0.6338,0.6981,0.6334,0.5752,0.5752,0.0,0.0,0.633,0.7111,0.7567,0.7312,0.7702,0.8285,0.8877,0.9307,1.0092,0.0,1.2241,1.3031,1.365,1.4198,1.5317,1.7121,1.8458,1.8975,0.0,0.0,0.0,0.0,0.0,0.0,0.0,0.0,0.0,0.0,0.0,0.0,0.0,0.0,0.0,0.0,0.0,0.0,0.0,0.0,0.0,0.0,0.3519,0.2109,0.341,0.3906,0.4022,0.3783,0.3793,0.3663,0.327,0.1843,0.0596,-0.0332,-0.1332,-0.2127,-0.2568,-0.2633,-0.2553,-0.2521,-0.252,-0.2245,-0.1705,-0.1373,-0.0984,-0.0484,-0.0119,0.0237,0.0771,0.0905,0.1215,0.0,0.2103,0.2528,0.3047,0.3934,0.458,0.0,0.0,0.0,0.0,0.0,0.0,0.7996,0.8368,0.8717,0.9026,0.8924,0.8404,0.7799,0.7715,0.7042,0.6293,0.5808,0.6048,0.6349,0.6224,0.6664,0.7125,0.7125,0.7286,0.7242,0.6334,0.6141,0.6009,0.5491,0.0,0.0,0.6075,0.5752,0.5428,0.5428,0.6137,0.0,0.0,0.7762,0.842,0.8027,0.8672,0.9128,0.9274,0.9932,0.0,0.0,0.0,1.3731,1.4348,0.0,0.0,0.0,0.0,0.0,0.0,0.0,0.0,0.0,1.8754,1.9081,0.0,0.0,0.0,0.0,0.0,0.0,0.0,0.0,0.0,0.0,0.0,0.0,0.0,0.0,0.0,0.0,0.0604,-0.1238,-0.1651,-0.1089,-0.0529,-0.0332,-0.0265,-0.0595,-0.1393,-0.152,-0.1915,-0.2718,-0.2917,-0.2887,0.0,0.0,0.0,0.0,0.0,-0.2453,-0.2383,-0.1725,-0.1289,-0.1109,-0.0454,-0.0056,0.0,0.0,0.0,0.0056,0.0671,0.1101,0.1412,0.3153,0.402,0.4357,0.5277,0.546,0.5408,0.5839,0.5998,0.0,0.0,0.0,0.0,0.7175,0.6648,0.6007,0.5986,0.5456,0.4867,0.4867,0.4867,0.5044,0.5807,0.612,0.6204,0.6229,0.6365,0.6306,0.5554,0.5428,0.5428,0.5428,0.5428,0.5428,0.5428,0.5428,0.5428,0.5557,0.6268,0.0,0.6981,0.8415,0.9134,0.835,0.0,0.0,0.953,1.0649,1.1593,1.2149,1.322,1.438,1.5504,1.6498,1.7719,1.9291,1.9411,2.0579,2.2811,2.234,2.2105,2.203,1.9532,1.9879,0.0,0.0,0.0,0.0,0.0,0.0,0.0,0.0,0.0,0.0,0.0,0.0,0.0,0.0,0.0,-0.0213,-0.2136,-0.3498,-0.4239,-0.4229,-0.3639,-0.233,-0.2097,-0.207,-0.2265,-0.2786,-0.3246,-0.3437,-0.4063,-0.4488,-0.4467,-0.4464,0.0,-0.4363,-0.4363,-0.4068,-0.3313,-0.3175,-0.2429,-0.1072,0.0,0.0,0.0,0.0,0.0,0.0,0.0168,0.0573,0.1248,0.245,0.3731,0.4968,0.5289,0.524,0.4982,0.4974,0.4937,0.4826,0.505,0.514,0.5231,0.5095,0.503,0.4998,0.4865,0.4717,0.0,0.4551,0.4551,0.4604,0.0,0.4948,0.504,0.5172,0.5318,0.5399,0.5401,0.5428,0.5428,0.5428,0.5428,0.5428,0.5428,0.5428,0.5624,0.633,0.7181,0.8027,0.8683,0.9716,1.0301,1.0104,1.0428,1.0561,1.0364,1.1162,1.1839,1.2163,1.4271,1.5924,1.6975,1.8142,1.8971,1.9296,1.9993,2.059,2.1101,2.0997,2.0951,2.0917,2.0864,2.1673,0.0,0.0,0.0,0.0,0.0,0.0,0.0,0.0,0.0,0.0,0.0,1.0217,0.0,0.0,0.0347,-0.2442,-0.3834,-0.479,-0.5363,-0.5521,-0.513,-0.4046,-0.3771,-0.3708,-0.3708,-0.403,-0.4238,-0.4238,-0.4671,-0.4887,-0.4809,-0.4806,-0.4769,-0.4694,-0.4691,-0.448,-0.4059,-0.3659,-0.306,-0.2174,-0.184,-0.1285,-0.056,-0.056,-0.0336,0.0,0.0,0.0228,0.0648,0.158,0.2703,0.3808,0.3931,0.4069,0.4305,0.4515,0.43,0.3959,0.4349,0.457,0.4565,0.4543,0.457,0.4562,0.4539,0.4519,0.4519,0.4519,0.4519,0.4519,0.4519,0.4633,0.4823,0.4901,0.5087,0.5267,0.5345,0.5428,0.5428,0.5428,0.5428,0.5428,0.5428,0.5428,0.5686,0.6588,0.7437,0.8291,0.921,1.0047,1.0624,1.0624,1.0624,1.0624,1.0624,1.1725,1.2902,1.407,1.5287,1.6436,1.7363,1.8031,1.8629,1.9299,1.9748,2.0139,2.059,2.059,2.059,2.0579,2.0892,2.138,0.0,0.0,0.0,0.0,0.0,0.0,0.0,0.0,1.3241,1.1625,0.9718,0.7028,0.2624,0.0,-0.2095,-0.3798,-0.4718,-0.5282,-0.5574,-0.5809,-0.5751,-0.5275,-0.5243,-0.5288,-0.5288,-0.5142,-0.5005,-0.5005,-0.4889,-0.4775,-0.4653,-0.4646,-0.4589,-0.4522,-0.4519,-0.4519,-0.4519,-0.3901,-0.3511,-0.3287,-0.273,-0.1952,-0.1118,-0.1118,-0.0671,0.0,0.0,0.0115,0.0295,0.1033,0.1752,0.2521,0.2521,0.2745,0.3182,0.3828,0.3622,0.3176,0.4015,0.4294,0.4294,0.446,0.4519,0.4519,0.4519,0.4519,0.4519,0.4519,0.4519,0.4519,0.4519,0.4646,0.4847,0.4904,0.5101,0.5291,0.5415,0.5428,0.5428,0.5428,0.5428,0.5428,0.5428,0.5428,0.5752,0.6785,0.7567,0.8355,0.9396,1.0174,1.0624,1.0624,1.0624,1.0681,1.0807,1.2151,1.3796,1.5607,1.5824,1.622,1.6946,1.7062,1.7681,1.8747,1.8967,1.9365,2.0074,2.0074,2.0074,2.0074,2.0074,2.0268,0.9848,1.2013,0.0,1.4978,1.5188,1.5218,0.0,0.0,1.1652,0.9286,0.7102,0.4566,0.1146,-0.0852,-0.2485,-0.4184,-0.4622,-0.4834,-0.4991,-0.549,-0.581,-0.5715,-0.6271,-0.6659,-0.6659,-0.5927,-0.544,-0.544,-0.4897,-0.4563,-0.4543,-0.4543,-0.4536,-0.4519,-0.4519,-0.4519,-0.4519,-0.4405,-0.4015,-0.3287,-0.3289,-0.251,-0.1118,-0.1118,-0.0671,0.0,0.0,0.041,0.1178,0.1276,0.1752,0.2521,0.2521,0.2017,0.1459,0.2178,0.2397,0.2454,0.3234,0.3511,0.3624,0.4294,0.4519,0.4519,0.4519,0.4519,0.4519,0.4519,0.4519,0.4519,0.4519,0.4543,0.4582,0.4853,0.4945,0.504,0.5304,0.5428,0.5428,0.5428,0.5428,0.5428,0.5428,0.5428,0.5951,0.7637,0.7962,0.8608,1.0231,1.0561,1.0624,1.0624,1.0624,1.0863,1.1593,1.2512,1.3381,1.4336,1.4793,1.5195,1.5504,1.599,1.6431,1.6895,1.7706,1.8202,1.8269,1.8269,1.8269,1.8269,1.8269,1.911,1.1858,0.0,0.0,0.0,1.2896,1.1725,1.1141,0.8967,0.6645,0.5048,0.3096,0.088,-0.1944,-0.3395,-0.4448,0.0,-0.5063,-0.5022,-0.5194,-0.549,-0.5772,-0.6225,-0.6939,-0.7214,-0.6774,-0.6361,-0.5982,-0.5538,-0.5218,-0.4897,-0.4515,-0.4519,-0.4519,-0.4519,-0.4519,-0.4519,-0.4519,-0.4519,-0.4349,-0.4012,-0.4015,-0.3456,-0.2397,-0.1952,-0.1118,0.0,0.0,0.0229,0.0515,0.0522,0.0752,0.1028,0.1028,0.0793,0.0616,0.1786,0.1952,0.1675,0.2454,0.2676,0.2843,0.3566,0.3846,0.3959,0.4349,0.4519,0.4519,0.4519,0.4519,0.4519,0.4519,0.4584,0.4626,0.4755,0.4918,0.5077,0.5199,0.5298,0.5428,0.5428,0.5428,0.5428,0.5428,0.5428,0.5818,0.7046,0.7242,0.7892,0.9588,0.9849,1.004,1.0561,1.0624,1.0926,1.171,1.2143,1.2634,1.3425,1.37,1.395,1.4328,1.4556,1.4919,1.5446,1.5883,1.6213,1.6376,1.6932,1.7217,1.7207,1.7725,1.8395,1.2005,0.0,0.0,1.1506,0.9761,0.7966,0.6764,0.4585,0.2496,0.1121,-0.0442,-0.2192,-0.4279,-0.5246,-0.5702,-0.5571,-0.5257,-0.5052,-0.5123,-0.5263,-0.5655,-0.6355,-0.7089,-0.7431,-0.7131,-0.6983,-0.6583,-0.5869,-0.5597,-0.5218,-0.4519,-0.4519,-0.4519,-0.4519,-0.4519,-0.4519,-0.4519,-0.4519,-0.4519,-0.4519,-0.4519,-0.4125,-0.3345,-0.2343,-0.1229,0.0,0.0,0.0,0.0,0.0,0.0,0.0,0.0,0.0,0.0112,0.1174,0.1229,0.0895,0.1619,0.1898,0.2009,0.2732,0.3178,0.3456,0.4015,0.4349,0.4519,0.4519,0.4519,0.4519,0.4519,0.4545,0.4636,0.468,0.4887,0.5084,0.5121,0.525,0.5428,0.5428,0.5428,0.5428,0.5428,0.5428,0.562,0.6268,0.633,0.6985,0.8748,0.9139,0.953,1.0174,1.0428,1.0863,1.1406,1.1648,1.2081,1.2634,1.2696,1.2857,1.3195,1.3219,1.3575,1.419,1.447,1.4738,1.4935,1.5618,1.6023,1.612,1.6766,1.7114,0.0,0.0,0.8278,0.6619,0.5743,0.4723,0.2808,0.1799,0.0601,-0.1797,-0.2866,-0.382,-0.5043,-0.541,-0.54,-0.4976,-0.4911,-0.4731,-0.4285,-0.4727,-0.5354,-0.5946,-0.6681,-0.7419,0.0,-0.7949,-0.7343,-0.6642,-0.5928,-0.5218,-0.4519,-0.4519,-0.4519,-0.4519,-0.4519,-0.4519,-0.4519,-0.4519,-0.4519,-0.4519,-0.4519,-0.4125,-0.3345,-0.1842,-0.0727,0.0,0.0,0.0,0.0,0.0,0.0,0.0,0.0,0.0,0.0,0.0056,0.0056,0.0112,0.0895,0.1118,0.1229,0.2009,0.273,0.3345,0.34,0.3956,0.4519,0.4519,0.4519,0.4519,0.4519,0.4522,0.4563,0.4657,0.4809,0.4962,0.5101,0.525,0.5428,0.5428,0.5428,0.5428,0.5428,0.5428,0.5428,0.5428,0.5428,0.6079,0.7832,0.8748,0.9338,0.9338,1.011,1.0624,1.0618,1.1344,1.1834,1.1834,1.1826,1.1977,1.2235,1.2402,1.2576,1.2923,1.3842,1.4304,1.4313,1.4378,1.4488,1.4763,1.4763,1.4955,0.0,0.0,0.4144,0.2372,0.1422,0.052,-0.0971,-0.2159,-0.3161,-0.3812,-0.5574,-0.6984,-0.6875,-0.7589,-0.7944,-0.7032,-0.639,-0.5692,-0.4789,-0.4844,-0.4902,-0.4705,-0.5683,0.0,0.0,0.0,0.0,-0.7385,-0.6637,-0.5928,-0.5218,-0.4732,-0.4519,-0.4519,-0.4519,-0.4519,-0.4519,-0.4519,-0.4519,-0.4519,-0.4519,-0.407,-0.3345,-0.2788,-0.2174,-0.1452,-0.095,-0.0727,-0.0671,-0.0224,0.0,0.0,0.0,0.0,0.0,0.0,0.0,0.0056,0.028,0.0392,0.0504,0.1229,0.1953,0.2676,0.3176,0.3901,0.4519,0.4519,0.4519,0.4519,0.4519,0.4519,0.4529,0.4584,0.4657,0.4809,0.4958,0.5104,0.524,0.5342,0.5428,0.5428,0.5428,0.5428,0.5428,0.5428,0.5881,0.6461,0.7046,0.7892,0.842,0.842,0.8678,0.9128,0.9658,0.9964,1.0408,1.0982,1.0982,1.1031,1.1128,1.1206,1.1353,1.1661,1.2119,1.2354,1.2354,1.34,1.384,1.3808,1.4657,1.5118,0.0,0.0872,-0.0269,-0.1515,-0.2405,-0.3237,-0.4146,-0.4791,-0.5273,-0.5495,-0.6993,-0.8292,-0.8265,-0.9144,-0.9703,-0.9164,-0.848,-0.7568,-0.6401,-0.598,-0.5562,-0.4862,-0.555,0.0,0.0,0.0,0.0,-0.757,-0.7109,-0.6445,-0.5538,-0.5109,-0.4732,-0.4519,-0.4519,-0.4519,-0.4519,-0.4519,-0.4519,-0.4519,-0.4519,-0.407,-0.3345,-0.3287,-0.2899,-0.2174,-0.1675,-0.1507,-0.1452,-0.0671,-0.0392,-0.0392,-0.0112,0.0,0.0,0.0,0.0,0.0,0.0,0.0,0.0056,0.056,0.1396,0.2286,0.2788,0.3677,0.4519,0.4519,0.4519,0.4519,0.4519,0.4519,0.4519,0.4519,0.4579,0.4731,0.4887,0.503,0.5162,0.526,0.5281,0.5264,0.5213,0.5247,0.5298,0.5418,0.5881,0.6268,0.6268,0.6985,0.7502,0.7502,0.7827,0.8221,0.8812,0.8812,0.9069,0.9646,0.9646,0.9779,1.011,1.011,1.0386,1.0835,1.1122,1.1269,1.1269,1.2375,1.2855,1.2846,1.361,1.4047,-0.1774,-0.3363,-0.4846,-0.516,-0.5724,-0.6328,-0.6539,-0.6054,-0.5882,-0.681,-0.7341,-0.8018,0.0,0.0,-1.074,-1.1126,-1.0855,-1.0171,-0.8962,-0.8017,-0.7211,0.0,0.0,0.0,0.0,0.0,0.0,-0.7357,0.0,-0.6832,-0.5697,-0.5542,-0.5218,-0.457,-0.4515,-0.4519,-0.4519,-0.4519,-0.4519,-0.4519,-0.4519,-0.4125,-0.3456,-0.34,-0.2954,-0.2341,-0.2286,-0.2286,-0.2174,-0.1452,-0.1118,-0.1006,-0.0336,-0.0056,0.0,0.0,0.0,0.0,0.0,0.0,0.0,0.0,0.095,0.2174,0.2174,0.3234,0.4463,0.4463,0.4463,0.4463,0.4463,0.4463,0.446,0.4519,0.4572,0.4721,0.4874,0.5013,0.5111,0.5118,0.5121,0.5077,0.4942,0.503,0.5172,0.5325,0.5415,0.5418,0.5425,0.6141,0.6654,0.6654,0.7372,0.7897,0.7962,0.7962,0.7962,0.8027,0.8027,0.842,0.9274,0.9338,0.9792,1.0581,1.0868,1.1015,1.1015,1.1323,1.1603,1.187,1.1884,1.2037,-0.5888,-0.6705,-0.7261,-0.8065,-0.7647,-0.6945,-0.6678,-0.6684,-0.6868,-0.723,-0.9087,-1.0564,0.0,0.0,0.0,-1.1513,-1.1756,0.0,-0.983,-0.9099,0.0,-0.7443,0.0,-0.6901,-0.7108,-0.7201,0.0,0.0,-0.7668,-0.7441,-0.7171,-0.6086,-0.5433,-0.5269,-0.4787,-0.4519,-0.4519,-0.4519,-0.4519,-0.4519,-0.4519,-0.4405,-0.4239,-0.4184,-0.407,-0.3901,-0.3345,-0.3065,-0.2954,-0.2232,-0.1619,-0.1062,-0.0895,-0.0504,0.0,0.0,0.0,0.0,0.0,0.0,0.0,0.0,0.0615,0.1507,0.2009,0.2843,0.3622,0.3622,0.3622,0.3677,0.3622,0.3622,0.3735,0.4349,0.4546,0.4562,0.4714,0.4775,0.4836,0.4952,0.4972,0.4962,0.4925,0.4948,0.502,0.5169,0.5189,0.5233,0.5415,0.5624,0.5752,0.5752,0.5947,0.6338,0.6981,0.7046,0.7307,0.7962,0.8613,0.9075,0.9274,0.9919,1.0463,1.0875,1.1169,1.1316,1.1316,1.183,1.2011,1.187,1.2091,1.2231,-0.8376,-0.8678,-0.8717,-0.8738,-0.8056,-0.7238,-0.6737,-0.7082,-0.7489,-0.7468,-0.9511,0.0,0.0,0.0,0.0,0.0,0.0,0.0,-1.2779,-1.194,-1.0836,0.0,-0.8548,0.0,-0.746,-0.7722,-0.7931,0.0,-0.7828,-0.7747,-0.7711,-0.6902,-0.6303,-0.5982,-0.5605,-0.5281,-0.4948,-0.4625,-0.4519,-0.4519,-0.4519,-0.4519,-0.4519,-0.4519,-0.4519,-0.446,0.0,-0.3846,-0.379,-0.301,-0.2454,-0.2009,-0.1341,-0.0838,-0.0448,-0.0112,0.0,0.0,0.0,0.0,0.0,0.0,0.0504,0.1174,0.1619,0.2232,0.2841,0.2841,0.2843,0.2954,0.3289,0.3345,0.3511,0.4294,0.4519,0.456,0.4657,0.4691,0.4714,0.4802,0.4765,0.4741,0.4806,0.4819,0.4891,0.5098,0.5131,0.5186,0.5342,0.5428,0.5428,0.5428,0.5428,0.5624,0.6075,0.6141,0.6334,0.6859,0.7316,0.7772,0.8156,0.8712,0.9228,0.9777,1.0071,1.0254,1.0254,1.0748,1.0873,1.0736,1.1396,1.162,-0.9809,-0.9666,-0.9356,-0.8231,-0.7662,-0.7234,-0.6774,-0.7192,-0.7726,-0.7721,0.0,-1.0493,-1.0569,-1.3067,-1.5241,-1.5621,0.0,-1.7246,-1.6252,-1.5235,-1.3725,-1.1335,-1.0536,-0.9686,-0.8399,-0.8738,-0.8749,-0.8038,-0.8024,-0.798,-0.7853,-0.7777,-0.7343,-0.6642,-0.648,-0.6145,-0.5487,-0.4842,-0.4519,-0.4519,-0.4519,-0.4519,-0.4519,-0.4519,-0.4519,-0.4519,0.0,0.0,-0.446,-0.379,-0.3456,-0.3176,-0.1786,-0.1174,-0.1006,-0.028,0.0,0.0,0.0,0.0,0.0,0.0,0.0448,0.095,0.1062,0.1563,0.2063,0.2063,0.2063,0.2232,0.2899,0.3121,0.3345,0.4181,0.4408,0.4556,0.4629,0.466,0.466,0.466,0.4555,0.456,0.4636,0.466,0.4755,0.503,0.5091,0.5159,0.5311,0.5415,0.5428,0.5428,0.5428,0.5428,0.5428,0.5428,0.5428,0.5428,0.5491,0.5881,0.6654,0.697,0.7428,0.8205,0.8593,0.8797,0.887,0.915,0.9236,0.928,1.0244,1.0683,-1.0799,-0.9924,-0.9084,-0.8527,-0.7585,-0.6797,-0.6901,-0.683,0.0,0.0,-0.9053,-1.0226,-1.1761,-1.381,-1.5475,-1.6086,0.0,0.0,0.0,0.0,-1.5153,0.0,0.0,0.0,0.0,0.0,0.0,0.0,0.0,0.0,-0.8613,-0.8049,-0.7343,-0.6642,-0.5982,-0.5651,-0.5487,-0.4842,-0.4519,-0.4519,-0.4519,-0.4519,-0.4519,-0.4519,-0.4519,-0.4519,0.0,0.0,-0.4519,-0.4349,-0.3959,-0.3289,-0.2343,-0.1619,-0.1006,-0.028,0.0,0.0,0.0,0.0,0.0,0.0,0.0112,0.028,0.0895,0.1174,0.1284,0.1284,0.1284,0.134,0.1452,0.1952,0.2621,0.34,0.407,0.4525,0.4553,0.456,0.456,0.456,0.4536,0.4525,0.4553,0.456,0.4562,0.4741,0.4874,0.5006,0.5152,0.5281,0.5428,0.5428,0.5428,0.5428,0.5428,0.5428,0.5428,0.5428,0.6075,0.6527,0.6719,0.7507,0.8176,0.8499,0.8739,0.8875,0.903,0.9071,0.9067,0.8877,0.9803,1.0237,-1.1323,-1.0421,-0.9444,-0.8434,-0.746,-0.6767,-0.6941,0.0,0.0,0.0,-0.8851,-0.9991,-1.1586,0.0,0.0,0.0,0.0,0.0,0.0,0.0,0.0,0.0,0.0,0.0,0.0,0.0,0.0,0.0,0.0,0.0,0.0,-0.848,-0.8103,-0.7777,-0.7009,-0.647,-0.6091,-0.5382,-0.4842,-0.4519,-0.4519,-0.4519,-0.4519,-0.4519,-0.4519,-0.4519,0.0,0.0,0.0,-0.4519,-0.4294,-0.3901,-0.3065,-0.2341,-0.1563,-0.0838,-0.0336,0.0,0.0,0.0,0.0,0.0,0.0,0.0056,0.0448,0.0504,0.0504,0.0504,0.0504,0.0615,0.1006,0.1341,0.1898,0.3065,0.3956,0.4519,0.4519,0.4519,0.4519,0.4519,0.4519,0.4519,0.4519,0.4519,0.457,0.4667,0.4755,0.488,0.5101,0.5196,0.5274,0.5418,0.5428,0.5428,0.5428,0.5428,0.5428,0.5428,0.5815,0.6051,0.6138,0.6644,0.6987,0.7145,0.7252,0.7371,0.7347,0.7347,0.7588,0.7915,0.8904,0.9539,-1.1387,-1.0507,-0.9525,-0.8039,-0.7143,-0.6695,-0.7017,-0.6807,0.0,-0.775,-0.854,-0.9672,-1.1647,0.0,-1.5741,0.0,0.0,0.0,0.0,0.0,0.0,0.0,0.0,0.0,0.0,0.0,0.0,0.0,0.0,0.0,0.0,-0.8804,-0.8804,-0.8804,-0.8103,-0.7402,-0.6858,-0.5923,-0.5218,-0.4736,-0.457,-0.4519,-0.4519,-0.4519,-0.4519,-0.4519,0.0,0.0,0.0,-0.4519,-0.4519,-0.4405,-0.3622,-0.2843,-0.212,-0.1397,-0.0615,0.0,0.0,0.0,0.0,0.0,0.0,0.0,0.0,0.0,0.0,0.0,0.0,0.0112,0.0727,0.1006,0.1452,0.2954,0.3901,0.4519,0.4519,0.4519,0.4519,0.4519,0.4519,0.4519,0.4519,0.4519,0.456,0.4623,0.467,0.4775,0.5006,0.5091,0.5176,0.5298,0.5342,0.5428,0.5428,0.5428,0.5428,0.5428,0.5459,0.5464,0.5586,0.5755,0.5833,0.58,0.5952,0.5939,0.5755,0.5755,0.616,0.7032,0.7998,0.8965,-1.0803,-0.9645,-0.8526,-0.7235,-0.6431,-0.623,-0.7151,0.0,-0.5953,-0.8005,-0.8175,-0.9196,-1.3274,0.0,0.0,0.0,0.0,-1.9046,0.0,0.0,0.0,0.0,0.0,0.0,0.0,0.0,0.0,0.0,0.0,0.0,0.0,-0.8804,-0.8804,-0.8804,-0.8103,-0.767,-0.7616,-0.6195,-0.5487,-0.5378,-0.4787,-0.4519,-0.4519,-0.4519,-0.4519,-0.4519,0.0,0.0,0.0,-0.4519,-0.4519,-0.4408,-0.368,-0.2899,-0.212,-0.1397,-0.0615,0.0,0.0,0.0,0.0,0.0,0.0,0.0,0.0,0.0,0.0,0.0,0.0,0.0,0.0056,0.0616,0.1507,0.301,0.3959,0.4519,0.4519,0.4519,0.4519,0.4519,0.4519,0.4519,0.4519,0.4519,0.4522,0.4536,0.4602,0.4701,0.4728,0.4965,0.5135,0.5148,0.5277,0.5428,0.5428,0.5428,0.5428,0.5428,0.5491,0.5576,0.5589,0.5861,0.5942,0.5803,0.5952,0.5891,0.561,0.561,0.6006,0.6771,0.763,0.8549,-1.2196,-1.0634,-0.9234,-0.8014,-0.7332,-0.7313,-0.8558,-0.7854,-0.7497,-0.9442,-0.9109,-0.9673,-1.3625,-1.3472,0.0,0.0,0.0,0.0,-1.9193,0.0,0.0,0.0,0.0,0.0,0.0,0.0,0.0,0.0,0.0,0.0,0.0,0.0,-0.9211,-0.8804,-0.8533,-0.8156,-0.7723,-0.7122,-0.6357,-0.5487,-0.5218,-0.4893,-0.4519,-0.4519,-0.4519,0.0,0.0,0.0,0.0,-0.4519,-0.4519,-0.446,-0.4181,-0.3566,-0.2843,-0.2065,-0.1284,-0.0616,-0.0168,0.0,0.0,0.0,0.0,0.0,0.0,0.0,0.0,0.0,0.0,0.0,0.0,0.056,0.1341,0.2452,0.3289,0.3959,0.4405,0.4519,0.4519,0.4519,0.4125,0.3959,0.4408,0.4125,0.4015,0.4408,0.457,0.4585,0.4677,0.4792,0.4901,0.4992,0.522,0.5428,0.5428,0.5428,0.5466,0.5494,0.5555,0.563,0.5715,0.583,0.5823,0.5677,0.5735,0.5661,0.5454,0.5454,0.6144,0.7502,0.7832,0.8742,-1.3474,-1.1653,-0.9865,-0.8708,-0.8368,-0.859,-0.9712,-0.9503,-0.9478,-1.0907,-1.0743,-1.1265,-1.4343,-1.4084,-1.483,-1.916,0.0,-1.7792,-1.8982,0.0,0.0,0.0,0.0,0.0,0.0,0.0,0.0,0.0,0.0,0.0,0.0,0.0,-0.9762,-0.9106,-0.891,-0.8533,-0.8049,-0.783,-0.7176,-0.614,-0.5923,-0.5437,-0.4787,-0.4787,0.0,0.0,0.0,0.0,0.0,-0.4519,-0.4519,-0.4519,-0.4519,-0.4015,-0.3289,-0.2732,-0.1898,-0.1006,-0.0504,-0.0168,0.0,0.0,0.0,0.0,0.0,0.0,0.0,0.0,0.0,0.0,0.0,0.056,0.1229,0.173,0.2676,0.3514,0.4015,0.4349,0.4519,0.4519,0.407,0.3904,0.4405,0.407,0.3901,0.4408,0.4519,0.4556,0.4609,0.4663,0.4731,0.484,0.5077,0.523,0.523,0.5311,0.5406,0.5515,0.5647,0.5725,0.5739,0.5823,0.5759,0.5528,0.5837,0.5913,0.5815,0.6013,0.6924,0.8355,0.8355,0.9192,-1.4231,-1.2272,-0.9955,-0.895,-0.9192,-0.9787,-1.019,-1.0837,-1.1559,-1.2251,-1.3059,-1.4158,-1.5771,-1.6284,-1.6939,-1.8372,-1.7493,0.0,-1.9035,0.0,0.0,0.0,0.0,0.0,0.0,0.0,0.0,0.0,0.0,0.0,0.0,0.0,-1.0466,-0.9814,-0.9159,-0.8804,-0.8804,-0.8049,-0.767,-0.767,-0.6912,-0.6199,-0.5487,-0.5487,0.0,0.0,0.0,0.0,0.0,-0.4519,-0.4519,-0.4519,-0.4519,-0.4015,-0.3287,-0.3287,-0.2343,-0.1118,-0.1118,-0.0615,0.0,0.0,0.0,0.0,0.0,0.0,0.0,0.0,0.0,0.0,0.0,0.056,0.1118,0.1118,0.2287,0.34,0.3345,0.3956,0.4519,0.4519,0.4519,0.4519,0.4519,0.4519,0.4519,0.4519,0.4519,0.4519,0.4519,0.4599,0.4691,0.4694,0.483,0.4925,0.4925,0.5192,0.5428,0.5428,0.5779,0.5895,0.5603,0.5874,0.582,0.5439,0.6376,0.6844,0.6719,0.7567,0.842,0.9274,0.9274,0.9786,-1.5423,-1.4036,-1.3552,-1.1575,-1.1866,-1.2842,-1.3678,-1.4095,-1.4336,-1.4312,-1.3776,-1.3646,-1.4784,-1.3643,-1.3868,-1.795,-1.6738,0.0,0.0,0.0,0.0,0.0,0.0,0.0,0.0,0.0,0.0,0.0,0.0,0.0,0.0,0.0,0.0,-0.9814,-0.9166,-0.8804,-0.8804,-0.8586,-0.8209,-0.7723,-0.745,-0.6961,-0.6253,0.0,0.0,0.0,0.0,0.0,0.0,-0.4677,-0.4519,-0.4519,-0.4519,-0.4349,-0.407,-0.3511,-0.301,-0.2508,-0.2009,-0.1675,-0.1396,-0.0895,-0.0727,-0.0671,-0.0168,0.0,0.0,0.0,0.0,0.0,0.0,0.0168,0.0616,0.1619,0.2232,0.2843,0.3901,0.4294,0.4519,0.4519,0.407,0.3846,0.4405,0.407,0.3901,0.4408,0.4519,0.4519,0.4519,0.456,0.4591,0.4591,0.4579,0.4694,0.4901,0.5006,0.5101,0.5199,0.5338,0.5372,0.5277,0.5467,0.5457,0.5209,0.5613,0.587,0.5815,0.6079,0.6662,0.7567,0.8748,0.9466,-1.7778,-1.6404,-1.4963,-1.3814,-1.4219,-1.5061,-1.571,-1.5905,-1.5553,-1.4004,-1.2938,-1.2383,-1.277,-1.0624,-1.0831,-1.6954,-1.447,0.0,0.0,0.0,0.0,0.0,0.0,0.0,0.0,0.0,0.0,0.0,0.0,0.0,0.0,0.0,0.0,-0.9779,-0.9144,-0.8804,-0.8804,-0.8804,-0.8586,-0.8103,-0.8103,-0.7723,-0.702,0.0,0.0,0.0,0.0,0.0,0.0,-0.4787,-0.4519,-0.4519,-0.4519,-0.4519,-0.4463,-0.3956,-0.3566,-0.3234,-0.2788,-0.2454,-0.2063,-0.134,-0.0895,-0.0616,-0.0112,0.0,0.0,0.0,0.0224,0.0392,0.0392,0.0615,0.1062,0.2009,0.2397,0.2899,0.3846,0.4294,0.4519,0.4519,0.407,0.3901,0.4405,0.4125,0.3959,0.4408,0.4519,0.4519,0.4519,0.4239,0.407,0.407,0.379,0.3685,0.384,0.4486,0.4955,0.5047,0.5155,0.5189,0.5131,0.5281,0.5287,0.5135,0.5603,0.5881,0.5881,0.6207,0.6662,0.7242,0.8291,0.8812,0.0,-1.8671,-1.5002,-1.5593,-1.6165,-1.6583,-1.6525,-1.6619,0.0,-1.1855,-1.0606,-1.0005,-0.9438,-0.7051,-0.7455,-1.4513,-1.0449,0.0,0.0,0.0,0.0,0.0,0.0,0.0,0.0,0.0,0.0,0.0,0.0,0.0,0.0,0.0,0.0,0.0,-0.9184,-0.8803,-0.8778,-0.8798,-0.8804,-0.8804,-0.8804,-0.8427,-0.7777,0.0,0.0,0.0,0.0,0.0,0.0,-0.4842,-0.4519,-0.4519,-0.4519,-0.4519,-0.4519,-0.4519,-0.4015,-0.34,-0.3456,-0.2954,-0.2174,-0.1341,-0.0616,0.0,0.0,0.0,0.0,0.0056,0.056,0.1118,0.1174,0.1675,0.2232,0.2286,0.2788,0.3345,0.3456,0.4015,0.4519,0.4519,0.4519,0.4519,0.4519,0.4519,0.4519,0.4519,0.4519,0.4519,0.4519,0.3855,0.3411,0.3403,0.2683,0.2181,0.2176,0.3717,0.4702,0.4702,0.5014,0.5107,0.4911,0.5117,0.5202,0.5004,0.6043,0.6588,0.6588,0.7437,0.7832,0.7832,0.7962,0.8027,-0.8659,0.0,-1.9721,-1.6811,-1.7276,-1.8322,0.0,-1.8299,-1.7154,0.0,0.0,0.0,0.0,-0.0761,-0.0678,-0.3123,0.0,0.0,0.0,0.0,0.0,0.0,0.0,0.0,0.0,0.0,0.0,0.0,0.0,0.0,0.0,0.0,0.0,0.0,-0.9727,-0.9048,-0.8521,-0.8697,-0.8804,-0.8804,-0.8804,-0.8699,0.0,0.0,0.0,0.0,0.0,0.0,0.0,-0.5324,-0.4948,-0.4519,-0.4519,-0.4519,-0.4519,-0.4519,-0.4405,-0.4236,-0.4236,-0.3735,-0.2899,-0.1563,-0.0616,0.0,0.0,0.0,0.0112,0.0671,0.095,0.1229,0.1786,0.2063,0.2343,0.2954,0.3234,0.3514,0.4125,0.4405,0.4519,0.4519,0.4519,0.4519,0.4519,0.4519,0.4519,0.4519,0.4519,0.4519,0.4519,0.3818,0.3325,0.3297,0.2624,0.2179,0.2181,0.2603,0.2853,0.2853,0.2894,0.2941,0.2872,0.3704,0.417,0.4099,0.5143,0.5686,0.5686,0.5885,0.6017,0.6013,0.7377,0.8027,-0.2011,-1.0372,-1.71,-1.7043,-1.7183,-1.7669,-1.8789,-1.5693,0.0,0.0,0.0,0.0,0.0,0.0,0.0,0.0,0.0,0.0,0.0,0.0,0.0,0.0,0.0,0.0,0.0,0.0,0.0,0.0,0.0,0.0,0.0,0.0,0.0,0.0,0.0,-0.939,-0.8756,-0.8924,-0.8923,-0.8804,-0.8804,-0.8804,0.0,0.0,0.0,0.0,0.0,0.0,-0.5487,-0.5164,-0.4842,-0.4519,-0.4519,-0.4519,-0.4519,-0.4519,-0.4519,-0.446,-0.4125,-0.3289,-0.223,-0.1397,-0.0616,0.0056,0.0392,0.0504,0.0616,0.1006,0.1563,0.2174,0.2619,0.2954,0.3345,0.379,0.3901,0.4015,0.4405,0.4519,0.4519,0.4519,0.4519,0.4519,0.4519,0.4519,0.4519,0.4519,0.4519,0.4519,0.4519,0.3851,0.3354,0.3294,0.2324,0.1708,0.1677,0.1396,0.1452,0.2174,0.2174,0.2266,0.2341,0.2901,0.3259,0.3266,0.385,0.4151,0.4151,0.4553,0.4755,0.4821,0.6137,0.6793,0.0743,-0.5226,-1.0619,-1.5218,-1.4637,-1.3738,-1.6697,0.0,0.0,0.0,0.0,0.0,0.0,1.366,0.0,0.0,0.0,0.0,0.0,0.0,0.0,0.0,0.0,0.0,0.0,0.0,0.0,0.0,0.0,0.0,0.0,0.0,0.0,0.0,0.0,0.0,-0.946,-0.9231,-0.9034,-0.8842,-0.879,-0.8764,-0.8752,0.0,0.0,0.0,0.0,0.0,-0.5328,-0.4842,-0.457,-0.4519,-0.4519,-0.4519,-0.4519,-0.4519,-0.4408,-0.4184,-0.3345,-0.2174,-0.1062,-0.095,-0.0504,0.0112,0.0895,0.1118,0.1118,0.1229,0.2232,0.3345,0.3456,0.4012,0.446,0.4349,0.4349,0.4294,0.4181,0.4125,0.4181,0.4294,0.4349,0.4349,0.4463,0.4519,0.4519,0.4519,0.4519,0.4519,0.4519,0.3863,0.3365,0.3289,0.2074,0.1292,0.1285,0.0671,0.0839,0.1952,0.2009,0.2158,0.2477,0.2375,0.2413,0.2674,0.2678,0.2678,0.2678,0.3413,0.3882,0.4015,0.4954,0.5488,-0.2528,-0.3606,-0.3762,-0.7838,-0.558,-0.2715,-0.4128,0.0,0.0,0.0,0.0,0.0,0.0,1.7185,1.6425,0.0,0.0,0.0,0.0,0.0,0.0,0.0,0.0,0.0,0.0,0.0,0.0,0.0,0.0,0.0,0.0,0.0,0.0,0.0,0.0,0.0,0.0,-0.9348,-0.8897,-0.9119,-0.8682,-0.8571,-0.8752,-0.7937,0.0,0.0,0.0,0.0,-0.4677,-0.5164,-0.5003,-0.4519,-0.4519,-0.4519,-0.4519,-0.4519,-0.4125,-0.3345,-0.1953,-0.1284,-0.1006,-0.0392,-0.0112,0.0112,0.0895,0.1118,0.1229,0.1842,0.2621,0.3456,0.4125,0.4405,0.4349,0.3735,0.3511,0.3287,0.2676,0.2565,0.2732,0.3345,0.3511,0.379,0.4405,0.4519,0.4519,0.4519,0.4519,0.4519,0.4519,0.3829,0.3395,0.3299,0.2516,0.2014,0.2014,0.1952,0.1675,0.1284,0.1284,0.1665,0.2436,0.1824,0.1882,0.2676,0.2678,0.2678,0.2678,0.2811,0.328,0.4015,0.4935,0.5727,0.1992,0.3242,0.4409,0.2125,0.1286,0.1053,0.0,0.0,0.0,0.0,0.0,0.0,0.0,0.0,0.0,0.0,0.0,0.0,0.0,0.0,0.0,0.0,0.0,0.0,0.0,0.0,0.0,0.0,0.0,0.0,0.0,0.0,0.0,0.0,0.0,0.0,0.0,-1.066,-1.0046,-0.9344,-0.9233,-0.9089,-0.8966,-0.8081,-0.7509,0.0,0.0,-0.5655,-0.5058,-0.5003,-0.4787,-0.4519,-0.4519,-0.4236,-0.379,-0.34,-0.2788,-0.2065,-0.1341,-0.0838,-0.0448,-0.0112,0.0,0.0112,0.0895,0.1118,0.1229,0.2009,0.2454,0.2788,0.3178,0.3234,0.3178,0.2843,0.2732,0.2619,0.2286,0.2174,0.2286,0.2621,0.2732,0.2843,0.3176,0.3566,0.3846,0.3846,0.4236,0.4519,0.4519,0.4182,0.3969,0.3965,0.3278,0.2834,0.2847,0.2063,0.1619,0.1675,0.1364,0.1583,0.2455,0.2214,0.2278,0.2676,0.2678,0.2678,0.2678,0.3145,0.3613,0.4015,0.4945,0.5609,0.4437,0.7289,0.9198,0.7029,0.6004,0.0,0.0,0.0,0.0,0.0,0.0,0.0,0.0,0.0,0.0,0.0,0.0,0.0,0.0,0.0,0.0,0.0,0.0,0.0,0.0,0.0,0.0,0.0,0.0,0.0,0.0,0.0,0.0,0.0,0.0,0.0,0.0,-1.2069,-1.1377,-0.9914,-1.0003,-0.9872,-0.9547,-0.8494,-0.8029,-0.7871,-0.6573,-0.5814,-0.5487,-0.4948,-0.4625,-0.4463,-0.4294,-0.3735,-0.2954,-0.2232,-0.1563,-0.1062,-0.0895,-0.0448,0.0,0.0,0.0,0.0112,0.0895,0.0838,0.0726,0.1449,0.1448,0.128,0.1782,0.1949,0.1838,0.1503,0.1447,0.1391,0.1225,0.1169,0.128,0.1615,0.1671,0.1783,0.2119,0.2843,0.3345,0.3287,0.3956,0.4519,0.4519,0.4519,0.4408,0.4236,0.3735,0.3289,0.3121,0.1898,0.1396,0.2174,0.1613,0.172,0.2671,0.2706,0.2657,0.2652,0.2669,0.2678,0.2678,0.3347,0.3816,0.4015,0.4553,0.5024,-0.152,0.2944,0.6545,0.0563,0.77,0.0,1.4157,1.4605,0.0,1.6233,0.0,0.0,0.0,0.0,0.0,0.0,0.0,0.0,0.0,0.0,0.0,0.0,0.0,0.0,0.0,0.0,0.0,0.0,0.0,0.0,0.0,0.0,0.0,0.0,0.0,0.0,0.0,0.0,-1.2374,-1.1179,-1.0794,-1.0646,-1.0671,-0.9592,-0.891,-0.8574,-0.7865,-0.674,-0.5487,-0.5433,-0.5054,-0.4408,-0.3735,-0.301,-0.2174,-0.1452,-0.1174,-0.1006,-0.0336,-0.0056,0.0,0.0,0.0,0.0112,0.0895,0.0168,-0.0782,-0.0056,-0.0835,-0.1392,0.0666,0.1165,0.0832,-0.0554,-0.0887,-0.1055,-0.1726,-0.1895,-0.1504,-0.0111,0.0167,0.0612,0.195,0.2843,0.3345,0.3287,0.3956,0.4519,0.4519,0.4519,0.4236,0.3456,0.3345,0.301,0.2343,0.1563,0.1396,0.2174,0.1613,0.1879,0.3173,0.2923,0.2633,0.2515,0.2644,0.2678,0.2678,0.2744,0.3211,0.4015,0.3211,0.3816,0.1495,0.5022,0.7901,0.7487,1.1097,0.0,0.0,1.1773,1.4093,1.061,1.1498,0.0,0.0,0.0,0.0,0.0,0.0,0.0,0.0,0.0,0.0,0.0,0.0,0.0,0.0,0.0,0.0,0.0,0.0,0.0,0.0,0.0,0.0,0.0,0.0,0.0,0.0,0.0,-1.348,-1.296,-1.2354,-1.1714,-1.1112,-1.0871,-1.0256,-0.9332,-0.8646,-0.7747,-0.6794,-0.5864,-0.5378,-0.4944,-0.3284,-0.2174,-0.1452,-0.0671,-0.0392,-0.0392,-0.0112,0.0,0.0,0.0,-0.0336,-0.0615,-0.0335,-0.1004,-0.1729,-0.1448,-0.1783,-0.2006,-0.1167,-0.0944,-0.1112,-0.1668,-0.1781,-0.1838,-0.2119,-0.2174,-0.2063,-0.1504,-0.1392,-0.1058,0.0,0.0793,0.1595,0.246,0.3291,0.3937,0.4418,0.4519,0.4184,0.3456,0.2899,0.2341,0.1563,0.1285,0.1229,0.1507,0.1384,0.1776,0.2775,0.3263,0.3492,0.3427,0.4061,0.4353,0.4353,0.4353,0.4553,0.4821,0.3949,0.4217,0.3456,0.7186,1.0164,1.143,0.0,0.0,0.4922,0.7717,1.0619,0.6909,0.0,0.0,0.0,0.0,0.0,0.0,0.0,0.0,0.0,0.0,0.0,0.0,0.0,0.0,0.0,0.0,0.0,0.0,0.0,0.0,0.0,0.0,0.0,0.0,0.0,0.0,0.0,0.0,-1.3791,-1.3744,-1.3436,-1.2958,-1.2351,-1.2006,-1.1407,-1.0704,-0.9518,-0.8646,-0.7919,-0.6676,-0.581,-0.4984,-0.3219,-0.195,-0.1006,-0.028,0.0,0.0,0.0,0.0,-0.0056,-0.028,-0.0671,-0.1118,-0.1396,-0.1952,-0.2565,-0.2565,-0.2732,-0.2899,-0.2899,-0.2732,-0.2621,-0.2899,-0.2899,-0.2899,-0.2899,-0.2899,-0.2843,-0.2619,-0.2363,-0.1977,-0.1231,-0.0289,0.0764,0.2107,0.2888,0.36,0.4435,0.4324,0.3677,0.2449,0.1391,0.0613,0.0112,0.0279,0.0391,0.0391,0.0686,0.1349,0.2359,0.3141,0.3558,0.3502,0.4199,0.4686,0.4957,0.4957,0.509,0.5362,0.442,0.4486,0.288,0.8515,1.2949,0.0,0.0,0.0,0.337,0.339,0.5295,0.6168,0.0,0.0,0.0,0.0,0.0,0.0,0.0,0.0,0.0,0.0,0.0,0.0,0.0,0.0,0.0,0.0,0.0,0.0,0.0,0.0,0.0,0.0,0.0,0.0,0.0,0.0,0.0,0.0,-1.3198,-1.321,-1.3833,-1.4289,-1.463,-1.2914,-1.2353,-1.2667,-1.0704,-0.9377,-0.8678,-0.7972,-0.6396,-0.4316,-0.3594,-0.2386,-0.1006,-0.028,0.0,0.0,0.0,0.0,-0.0112,-0.0894,-0.1118,-0.1229,-0.2009,-0.273,-0.3287,-0.3287,-0.3901,-0.4519,-0.4519,-0.3959,-0.3566,-0.4349,-0.4519,-0.4519,-0.4519,-0.4519,-0.4294,-0.3569,-0.275,-0.1973,-0.1237,0.0118,0.1401,0.2358,0.2991,0.369,0.4571,0.3928,0.2504,0.0222,-0.1336,-0.2174,-0.2174,-0.1507,-0.1118,-0.1118,-0.0392,0.0625,0.2107,0.2485,0.2629,0.2508,0.2642,0.3145,0.4015,0.4015,0.4486,0.5362,0.442,0.4486,-0.0376,0.5814,0.0,1.0632,0.0,0.0,0.0,0.2113,0.0,0.0,0.0,0.0,0.0,0.0,0.0,0.0,0.0,0.0,0.0,0.0,0.0,0.0,0.0,0.0,0.0,0.0,0.0,0.0,0.0,0.0,0.0,0.0,0.0,0.0,0.0,0.0,0.0,0.0,0.0,-1.3277,-1.3815,-1.4158,-1.4197,-1.4084,-1.3568,-1.2773,-1.2181,-1.099,-0.9384,-0.819,-0.6396,-0.4371,-0.4149,-0.3161,-0.1842,-0.1619,-0.1229,-0.0838,-0.1341,-0.0894,-0.0224,-0.1452,-0.1898,-0.2009,-0.2732,-0.3511,-0.4125,-0.4125,-0.4294,-0.4519,-0.4519,-0.4349,-0.4236,-0.446,-0.4519,-0.4519,-0.4519,-0.4519,-0.4463,-0.4239,-0.355,-0.2803,-0.2026,-0.0548,0.0941,0.2314,0.309,0.3577,0.3758,0.2629,0.1333,0.0111,-0.1336,-0.2174,-0.2174,-0.2009,-0.1675,-0.1118,-0.0915,-0.0349,0.0588,0.1343,0.1699,0.1673,0.2311,0.3145,0.4015,0.4015,0.4486,0.5362,0.442,0.4486,0.073,0.6592,0.0,1.228,1.2903,1.125,0.2433,0.0,0.0,0.0,0.0,0.0,0.0,0.0,0.0,0.0,0.0,0.0,0.0,0.0,0.0,0.0,0.0,0.0,0.0,0.0,0.0,0.0,0.0,0.0,0.0,0.0,0.0,0.0,0.0,0.0,0.0,0.0,0.0,0.0,-1.3119,-1.3283,-1.3465,-1.4393,-1.4247,-1.3186,-1.2358,-1.0998,-0.9361,-0.8468,-0.7004,-0.5253,-0.4969,-0.3932,-0.2619,-0.2286,-0.173,-0.1229,-0.1952,-0.1452,-0.0671,-0.2174,-0.2676,-0.2788,-0.3566,-0.4125,-0.4519,-0.4519,-0.4519,-0.4519,-0.4519,-0.4519,-0.4519,-0.4519,-0.4519,-0.4519,-0.4519,-0.4519,-0.4519,-0.4519,-0.3645,-0.2795,-0.2291,-0.0622,0.1099,0.2386,0.3466,0.3844,0.3037,0.1609,0.0277,-0.0779,-0.2227,-0.3121,-0.3121,-0.2878,-0.2389,-0.1594,-0.1293,-0.0839,-0.006,0.0494,0.0764,0.0787,0.1662,0.2611,0.348,0.3813,0.4486,0.5362,0.4821,0.4888,0.4543,0.0,0.0,1.395,1.326,0.0,-0.2442,0.0,0.0,0.0,0.0,0.0,0.0,0.0,0.0,0.0,0.0,0.0,0.0,0.0,0.0,0.0,0.0,0.0,0.0,0.0,0.0,0.0,0.0,0.0,0.0,0.0,0.0,0.0,0.0,0.0,0.0,0.0,0.0,0.0,0.0,-1.1961,-1.2507,-1.3959,-1.4255,-1.3609,-1.161,-1.0018,-0.8869,-0.8798,-0.7996,-0.6637,-0.5896,-0.4751,-0.3398,-0.2674,-0.1952,-0.1396,-0.2176,-0.1898,-0.1452,-0.2954,-0.34,-0.3514,-0.4294,-0.4519,-0.4519,-0.457,-0.4574,-0.4519,-0.457,-0.4574,-0.4522,-0.4536,-0.4529,-0.4519,-0.4519,-0.4519,-0.4519,-0.4519,-0.3285,-0.2185,-0.2188,-0.0189,0.1783,0.2757,0.3998,0.4145,0.2419,0.0831,-0.0664,-0.2062,-0.3566,-0.4519,-0.4519,-0.3957,-0.3154,-0.2286,-0.1633,-0.0864,0.0062,0.0127,0.0131,0.0134,0.1006,0.1876,0.2811,0.3613,0.4486,0.5428,0.5428,0.5428,0.469,0.9127,0.0,0.0,0.5038,-0.1486,0.0,0.0,0.0,0.0,0.0,0.0,0.0,0.0,0.0,0.0,0.0,0.0,0.0,0.0,0.0,0.0,0.0,0.0,0.0,0.0,0.0,0.0,0.0,0.0,0.0,0.0,0.0,0.0,0.0,0.0,0.0,0.0,0.0,0.0,-1.1164,-1.1159,-1.1314,-1.2525,-1.2721,-1.2098,-1.0892,-0.9919,-0.9263,-0.8912,-0.8262,-0.7396,-0.6632,-0.581,-0.4937,-0.4233,-0.3514,-0.301,-0.3735,-0.3121,-0.2232,-0.3735,-0.3846,-0.3514,-0.4294,-0.4519,-0.4625,-0.5109,-0.4893,-0.4625,-0.5164,-0.4893,-0.4549,-0.4613,-0.4551,-0.4519,-0.4519,-0.4519,-0.4519,-0.4519,-0.3283,-0.2203,-0.2182,0.0377,0.2883,0.4235,0.4195,0.3605,0.2363,0.0388,-0.122,-0.2119,-0.3566,-0.4519,-0.4519,-0.3816,-0.3019,-0.2222,-0.1511,-0.0498,0.0956,0.1027,0.1034,0.1041,0.1923,0.2811,0.3747,0.3882,0.4486,0.5428,0.5428,0.5428,0.7271,0.0,0.0,0.9315,0.0,0.0,0.0,0.0,0.0,0.0,0.0,0.0,0.0,0.0,0.0,0.0,0.0,0.0,0.0,0.0,0.0,0.0,0.0,0.0,0.0,0.0,0.0,0.0,0.0,0.0,0.0,0.0,0.0,0.0,0.0,0.0,-1.1811,-1.1553,-1.1159,-1.0619,-1.0608,-1.0494,-1.0263,-1.1004,-1.119,-1.0765,-0.9922,-0.9232,-0.865,-0.826,-0.7639,-0.6907,-0.6323,-0.5655,-0.5003,-0.4625,-0.4015,-0.3456,-0.4236,-0.3735,-0.301,-0.4505,-0.4508,-0.4067,-0.4783,-0.5003,-0.5054,-0.5378,-0.5273,-0.5054,-0.5433,-0.5003,-0.4556,-0.4653,-0.4572,-0.4536,-0.4555,-0.457,-0.4519,-0.4519,-0.3263,-0.218,-0.2216,0.0123,0.2551,0.4045,0.3664,0.2953,0.2301,0.0278,-0.1222,-0.1618,-0.301,-0.379,-0.3456,-0.3099,-0.2534,-0.1739,-0.1377,-0.0452,0.1246,0.1706,0.1968,0.1968,0.2858,0.3547,0.4015,0.442,0.4954,0.5428,0.5428,0.5428,0.9843,0.0,1.2598,0.7203,0.0442,0.0,0.0,0.0,0.0,0.0,0.0,0.0,0.0,0.0,0.0,0.0,0.0,0.0,0.0,0.0,0.0,0.0,0.0,0.0,0.0,0.0,0.0,0.0,0.0,0.0,0.0,0.0,0.0,0.0,0.0,0.0,-1.1664,-1.1132,-1.0667,-1.0225,-1.0108,-0.9677,-0.9079,-0.9264,-0.9427,-0.9537,-0.8929,-0.8289,-0.7633,-0.7264,-0.6755,-0.6151,-0.565,-0.5093,-0.4641,-0.4481,-0.4051,-0.3622,-0.4294,-0.4125,-0.3788,-0.4941,-0.5058,-0.4787,-0.5324,-0.5597,-0.5706,-0.5869,-0.5706,-0.5538,-0.5651,-0.5136,-0.4594,-0.4694,-0.4633,-0.4568,-0.467,-0.4592,-0.4549,-0.4522,-0.3263,-0.205,-0.1638,0.012,0.2012,0.3382,0.2999,0.238,0.2033,0.0056,-0.1278,-0.1284,-0.2521,-0.3086,-0.2454,-0.2312,-0.1845,-0.0923,-0.0841,-0.0067,0.1674,0.2544,0.3011,0.3147,0.3882,0.4217,0.4217,0.5024,0.5428,0.5428,0.5428,0.5428,0.0,0.0,0.8336,0.0,-0.2053,0.0,0.0,0.0,0.0,0.0,0.0,0.0,0.0,0.0,0.0,0.0,0.0,0.0,0.0,0.0,0.0,0.0,0.0,0.0,0.0,0.0,0.0,0.0,0.0,0.0,0.0,0.0,0.0,0.0,0.0,0.0,-1.1132,-1.0611,-1.0351,-1.0273,-0.9359,-0.8341,-0.7308,-0.6885,-0.7257,-0.8131,-0.7778,-0.7276,-0.6774,-0.6453,-0.6304,-0.6108,-0.5449,-0.5166,-0.5104,-0.4485,-0.4301,-0.4349,-0.446,-0.4463,-0.4405,-0.457,-0.4948,-0.5378,-0.5487,-0.5928,-0.6583,-0.7235,-0.6465,-0.5651,-0.6312,-0.5561,-0.4701,-0.4853,-0.4874,-0.4826,-0.4714,-0.4674,-0.4619,-0.4543,-0.3263,-0.1579,0.0466,0.1681,0.2638,0.3481,0.2983,0.2225,0.1342,-0.0681,-0.2062,-0.2063,-0.286,-0.3335,-0.3186,-0.2015,-0.0922,0.0,0.0635,0.1765,0.3542,0.3747,0.4217,0.5024,0.516,0.5226,0.5226,0.5359,0.5428,0.5428,0.5428,0.5428,1.0907,0.9918,0.6868,0.0,0.0,0.0,0.0,0.0,0.0,0.0,0.0,0.0,0.0,0.0,0.0,0.0,0.0,0.0,0.0,0.0,0.0,0.0,0.0,0.0,0.0,0.0,0.0,0.0,0.0,0.0,0.0,-1.1468,-1.1196,-1.0912,-1.0437,0.0,-0.9737,-0.9509,-0.9399,-0.9399,-0.7964,-0.7175,-0.6959,-0.6076,-0.6167,-0.6907,-0.6446,-0.6106,-0.583,-0.5506,-0.5358,-0.5325,-0.471,-0.4503,-0.4521,-0.4219,-0.4212,-0.4341,-0.4341,-0.4395,-0.457,-0.4948,-0.5273,-0.5597,-0.5982,-0.6637,-0.7182,-0.7128,-0.6637,-0.6091,-0.5982,-0.5282,-0.4623,-0.4863,-0.4918,-0.4901,-0.4833,-0.4752,-0.441,-0.3423,-0.2651,-0.148,0.0797,0.1524,0.2037,0.2694,0.2222,0.1676,0.1177,-0.0463,-0.1436,-0.1035,-0.1629,-0.1937,-0.1475,-0.043,0.0379,0.082,0.1619,0.2645,0.3946,0.4015,0.4217,0.4619,0.516,0.5428,0.5428,0.5428,0.5428,0.5428,0.5428,0.5428,0.0,0.0,0.6638,0.0,0.0,0.0,0.0,0.0,0.0,0.0,0.0,0.0,0.0,0.0,0.0,0.0,0.0,0.0,0.0,0.0,0.0,0.0,0.0,0.0,0.0,0.0,0.0,0.0,0.0,0.0,0.0,-1.0542,-1.0234,-0.9836,-0.946,-0.903,-0.8496,-0.8456,-0.8464,-0.848,-0.7056,-0.655,-0.6742,-0.5599,-0.5308,-0.5701,-0.5265,-0.5087,-0.5058,-0.4595,-0.4425,-0.4391,-0.4054,-0.3931,-0.3961,-0.3961,-0.406,-0.4143,-0.418,-0.4317,-0.4522,-0.5042,-0.5487,-0.5873,-0.6199,-0.6961,-0.7563,-0.6804,-0.6475,-0.6199,-0.5651,-0.5033,-0.4585,-0.4857,-0.4948,-0.4962,-0.4925,-0.4769,-0.4194,-0.2745,-0.2343,-0.1566,0.0451,0.104,0.1417,0.1858,0.1523,0.116,0.0835,-0.0295,-0.0878,-0.0349,-0.076,-0.0771,0.0,0.0814,0.1468,0.1928,0.262,0.3387,0.435,0.435,0.435,0.435,0.5024,0.5292,0.5024,0.5292,0.5428,0.5428,0.5428,0.5491,0.0,1.0007,0.0,0.0,0.0,0.0,0.0,0.0,0.0,0.0,0.0,0.0,0.0,0.0,0.0,0.0,0.0,0.0,0.0,0.0,0.0,0.0,0.0,0.0,0.0,0.0,0.0,0.0,0.0,0.0,-1.0253,-0.9332,-0.8797,-0.8797,-0.8756,-0.8448,-0.7837,-0.7837,-0.7859,-0.7912,-0.7252,-0.6713,-0.6221,-0.5,-0.4478,-0.4478,-0.4478,-0.4434,-0.4391,-0.3891,-0.3681,-0.3636,-0.3643,-0.3687,-0.3802,-0.3802,-0.39,-0.4053,-0.4147,-0.42,-0.4231,-0.447,-0.5445,-0.6421,-0.576,-0.6573,-0.7563,-0.6804,-0.6091,-0.5542,-0.5487,-0.5121,-0.4718,-0.488,-0.502,-0.5084,-0.4948,-0.4684,-0.4249,-0.34,-0.2676,-0.1745,-0.0232,0.0644,0.1139,0.1144,0.1128,0.0862,0.0123,-0.0599,-0.1102,-0.1068,-0.1095,-0.0763,0.0117,0.0726,0.187,0.3712,0.3786,0.4226,0.5286,0.5296,0.5296,0.5296,0.5362,0.4957,0.4082,0.4957,0.5428,0.5428,0.5428,0.5815,0.0,0.0,0.0,0.0,0.0,0.0,0.0,0.0,0.0,0.0,0.0,0.0,0.0,0.0,0.0,0.0,0.0,0.0,0.0,0.0,0.0,0.0,0.0,0.0,0.0,0.0,0.0,0.0,0.0,0.0,-0.9222,-0.891,-0.8382,-0.7619,-0.7619,-0.7155,-0.6222,-0.618,-0.6186,-0.6204,-0.5631,-0.525,-0.5,-0.4224,-0.388,-0.388,-0.388,-0.388,-0.388,-0.3667,-0.3581,-0.3581,-0.3581,-0.3612,-0.3656,-0.3656,-0.3748,-0.388,-0.3934,-0.4033,-0.4204,-0.4307,-0.5027,-0.5873,-0.5597,-0.6199,-0.6858,-0.6091,-0.5706,-0.5378,-0.4948,-0.5049,-0.5276,-0.5568,-0.5333,-0.5114,-0.5064,-0.4897,-0.4312,-0.289,-0.2377,-0.1588,0.0359,0.0968,0.1228,0.1088,0.1149,0.0945,0.0124,-0.024,-0.041,-0.0405,-0.0417,-0.0061,0.0808,0.1662,0.2675,0.3951,0.4549,0.497,0.5359,0.5428,0.509,0.4486,0.509,0.5226,0.4891,0.5226,0.5428,0.5428,0.5428,0.5881,0.0,0.0,0.0,0.0,0.0,0.0,0.0,0.0,0.0,0.0,0.0,0.0,0.0,0.0,0.0,0.0,0.0,0.0,0.0,0.0,0.0,0.0,0.0,0.0,0.0,0.0,0.0,0.0,0.0,0.0,-0.8129,-0.7972,-0.7419,-0.644,-0.6228,-0.5845,-0.5308,-0.5087,-0.5087,-0.5303,-0.4696,-0.4387,-0.4391,-0.3836,-0.3581,-0.3581,-0.3581,-0.3581,-0.3581,-0.3581,-0.3581,-0.3581,-0.3581,-0.3581,-0.3581,-0.3581,-0.3639,-0.3727,-0.3775,-0.3958,-0.4127,-0.4177,-0.4766,-0.5433,-0.5218,-0.5655,-0.6091,-0.5382,-0.5324,-0.5378,-0.4948,-0.525,-0.5739,-0.5934,-0.5623,-0.5196,-0.5142,-0.4979,-0.4329,-0.2648,-0.2226,-0.1589,0.0421,0.0795,0.0809,0.077,0.0837,0.0638,0.0062,0.0,0.0,0.0,0.024,0.0802,0.1666,0.2591,0.3477,0.4414,0.4979,0.5308,0.5425,0.5428,0.509,0.4486,0.509,0.5557,0.5815,0.5557,0.5557,0.5815,0.5815,0.6465,0.0,0.0,0.0,0.0,0.0,0.0,0.0,0.0,0.0,0.0,0.0,0.0,0.0,0.0,0.0,0.0,0.0,0.0,0.0,0.0,0.0,0.0,0.0,0.0,0.0,0.0,0.0,0.0,0.0,0.0,-0.6987,-0.6422,-0.5873,-0.5303,-0.4696,-0.4652,-0.5265,-0.4652,-0.4652,-0.5265,-0.4652,-0.4391,-0.4347,-0.3836,-0.3581,-0.3581,-0.3581,-0.3581,-0.3581,-0.3581,-0.3581,-0.3581,-0.3578,-0.3578,-0.3578,-0.3578,-0.3578,-0.3598,-0.3737,-0.3883,-0.3989,-0.414,-0.4759,-0.5316,-0.4622,-0.4893,-0.5324,-0.4625,-0.4948,-0.5487,-0.5542,-0.5768,-0.5992,-0.6053,-0.5709,-0.5321,-0.5169,-0.4904,-0.4226,-0.2759,-0.2343,-0.1693,-0.0234,0.0,0.0,0.0,0.0,0.0,0.0,0.006,0.0059,0.0059,0.0823,0.1686,0.2677,0.3377,0.4233,0.5342,0.522,0.5206,0.5422,0.5428,0.5428,0.5428,0.5428,0.5815,0.6654,0.5815,0.5881,0.6719,0.6785,0.7697,0.9469,0.0,0.0,0.0,0.0,0.0,0.0,0.0,0.0,0.0,0.0,0.0,0.0,0.0,0.0,0.0,0.0,0.0,0.0,0.0,0.0,0.0,0.0,0.0,0.0,0.0,0.0,0.0,0.0,-0.5942,-0.5771,-0.5211,-0.4826,-0.4648,-0.4092,-0.388,-0.4056,-0.3924,-0.3924,-0.4056,-0.388,-0.384,-0.3796,-0.3667,-0.3581,-0.3581,-0.3581,-0.3581,-0.3581,-0.3581,-0.3581,-0.3578,-0.3126,-0.2943,-0.2943,-0.2943,-0.2943,-0.3037,-0.3484,-0.3734,-0.3781,-0.3377,-0.3499,-0.3669,-0.3044,-0.334,-0.3895,-0.3732,-0.4233,-0.5003,-0.6041,-0.6173,-0.6113,-0.6648,-0.6085,-0.5415,-0.5308,-0.4621,-0.3761,-0.273,-0.1916,-0.1081,-0.0181,0.0,0.0,0.0,0.0,0.0181,0.0715,0.0811,0.1021,0.1528,0.1949,0.2505,0.3416,0.3786,0.4347,0.5355,0.5321,0.5318,0.5425,0.5428,0.5428,0.5428,0.5428,0.5491,0.5752,0.6137,0.6789,0.7632,0.8285,0.8812,0.0,0.0,0.0,0.0,0.0,0.0,0.0,0.0,0.0,0.0,0.0,0.0,0.0,0.0,0.0,0.0,0.0,0.0,0.0,0.0,0.0,0.0,0.0,0.0,0.0,0.0,0.0,0.0,-0.612,-0.5173,-0.4957,-0.4395,-0.4049,-0.4049,-0.3751,-0.3581,-0.3581,-0.3581,-0.3581,-0.3581,-0.3581,-0.3581,-0.3581,-0.3581,-0.3581,-0.3581,-0.3581,-0.3581,-0.3581,-0.3581,-0.3581,-0.3534,-0.2943,-0.2719,-0.2719,-0.2719,-0.2719,-0.2807,-0.3398,-0.3537,-0.3378,-0.3018,-0.2796,-0.2713,-0.2659,-0.2975,-0.34,-0.3735,-0.4618,-0.5664,-0.675,-0.6744,-0.6588,-0.7002,-0.6207,-0.5292,-0.4891,-0.4035,-0.3195,-0.2705,-0.1754,-0.0849,-0.0118,0.0,0.0,0.0,0.0301,0.072,0.1139,0.1531,0.193,0.2366,0.2816,0.3333,0.3821,0.4336,0.4821,0.5362,0.5428,0.5428,0.5428,0.5428,0.5557,0.5947,0.5557,0.5752,0.647,0.6658,0.7307,0.8549,0.946,0.9849,0.0,0.0,0.0,0.0,0.0,0.0,0.0,0.0,0.0,0.0,0.0,0.0,0.0,0.0,0.0,0.0,0.0,0.0,0.0,0.0,0.0,0.0,0.0,0.0,0.0,0.0,0.0,-0.6445,-0.5711,-0.5043,-0.443,-0.388,-0.3581,-0.3581,-0.3581,-0.3581,-0.3581,-0.3581,-0.3581,-0.3581,-0.3581,-0.3581,-0.3581,-0.3581,-0.3622,-0.3667,-0.3622,-0.3622,-0.3667,-0.3534,-0.3534,-0.3534,-0.2943,-0.2719,-0.2719,-0.2719,-0.2719,-0.2807,-0.3398,-0.3297,-0.2874,-0.2793,-0.2432,-0.2202,-0.2851,-0.3138,-0.344,-0.4288,-0.5445,-0.6642,-0.7322,-0.7213,-0.7012,-0.6971,-0.6093,-0.502,-0.4199,-0.3259,-0.2519,-0.2572,-0.1691,-0.0783,-0.0112,0.0,0.0,0.0117,0.0781,0.1348,0.1531,0.2271,0.2855,0.2927,0.3646,0.4145,0.4122,0.4882,0.5428,0.5428,0.5428,0.5428,0.5428,0.5428,0.5752,0.6527,0.5881,0.6404,0.8156,0.7437,0.7957,0.9466,1.0238,1.0624,0.0,0.0,0.0,0.0,0.0,0.0,0.0,0.0,0.0,0.0,0.0,0.0,0.0,0.0,0.0,0.0,0.0,0.0,0.0,0.0,0.0,0.0,0.0,0.0,0.0,0.0,0.0,-0.8132,-0.6361,-0.5029,-0.443,-0.388,-0.3581,-0.3581,-0.3581,-0.3581,-0.3581,-0.3581,-0.3581,-0.3581,-0.3581,-0.3581,-0.3581,-0.3581,-0.3836,-0.422,-0.3796,-0.3836,-0.4176,-0.3249,-0.317,-0.3534,-0.2943,-0.2719,-0.2719,-0.2719,-0.2719,-0.2807,-0.3398,-0.3233,-0.2678,-0.2158,-0.1631,-0.1181,-0.1459,-0.1969,-0.2743,-0.4094,-0.5058,-0.5795,-0.607,-0.6173,-0.6267,-0.6348,-0.5274,-0.4191,-0.403,-0.2708,-0.1588,-0.1549,-0.0863,-0.0168,0.0,0.0,0.0226,0.0791,0.1103,0.1777,0.3017,0.3387,0.3819,0.4396,0.4744,0.4884,0.4913,0.5222,0.5428,0.5428,0.5428,0.5428,0.5428,0.5428,0.5495,0.562,0.6203,0.7307,0.9075,0.9582,1.0034,1.0364,1.0491,1.0624,0.0,0.0,0.0,0.8728,0.0,0.0,0.0,0.0,0.0,0.0,0.0,0.0,0.0,0.0,0.0,0.0,0.0,0.0,0.0,0.0,0.0,0.0,0.0,0.0,0.0,0.0,-1.0001,-0.8546,-0.6976,-0.5732,-0.4899,-0.4604,-0.418,-0.3622,-0.3581,-0.3581,-0.3581,-0.3581,-0.3581,-0.3581,-0.3581,-0.3581,-0.3581,-0.3581,-0.3751,-0.3965,-0.3711,-0.3751,-0.3921,-0.3073,-0.3034,-0.349,-0.2588,-0.245,-0.2719,-0.2719,-0.2495,-0.2319,-0.2946,-0.2544,-0.1746,-0.1465,-0.1185,-0.1085,-0.1534,-0.2434,-0.349,-0.4275,-0.5003,-0.5529,-0.5722,-0.5914,-0.5912,-0.5642,-0.4773,-0.3786,-0.2842,-0.1947,-0.1159,-0.071,-0.0287,0.0,0.0,0.0,0.0289,0.1054,0.1627,0.2455,0.362,0.4287,0.4753,0.5138,0.5203,0.5247,0.5247,0.5318,0.5428,0.5428,0.5428,0.5428,0.5428,0.5428,0.5624,0.6009,0.7762,0.8871,0.9274,1.0174,1.0624,1.0624,1.0624,1.0624,0.0,0.0,0.0,0.0,0.0,0.8871,0.0,0.0,0.0,0.0,0.0,0.0,0.0,0.0,0.0,0.0,0.0,0.0,0.0,0.0,0.0,0.0,0.0,0.0,0.0,0.0,0.0,-0.9615,-0.8127,-0.6971,-0.6251,-0.5954,-0.5242,-0.3965,-0.3796,-0.3711,-0.3581,-0.3581,-0.3581,-0.3581,-0.3581,-0.3581,-0.3581,-0.3581,-0.3667,-0.3751,-0.3667,-0.3578,-0.3527,-0.2807,-0.281,-0.3173,-0.2319,-0.2364,-0.2854,-0.2854,-0.2497,-0.2006,-0.2406,-0.1828,-0.0895,-0.076,-0.0993,-0.1411,-0.1863,-0.3066,-0.4294,-0.4294,-0.4695,-0.5194,-0.555,-0.5604,-0.5406,-0.4864,-0.4074,-0.3051,-0.1608,-0.1191,-0.0854,-0.0118,0.0114,0.017,0.0,0.0,0.0353,0.1325,0.2178,0.3052,0.4069,0.4919,0.5428,0.5428,0.5428,0.5428,0.5428,0.5428,0.5428,0.5428,0.5557,0.5557,0.5428,0.5557,0.6075,0.6915,0.9192,1.011,0.953,1.0238,1.0624,1.0624,1.0624,1.0681,0.0,0.0,0.0,0.0,0.909,0.0,0.0,0.0,0.0,0.0,0.0,0.0,0.0,0.0,0.0,0.0,0.0,0.0,0.0,0.0,0.0,0.0,0.0,0.0,0.0,0.0,0.0,0.0,-1.0597,-0.8984,-0.9518,-0.8387,-0.6914,-0.5148,-0.4604,-0.4092,-0.3626,-0.3581,-0.3581,-0.3581,-0.3581,-0.3581,-0.3581,-0.3581,-0.388,-0.4303,-0.3792,-0.3568,-0.3416,-0.2359,-0.1964,-0.2053,-0.245,-0.2946,-0.349,-0.349,-0.3126,-0.2539,-0.2045,-0.1471,-0.0805,-0.0267,-0.099,-0.1964,-0.1411,-0.2327,-0.3511,-0.3511,-0.3645,-0.399,-0.479,-0.4553,-0.4043,-0.4098,-0.2804,-0.1519,-0.1315,-0.068,-0.0121,0.0,0.0505,0.0784,0.0113,0.0,0.0451,0.1862,0.2439,0.3213,0.4632,0.5122,0.5428,0.5428,0.5428,0.5428,0.5428,0.5428,0.5428,0.5428,0.6141,0.6203,0.5428,0.6137,0.6981,0.7832,0.8877,0.9786,1.0434,1.0555,1.0624,1.0624,1.0624,1.0989,0.0,0.0,0.0,0.0,0.0,0.0,0.0,0.0,0.7792,0.0,0.0,0.0,0.0,0.0,0.0,0.0,0.0,0.0,0.0,0.0,0.0,0.0,0.0,0.0,0.0,0.0,0.0,0.0,0.0,-1.0877,-1.1079,-1.1006,-0.9515,-0.6339,-0.6307,-0.5635,-0.4092,-0.3751,-0.3581,-0.3581,-0.3581,-0.3581,-0.3578,-0.3214,-0.3388,-0.3877,-0.2943,-0.2719,-0.2934,-0.1784,-0.1474,-0.1784,-0.1697,-0.223,-0.3078,-0.3078,-0.2677,-0.2095,-0.1471,-0.0895,-0.0405,-0.0598,-0.1059,-0.1669,-0.2216,-0.2844,-0.3456,-0.3901,-0.4058,-0.4267,-0.4797,-0.4276,-0.3607,-0.3311,-0.1872,-0.0527,-0.0562,0.0123,0.0726,0.068,0.0895,0.1118,0.1229,0.1385,0.1833,0.2834,0.3237,0.3855,0.4862,0.523,0.5428,0.5428,0.5428,0.5428,0.5428,0.5428,0.562,0.6141,0.6981,0.7312,0.6924,0.7767,0.8355,0.8748,0.9588,1.0238,1.0624,1.0624,1.0624,1.0624,1.0624,1.1045,0.8084,0.0,0.0,0.0,0.0,0.0,0.0,0.0,0.0,0.0,0.0,0.0,0.0,0.0,0.0,0.0,0.0,0.0,0.0,0.0,0.0,0.0,0.0,0.0,0.0,0.0,0.0,0.0,0.0,0.0,-1.2339,-1.2331,-1.1063,-0.8332,-0.7733,-0.677,-0.5346,-0.4324,-0.3751,-0.3581,-0.3581,-0.3534,-0.335,-0.2898,-0.2854,-0.304,-0.2186,-0.1962,-0.214,-0.1252,-0.1073,-0.1297,-0.0984,-0.1429,-0.2228,-0.2406,-0.196,-0.1248,-0.0804,-0.027,0.0138,-0.0566,-0.0936,-0.1284,-0.2364,-0.2821,-0.3176,-0.3959,-0.4098,-0.4068,-0.4423,-0.3771,-0.2835,-0.2449,-0.1138,0.0,0.0,0.0678,0.1209,0.1132,0.1452,0.1898,0.2397,0.2439,0.2694,0.3413,0.3783,0.4221,0.4958,0.524,0.5428,0.5428,0.5428,0.5428,0.5428,0.562,0.6207,0.7372,0.7762,0.8091,0.8355,0.8947,0.9274,0.9274,1.0174,1.0624,1.0624,1.0624,1.0624,1.0624,1.0807,1.1351,0.0,0.0,0.0,0.6009,0.0,0.0,0.0,0.0,0.3473,0.0,0.0,0.0,0.0,0.0,0.0,0.0,0.0,0.0,0.0,0.0,0.0,0.0,0.0,0.0,0.0,0.0,0.0,0.0,0.0,0.0,0.0,-1.1577,-1.0705,-1.1617,-0.8388,-0.6965,-0.7676,-0.547,-0.4092,-0.3581,-0.3581,-0.3306,-0.2719,-0.2719,-0.2408,-0.1875,-0.183,-0.1474,-0.0939,-0.0895,-0.0583,-0.0135,-0.0672,-0.094,-0.1029,-0.1607,-0.1069,-0.0044,-0.0044,0.0366,0.0761,0.0143,-0.0501,-0.1113,-0.1167,-0.1684,-0.2397,-0.3234,-0.3026,-0.2712,-0.3472,-0.2513,-0.136,-0.1332,-0.0672,0.0,0.0,0.0555,0.1087,0.1076,0.2232,0.3234,0.3287,0.2681,0.2462,0.3186,0.361,0.4067,0.4803,0.5182,0.5428,0.5428,0.5428,0.5428,0.5428,0.6203,0.7372,0.9139,0.842,0.8355,0.921,0.9274,0.9274,0.9274,1.0174,1.0624,1.0624,1.0624,1.0624,1.0624,1.1406,1.2205,0.0,0.0,0.6303,0.4239,0.0,0.0,0.0,0.0,0.0,0.0,0.0,0.0,0.0,0.0,0.0,0.0,0.0,0.0,0.0,0.0,0.0,0.0,0.0,0.0,0.0,0.0,0.0,0.0,0.0,0.0,0.0,-1.359,-1.1647,-0.743,-0.9892,-0.8699,-0.3288,-0.3266,-0.3205,-0.299,-0.299,-0.2898,-0.2672,-0.1873,-0.1607,-0.1739,-0.0939,-0.0716,-0.0851,-0.0448,-0.018,0.0,-0.0225,-0.0045,0.0179,-0.0849,-0.0938,-0.0536,-0.0134,0.0136,0.0276,0.0047,-0.0148,-0.0465,-0.0949,-0.125,-0.173,-0.301,-0.2867,-0.2529,-0.3394,-0.2415,-0.1203,-0.1259,-0.0201,0.0864,0.0832,0.1499,0.2187,0.2675,0.3058,0.3479,0.4134,0.4035,0.392,0.4206,0.4502,0.4741,0.4998,0.5237,0.5428,0.5428,0.5428,0.5428,0.5428,0.6728,0.7827,0.842,0.9256,0.9843,1.0174,1.0174,1.0174,1.0174,1.0434,1.0624,1.0624,1.0624,1.0863,1.1406,1.1426,1.204,0.6143,0.5613,0.0,0.0,0.2916,0.0,0.2479,0.0,0.0,0.0,0.0,0.0,0.0,0.0,0.0,0.0,0.0,0.0,0.0,0.0,0.0,0.0,0.0,0.0,0.0,0.0,0.0,0.0,0.0,0.0,0.0,0.0,-0.8655,-0.5274,-0.7043,-0.6138,-0.2139,-0.1757,-0.1961,-0.2719,-0.2719,-0.2583,-0.2361,-0.134,-0.0984,-0.1118,-0.0359,-0.0225,-0.0538,0.009,0.0314,0.0359,0.0538,0.0895,0.1073,-0.0134,-0.0583,-0.0493,0.009,0.0183,0.0,0.0,0.0,-0.0158,-0.086,-0.1098,-0.1341,-0.2621,-0.2419,-0.1955,-0.2547,-0.1487,-0.0317,-0.073,0.0536,0.1728,0.1361,0.2136,0.3053,0.3592,0.3716,0.3999,0.4616,0.4735,0.4772,0.4772,0.4979,0.5131,0.5131,0.5267,0.5428,0.5428,0.5428,0.5557,0.5815,0.692,0.7832,0.842,0.9524,1.0301,1.0561,1.0624,1.0624,1.0624,1.0624,1.0624,1.0624,1.0624,1.0927,1.1524,1.1675,1.2161]},{"header":{"parameterUnit":"m.s-1","parameterCategory":1,"la1":30.6,"la2":29.2853,"lo1":-89.7004,"lo2":-87.6739,"dx":0.0162,"dy":0.0183,"nx":112,"ny":82,"refTime":"2022-12-26T06:00:00:Z","depth":0,"parameterNumber":3,"parameterNumberName":"V-component_of_WINDS"},"data":[0.0,0.0,0.0,0.0,0.0,0.0,0.0,0.0,0.0,0.0,0.0,0.0,0.0,0.0,0.0,0.0,0.0,0.0,0.0,0.0,0.0,0.0,0.0,0.0,0.0,0.0,0.0,0.0,0.0,0.0,0.0,0.0,0.0,0.0,0.0,0.0,0.0,0.0,0.0,0.0,0.0,0.0,0.0,0.0,0.0,0.0,0.0,0.0,0.0,0.0,0.0,0.0,0.0,0.0,0.0,0.0,0.0,0.0,0.0,0.0,0.0,0.0,0.0,0.0,0.0,0.0,0.0,0.0,0.0,0.0,0.0,0.0,0.0,0.0,0.0,0.0,0.0,0.0,0.0,0.0,0.0,0.0,0.0,0.0,0.0,0.0,0.0,0.0,0.0,0.0,0.0,2.6015,3.0618,3.4072,3.5763,3.5217,3.2253,2.6262,0.0,0.0,0.0,0.0,0.0,0.0,0.0,0.0,0.0,0.0,0.0,0.0,0.0,0.0,0.0,0.0,0.0,0.0,0.0,0.0,0.0,0.0,0.0,0.0,0.0,0.0,0.0,0.0,0.0,0.0,0.0,0.0,0.0,0.0,0.0,0.0,0.0,0.0,0.0,0.0,0.0,0.0,0.0,0.0,0.0,0.0,0.0,0.0,0.0,0.0,0.0,0.0,0.0,0.0,0.0,0.0,0.0,0.0,0.0,0.0,0.0,0.0,0.0,0.0,0.0,0.0,0.0,0.0,0.0,0.0,0.0,0.0,0.0,0.0,0.0,0.0,0.0,0.0,0.0,0.0,0.0,0.0,0.0,0.0,0.0,0.0,0.0,0.0,0.0,0.0,0.0,0.0,0.0,0.0,0.0,0.0,0.0,0.0,0.0,0.0,0.0,0.0,0.0,0.0,2.3046,3.0235,3.2991,3.4734,3.5802,3.5786,3.3133,2.7098,0.0,0.0,0.0,0.0,0.0,0.0,0.0,0.0,0.0,0.0,0.0,0.0,0.0,0.0,0.0,0.0,0.0,0.0,0.0,0.0,0.0,0.0,0.0,0.0,0.0,0.0,0.0,0.0,0.0,0.0,0.0,0.0,0.0,0.0,0.0,0.0,0.0,0.0,0.0,0.0,0.0,0.0,0.0,0.0,0.0,0.0,0.0,0.0,0.0,0.0,0.0,0.0,0.0,0.0,0.0,0.0,0.0,0.0,0.0,0.0,0.0,0.0,0.0,0.0,0.0,0.0,0.0,0.0,0.0,0.0,0.0,0.0,0.0,0.0,0.0,0.0,0.0,0.0,0.0,0.0,0.0,0.0,0.0,0.0,0.0,0.0,0.0,0.0,0.0,0.0,0.0,0.0,0.0,0.0,0.0,0.0,0.0,0.0,0.0,0.0,0.0,0.0,0.0,2.2726,2.6695,3.2162,3.4298,3.5489,3.5929,3.595,3.3163,2.6601,2.5039,0.0,0.0,0.0,0.0,0.0,0.0,0.0,0.0,0.0,0.0,0.0,0.0,0.0,0.0,0.0,0.0,0.0,0.0,0.0,0.0,0.0,0.0,0.0,0.0,0.0,0.0,0.0,0.0,0.0,0.0,0.0,0.0,0.0,0.0,0.0,0.0,0.0,0.0,0.0,0.0,0.0,0.0,0.0,0.0,0.0,0.0,0.0,0.0,0.0,0.0,0.0,0.0,0.0,0.0,0.0,0.0,0.0,0.0,0.0,0.0,0.0,0.0,0.0,0.0,0.0,0.0,0.0,0.0,0.0,0.0,0.0,0.0,0.0,0.0,0.0,0.0,0.0,0.0,0.0,0.0,0.0,0.0,0.0,0.0,0.0,0.0,0.0,0.0,0.0,0.0,0.0,0.0,0.0,0.0,0.0,0.0,0.0,0.0,0.0,0.0,0.0,0.0,2.7323,3.0137,3.3359,3.5078,3.5996,3.5996,3.5995,3.3003,2.6069,2.4765,0.0,0.0,0.0,0.0,0.0,0.0,0.0,0.0,0.0,0.0,0.0,0.0,0.0,0.0,0.0,0.0,0.0,0.0,0.0,0.0,0.0,0.0,0.0,0.0,0.0,0.0,0.0,0.0,0.0,0.0,0.0,0.0,0.0,0.0,0.0,0.0,0.0,0.0,0.0,0.0,0.0,0.0,0.0,0.0,0.0,0.0,0.0,0.0,0.0,0.0,0.0,0.0,0.0,0.0,0.0,0.0,0.0,0.0,0.0,0.0,0.0,0.0,0.0,0.0,0.0,0.0,0.0,0.0,0.0,0.0,0.0,0.0,0.0,0.0,0.0,0.0,0.0,0.0,0.0,0.0,0.0,0.0,0.0,0.0,0.0,0.0,0.0,0.0,0.0,0.0,0.0,0.0,0.0,0.0,0.0,0.0,0.0,0.0,0.0,0.0,0.0,0.0,2.8099,3.1719,3.4336,3.5449,3.5996,3.5996,3.5945,3.2982,2.6121,2.4691,0.0,0.0,0.0,0.0,0.0,0.0,0.0,0.0,0.0,0.0,0.0,0.0,0.0,0.0,0.0,0.0,0.0,0.0,0.0,0.0,0.0,0.0,0.0,0.0,0.0,0.0,0.0,0.0,0.0,0.0,0.0,0.0,0.0,0.0,0.0,0.0,0.0,0.0,0.0,0.0,0.0,0.0,0.0,0.0,0.0,0.0,0.0,0.0,0.0,0.0,0.0,0.0,0.0,0.0,0.0,0.0,0.0,0.0,0.0,0.0,0.0,0.0,0.0,0.0,0.0,0.0,0.0,0.0,0.0,0.0,0.0,0.0,0.0,0.0,0.0,0.0,0.0,0.0,0.0,0.0,0.0,0.0,0.0,0.0,0.0,0.0,0.0,0.0,0.0,0.0,0.0,0.0,0.0,0.0,0.0,0.0,0.0,0.0,0.0,0.0,0.0,0.0,2.7503,3.0835,0.0,3.5801,3.5996,3.5996,3.5942,3.2957,2.6071,0.0,0.0,0.0,0.0,0.0,0.0,0.0,0.0,0.0,0.0,0.0,0.0,0.0,0.0,0.0,0.0,0.0,0.0,0.0,0.0,0.0,0.0,0.0,0.0,0.0,0.0,0.0,0.0,0.0,0.0,0.0,0.0,0.0,0.0,0.0,0.0,0.0,0.0,0.0,0.0,0.0,0.0,0.0,0.0,0.0,0.0,0.0,0.0,0.0,0.0,0.0,0.0,0.0,0.0,0.0,0.0,0.0,0.0,0.0,0.0,0.0,0.0,0.0,0.0,0.0,0.0,0.0,0.0,0.0,0.0,0.0,0.0,0.0,0.0,0.0,0.0,0.0,0.0,0.0,0.0,0.0,0.0,0.0,0.0,0.0,0.0,0.0,0.0,0.0,0.0,0.0,0.0,0.0,0.0,0.0,0.0,0.0,0.0,0.0,0.0,0.0,0.0,2.4372,2.7435,3.0712,0.0,3.582,3.5996,3.5973,3.5887,3.3,2.632,0.0,0.0,0.0,0.0,0.0,0.0,0.0,0.0,0.0,0.0,0.0,0.0,0.0,0.0,0.0,0.0,0.0,0.0,0.0,0.0,0.0,0.0,0.0,0.0,0.0,0.0,0.0,0.0,0.0,0.0,0.0,0.0,0.0,0.0,0.0,0.0,0.0,0.0,0.0,0.0,0.0,0.0,0.0,0.0,0.0,0.0,0.0,0.0,0.0,0.0,0.0,0.0,0.0,0.0,0.0,0.0,0.0,0.0,0.0,0.0,0.0,0.0,0.0,0.0,0.0,0.0,0.0,0.0,0.0,0.0,0.0,0.0,0.0,0.0,0.0,0.0,0.0,0.0,0.0,0.0,0.0,0.0,0.0,0.0,0.0,0.0,0.0,0.0,0.0,0.0,0.0,0.0,0.0,0.0,0.0,0.0,0.0,0.0,0.0,0.0,0.0,0.0,2.3725,2.8098,3.1805,3.4414,3.5488,3.5973,3.5907,3.5791,3.3068,0.0,0.0,0.0,0.0,0.0,0.0,0.0,0.0,0.0,0.0,0.0,0.0,0.0,0.0,0.0,0.0,0.0,0.0,0.0,0.0,0.0,0.0,0.0,0.0,0.0,0.0,0.0,0.0,0.0,0.0,0.0,0.0,0.0,0.0,0.0,0.0,0.0,0.0,0.0,0.0,0.0,0.0,0.0,0.0,0.0,0.0,0.0,0.0,0.0,0.0,0.0,0.0,0.0,0.0,0.0,0.0,0.0,0.0,0.0,0.0,0.0,0.0,0.0,0.0,0.0,0.0,0.0,0.0,0.0,0.0,0.0,0.0,0.0,0.0,0.0,0.0,0.0,0.0,0.0,0.0,0.0,0.0,0.0,0.0,0.0,0.0,0.0,0.0,0.0,0.0,0.0,0.0,0.0,0.0,0.0,0.0,0.0,0.0,0.0,0.0,0.0,0.0,0.0,2.365,2.7957,3.1621,3.4339,3.5311,3.5821,3.588,3.5735,3.3024,2.6889,0.0,0.0,0.0,0.0,0.0,0.0,0.0,0.0,0.0,0.0,0.0,0.0,0.0,0.0,0.0,0.0,0.0,0.0,0.0,0.0,0.0,0.0,0.0,0.0,0.0,0.0,0.0,0.0,0.0,0.0,0.0,0.0,0.0,0.0,0.0,0.0,0.0,0.0,0.0,0.0,0.0,0.0,0.0,0.0,0.0,0.0,0.0,0.0,0.0,0.0,0.0,0.0,0.0,0.0,0.0,0.0,0.0,0.0,0.0,0.0,0.0,0.0,0.0,0.0,0.0,0.0,0.0,0.0,0.0,0.0,0.0,0.0,0.0,0.0,0.0,0.0,0.0,0.0,0.0,0.0,0.0,0.0,0.0,0.0,0.0,0.0,0.0,0.0,0.0,0.0,0.0,0.0,0.0,0.0,0.0,0.0,0.0,0.0,0.0,0.0,0.0,0.0,2.3121,2.7947,3.179,3.3823,3.504,3.571,3.5788,3.5676,3.3371,2.8149,0.0,0.0,0.0,0.0,0.0,0.0,0.0,0.0,0.0,0.0,0.0,0.0,0.0,0.0,0.0,0.0,0.0,0.0,0.0,0.0,0.0,0.0,0.0,0.0,0.0,0.0,0.0,0.0,0.0,0.0,0.0,0.0,0.0,0.0,0.0,0.0,0.0,0.0,0.0,0.0,0.0,0.0,0.0,0.0,0.0,0.0,0.0,0.0,0.0,0.0,0.0,0.0,0.0,0.0,0.0,0.0,0.0,0.0,0.0,0.0,0.0,0.0,0.0,0.0,0.0,0.0,0.0,0.0,0.0,0.0,0.0,0.0,0.0,0.0,0.0,0.0,0.0,0.0,0.0,0.0,0.0,0.0,0.0,0.0,0.0,0.0,0.0,0.0,0.0,0.0,0.0,0.0,0.0,0.0,0.0,0.0,0.0,0.0,0.0,0.0,0.0,0.0,2.2366,2.8014,3.215,3.3096,3.4671,3.5663,3.5601,3.56,3.3974,3.0148,0.0,0.0,0.0,0.0,0.0,0.0,0.0,0.0,0.0,0.0,0.0,0.0,0.0,0.0,0.0,0.0,0.0,0.0,0.0,0.0,0.0,0.0,0.0,0.0,0.0,0.0,0.0,0.0,0.0,0.0,0.0,0.0,0.0,0.0,0.0,0.0,0.0,0.0,0.0,0.0,0.0,0.0,0.0,0.0,0.0,0.0,0.0,0.0,0.0,0.0,0.0,0.0,0.0,0.0,0.0,0.0,0.0,0.0,0.0,0.0,1.8055,0.0,0.0,0.0,0.0,0.0,0.0,0.0,0.0,0.0,0.0,0.0,0.0,0.0,0.0,0.0,0.0,0.0,0.0,0.0,0.0,0.0,0.0,0.0,0.0,0.0,0.0,0.0,0.0,0.0,0.0,0.0,0.0,0.0,0.0,0.0,0.0,0.0,0.0,0.0,0.0,0.0,2.2288,2.7948,3.2083,3.3014,3.4571,3.555,3.56,3.5558,3.4155,3.0949,0.0,0.0,0.0,0.0,0.0,0.0,0.0,0.0,0.0,0.0,0.0,0.0,0.0,0.0,0.0,0.0,0.0,0.0,0.0,0.0,0.0,0.0,0.0,0.0,0.0,0.0,0.0,0.0,0.0,0.0,0.0,0.0,0.0,0.0,0.0,0.0,0.0,0.0,0.0,0.0,0.0,0.0,0.0,0.0,0.0,0.0,0.0,0.0,0.0,0.0,0.0,0.0,0.0,0.0,0.0,0.0,0.0,0.0,0.0,0.0,0.0,1.9867,0.0,0.0,0.0,0.0,0.0,0.0,0.0,0.0,0.0,0.0,0.0,0.0,0.0,0.0,0.0,0.0,0.0,0.0,0.0,0.0,0.0,0.0,0.0,0.0,0.0,0.0,0.0,0.0,0.0,0.0,0.0,0.0,0.0,0.0,0.0,0.0,0.0,0.0,0.0,0.0,2.2889,2.8507,3.2466,3.2963,3.4501,3.5515,3.5546,3.5522,3.4538,3.2296,2.9888,0.0,0.0,0.0,0.0,0.0,0.0,0.0,0.0,0.0,0.0,0.0,0.0,0.0,0.0,0.0,0.0,0.0,0.0,0.0,0.0,0.0,0.0,0.0,0.0,0.0,0.0,0.0,0.0,0.0,0.0,0.0,0.0,0.0,0.0,0.0,0.0,0.0,0.0,0.0,0.0,0.0,0.0,0.0,0.0,0.0,0.0,0.0,0.0,0.0,0.0,0.0,0.0,0.0,0.0,0.0,2.595,2.6941,2.7757,2.8231,2.5619,2.4342,2.3993,0.0,0.0,0.0,0.0,0.0,0.0,0.0,0.0,0.0,0.0,0.0,0.0,0.0,0.0,0.0,0.0,0.0,0.0,0.0,0.0,0.0,0.0,0.0,0.0,0.0,2.2046,2.1501,0.0,0.0,0.0,0.0,0.0,0.0,0.0,0.0,0.0,0.0,0.0,0.0,2.376,2.9152,3.2737,3.2891,3.4314,3.5334,3.5488,3.5493,3.4963,3.3715,3.1597,2.9119,0.0,0.0,0.0,0.0,0.0,0.0,0.0,0.0,0.0,0.0,0.0,0.0,0.0,0.0,0.0,0.0,0.0,0.0,0.0,0.0,0.0,0.0,0.0,0.0,0.0,0.0,0.0,0.0,0.0,0.0,0.0,0.0,1.7761,1.9137,0.0,0.0,0.0,0.0,0.0,0.0,0.0,0.0,0.0,0.0,0.0,0.0,0.0,0.0,2.255,2.3873,2.5505,2.7437,2.8575,2.9851,3.1224,3.184,3.2154,3.2265,3.2286,0.0,2.7163,2.6233,0.0,0.0,0.0,0.0,0.0,0.0,0.0,0.0,0.0,0.0,0.0,0.0,0.0,0.0,0.0,0.0,0.0,0.0,0.0,0.0,0.0,0.0,2.542,2.4696,2.5131,2.5158,0.0,1.9747,1.6697,1.5344,0.0,0.0,0.0,0.0,0.0,0.0,0.0,0.0,2.4594,2.9037,3.2122,3.2833,3.3776,3.468,3.5449,3.5493,3.5216,3.4564,3.3525,3.1914,2.9622,2.7944,0.0,0.0,0.0,0.0,0.0,0.0,0.0,0.0,0.0,0.0,0.0,0.0,0.0,0.0,0.0,0.0,0.0,0.0,0.0,0.0,0.0,0.0,0.0,0.0,0.0,0.0,0.0,0.0,0.0,1.8107,1.9427,2.0226,1.9401,1.8303,0.0,0.0,0.0,0.0,0.0,0.0,0.0,0.0,0.0,2.3204,2.3636,2.4493,2.5887,2.6488,2.7773,2.9774,3.0712,3.175,3.2902,3.3631,3.3836,3.3697,3.3926,3.2939,3.1029,2.922,2.6585,2.3563,0.0,0.0,0.0,0.0,0.0,0.0,0.0,0.0,0.0,0.0,0.0,0.0,0.0,0.0,0.0,0.0,0.0,0.0,0.0,0.0,0.0,2.7052,2.723,2.6859,2.5891,2.4034,2.172,0.0,1.8551,1.7818,1.4981,0.0,0.0,0.0,0.0,0.0,2.6384,2.9636,3.2006,3.2814,3.3237,3.4026,3.5391,3.5045,3.4737,3.4715,3.4336,3.3355,3.1629,2.9917,2.7385,0.0,0.0,0.0,0.0,0.0,0.0,0.0,0.0,0.0,0.0,0.0,0.0,0.0,0.0,0.0,0.0,0.0,0.0,0.0,0.0,0.0,0.0,0.0,0.0,0.0,0.0,0.0,0.0,2.0601,2.1045,2.1547,2.0985,1.9804,0.0,0.0,0.0,0.0,0.0,0.0,2.1885,2.2188,2.3352,2.5615,2.5857,2.6834,2.8569,2.8635,2.9513,3.121,3.1819,3.2623,3.3634,3.4207,3.4447,3.4427,3.4379,3.4195,3.3857,3.1608,2.9515,2.7604,2.6402,0.0,0.0,0.0,2.5062,2.494,2.6593,2.6307,0.0,2.4645,0.0,0.0,2.0104,0.0,0.0,0.0,0.0,2.2142,2.56,0.0,2.6835,2.8443,2.8539,2.8065,2.7433,2.691,2.5618,0.0,2.2049,2.1204,1.7693,0.0,0.0,0.0,0.0,2.5755,2.7926,3.0063,3.1679,3.2506,3.2583,3.3186,3.463,3.4342,3.4143,3.4275,3.4459,3.4068,3.2952,3.177,2.9963,0.0,0.0,0.0,0.0,0.0,0.0,0.0,0.0,0.0,0.0,0.0,0.0,0.0,0.0,0.0,0.0,0.0,0.0,0.0,0.0,0.0,0.0,0.0,0.0,0.0,0.0,0.0,0.0,0.0,0.0,2.4232,2.3814,0.0,0.0,0.0,0.0,2.001,2.1282,2.3017,2.5238,2.5553,2.6726,2.9079,2.9347,2.9693,3.0172,3.0377,3.0901,3.1768,3.1806,3.2643,3.4153,3.3945,3.4289,3.5034,3.4774,3.4674,3.4572,3.3488,3.1292,2.8603,2.8121,2.6639,2.4801,2.5511,2.6813,2.8357,2.9155,2.9128,2.8665,2.821,2.5832,2.3086,2.226,2.1393,0.0,0.0,0.0,2.4905,2.6772,2.8603,2.968,2.8688,2.8981,2.9215,2.8092,2.7293,2.6522,0.0,2.62,0.0,2.4646,0.0,0.0,2.5084,2.5221,2.6124,2.8717,2.9871,3.0814,3.1679,3.1756,3.2019,3.2688,3.342,3.3617,3.3131,3.3794,3.4099,3.376,3.366,3.2183,2.9134,2.8279,0.0,0.0,0.0,0.0,0.0,0.0,0.0,0.0,0.0,0.0,0.0,0.0,0.0,0.0,0.0,0.0,0.0,0.0,0.0,0.0,0.0,0.0,0.0,0.0,0.0,0.0,0.0,0.0,2.5063,2.4675,0.0,0.0,2.2643,2.3254,2.2947,2.4316,2.5784,2.7264,2.7528,2.837,2.9927,3.018,3.035,3.0484,3.0549,3.1035,3.1856,3.1856,3.2413,3.3445,3.3909,3.4169,3.4304,3.477,3.487,3.4674,3.4315,3.3393,3.2212,3.1806,3.1048,3.0188,3.0476,3.0766,3.1049,3.0821,3.0453,2.9831,2.8065,2.6615,2.5366,2.4715,2.466,2.5069,2.6082,2.6716,2.732,2.8382,2.9234,2.9725,2.9268,2.9205,2.9155,2.8863,2.8412,2.8057,2.7936,2.7691,2.6796,2.4699,2.6167,2.7109,2.5563,2.702,2.8677,2.979,3.0217,3.0737,3.1621,3.1198,3.1316,3.2501,3.2816,3.2975,3.3015,3.3753,3.4093,3.3815,3.3807,3.3019,3.1359,3.0609,2.7517,0.0,0.0,0.0,0.0,0.0,0.0,0.0,0.0,0.0,0.0,0.0,0.0,0.0,0.0,0.0,0.0,0.0,0.0,0.0,0.0,0.0,0.0,0.0,0.0,0.0,0.0,2.4741,2.5727,2.5747,2.5005,2.3276,2.474,2.5713,2.556,2.6933,2.8146,2.8961,2.9203,2.9686,3.0489,3.0633,3.0708,3.0708,3.0416,3.054,3.1081,3.0789,3.1035,3.1764,3.2346,3.2656,3.2743,3.3316,3.3616,3.3739,3.3992,3.4074,3.4038,3.3669,3.3419,3.3211,3.2936,3.2482,3.1929,3.1213,3.0768,3.0177,2.8339,2.7657,2.7453,2.6821,2.7173,2.7879,2.8258,2.8594,2.8938,2.9293,2.9484,2.9539,2.9539,2.9326,2.9176,2.9375,2.9263,2.9145,2.9288,2.8799,2.7844,2.621,2.8067,2.9121,2.7122,2.8715,3.0196,3.0386,3.0311,3.051,3.1186,3.0599,3.0572,3.1537,3.1514,3.1751,3.2428,3.2961,3.3345,3.3588,3.3095,3.2412,3.1542,3.0299,2.7502,2.3173,0.0,0.0,0.0,0.0,0.0,0.0,0.0,0.0,0.0,0.0,0.0,0.0,0.0,0.0,0.0,0.0,0.0,0.0,0.0,0.0,0.0,0.0,0.0,2.4134,2.5509,2.6372,2.6391,2.7264,2.7055,2.504,2.6742,2.7881,2.7698,2.895,2.9911,3.0383,3.0583,3.0751,3.0898,3.0898,3.0879,3.0859,3.0019,2.9548,2.9445,2.8605,2.8575,2.9279,2.9292,2.9758,3.0561,3.0516,3.0975,3.1826,3.2567,3.3207,3.3715,3.3526,3.3428,3.3296,3.243,3.1629,3.0896,3.0249,3.0013,2.9889,2.9172,2.9076,2.9115,2.8366,2.8572,2.904,2.906,2.9326,2.9568,2.9399,2.9338,2.9375,2.9375,2.9394,2.9455,2.9661,2.9713,2.9713,2.9731,2.9731,2.9731,2.9713,2.9877,3.0013,3.0013,3.0241,0.0,3.0398,3.015,3.0089,3.0355,2.9977,2.9696,2.9696,2.9532,3.0012,3.1317,3.1421,3.1963,3.3141,3.1743,3.0552,2.9658,2.7361,2.5622,2.4486,0.0,0.0,0.0,0.0,0.0,0.0,0.0,0.0,0.0,0.0,0.0,0.0,0.0,0.0,0.0,0.0,0.0,0.0,0.0,0.0,0.0,0.0,2.4712,2.4923,2.6332,2.7625,2.8452,2.8804,2.873,2.8158,2.8982,2.9553,2.9564,3.0007,3.0351,3.0543,3.0609,3.0634,3.0681,3.0681,3.0423,2.9886,2.9652,2.9234,2.863,2.8396,2.8346,2.8521,2.9117,2.9479,2.9694,3.0314,3.0668,3.0907,3.1767,3.217,3.2434,3.402,3.4131,3.3296,3.243,3.0672,2.8676,2.8498,2.8275,2.7924,2.7103,2.7483,2.8117,2.7288,2.7344,2.7746,2.7891,2.7897,2.7905,2.8001,2.8355,2.8668,2.8668,2.9174,2.9678,2.9877,2.9924,2.9988,3.0169,3.0202,3.0142,2.9939,3.0122,3.0299,3.0299,0.0,0.0,3.0103,2.9908,2.9796,2.988,2.9782,2.9625,2.9494,2.9975,3.0605,0.0,3.1682,3.2252,3.316,3.246,3.1579,3.0571,2.7365,2.5295,0.0,0.0,0.0,0.0,0.0,0.0,0.0,0.0,0.0,0.0,0.0,0.0,0.0,0.0,0.0,0.0,0.0,0.0,0.0,0.0,0.0,0.0,2.3902,2.6067,2.6343,2.7793,2.9079,2.9741,2.9818,2.9834,2.986,3.0139,3.0346,3.0428,3.0498,3.0414,3.0105,3.01,2.993,2.9561,2.9541,2.9348,2.8915,2.858,2.8186,2.7711,2.7363,2.7186,2.7177,2.7641,2.7825,0.0,2.8301,2.8893,2.9609,3.0391,3.111,0.0,0.0,0.0,0.0,0.0,0.0,2.7656,2.7587,2.7438,2.7173,2.6672,2.7065,2.7652,2.7127,2.7229,2.7532,2.7619,2.7567,2.7499,2.7508,2.8027,2.8578,2.8578,2.9223,2.9877,3.0122,3.0182,3.0209,3.0367,0.0,0.0,3.0196,3.0299,3.0398,3.0398,3.0163,0.0,0.0,2.9746,2.9607,2.9696,2.9514,2.9397,2.9412,2.9259,0.0,0.0,0.0,3.1023,3.1667,0.0,0.0,0.0,0.0,0.0,0.0,0.0,0.0,0.0,2.0828,2.002,0.0,0.0,0.0,0.0,0.0,0.0,0.0,0.0,0.0,0.0,0.0,0.0,0.0,0.0,0.0,0.0,2.5168,2.7003,2.7998,2.9355,3.0308,3.0408,3.0331,3.0307,3.0378,3.0274,3.0232,3.0308,3.029,2.9978,0.0,0.0,0.0,0.0,0.0,2.8037,2.7945,2.7231,2.6844,2.6735,2.6031,2.5683,2.5703,2.5703,2.5703,2.5703,2.5636,2.654,2.8109,2.8793,3.0025,3.1497,3.1534,3.0968,2.9906,2.8071,2.7338,0.0,0.0,0.0,0.0,2.7013,2.7167,2.7376,2.7281,2.7431,2.7601,2.7601,2.7601,2.755,2.7319,2.7891,2.8572,2.8687,2.9317,2.9989,3.0336,3.0398,3.0398,3.0398,3.0398,3.0398,3.0398,3.0398,3.0398,3.0355,3.0136,0.0,2.9939,2.9588,2.9415,2.9607,0.0,0.0,2.933,2.8109,2.7987,2.9511,2.9347,2.932,2.9626,2.9309,2.8633,2.755,2.7466,2.7559,2.7795,2.7221,2.6935,2.6844,2.2668,2.16,0.0,0.0,0.0,0.0,0.0,0.0,0.0,0.0,0.0,0.0,0.0,0.0,0.0,0.0,0.0,2.4354,2.6398,2.7985,2.8791,2.9168,2.9641,3.0458,2.9985,2.9596,2.9601,2.8929,2.8488,2.8504,2.8461,2.8338,2.8203,2.8184,0.0,2.7943,2.7943,2.7632,2.6985,2.6824,2.6432,2.5857,0.0,0.0,2.5703,2.5703,2.5703,2.5703,2.5683,2.6244,2.7217,2.7998,2.8822,2.9685,3.0383,2.9717,2.8255,2.7166,2.6318,2.5723,2.568,2.614,2.66,2.591,2.6181,2.6645,2.5934,2.5763,0.0,2.5813,2.5813,2.5783,0.0,2.6376,2.7193,2.7904,2.8691,2.949,3.0244,3.0398,3.0398,3.0398,3.0398,3.0398,3.0398,3.0398,3.0343,3.0103,2.9912,2.9696,2.9551,2.9249,2.9089,2.9138,2.9044,2.9017,2.9067,2.8518,2.8582,2.9547,3.0088,3.0266,3.0003,3.0045,2.9922,2.9714,2.9226,2.9,2.9042,2.89,2.8837,2.879,2.588,2.4714,0.0,0.0,0.0,0.0,0.0,0.0,0.0,0.0,0.0,0.0,0.0,1.8432,0.0,0.0,2.2693,2.4252,2.5653,2.6822,2.7589,2.8076,2.8725,2.9726,2.9132,2.8648,2.8648,2.8229,2.7942,2.7942,2.7913,2.7717,2.7274,2.7255,2.7044,2.6621,2.6601,2.642,2.5994,2.6033,2.5855,2.5493,2.552,2.5593,2.5658,2.5658,2.5662,2.5703,2.5703,2.6171,2.7004,2.7826,2.8073,2.7984,2.8421,2.8066,2.7181,2.6275,2.5697,2.5357,2.5313,2.5591,2.589,2.5437,2.5591,2.587,2.5418,2.5303,2.5303,2.5303,2.5303,2.5303,2.5303,2.6274,2.7351,2.7794,2.8852,2.9871,3.0314,3.0398,3.0398,3.0398,3.0398,3.0398,3.0398,3.0398,3.0311,3.0028,2.9829,2.9644,2.9433,2.9178,2.8994,2.8994,2.8994,2.8994,2.8994,2.8482,2.8312,2.8689,2.9056,2.95,3.0074,3.0157,3.0251,3.0293,2.9978,2.9717,2.9406,2.9406,2.9406,2.939,2.8105,2.7489,0.0,0.0,0.0,0.0,0.0,0.0,0.0,0.0,1.5991,1.816,1.9073,1.9847,2.0989,2.1855,2.2795,2.3978,2.4849,2.5673,2.651,2.7039,2.765,2.8461,2.795,2.7524,2.7524,2.7412,2.7338,2.7338,2.7379,2.7082,2.639,2.6351,2.6024,2.5322,2.5303,2.5303,2.5303,2.5346,2.5383,2.5394,2.544,2.5511,2.5601,2.5601,2.5636,2.5703,2.5879,2.6347,2.7049,2.7852,2.7659,2.6796,2.6796,2.6675,2.6391,2.5614,2.5368,2.5408,2.5348,2.5322,2.5322,2.5293,2.5303,2.5303,2.5303,2.5303,2.5303,2.5303,2.5303,2.5303,2.5303,2.6351,2.7486,2.7813,2.8929,3.0006,3.0321,3.0398,3.0398,3.0398,3.0398,3.0398,3.0398,3.0398,3.0299,2.9984,2.9796,2.9626,2.9353,2.9134,2.8994,2.8994,2.8994,2.8952,2.8905,2.8281,2.7822,2.7726,2.7827,2.8523,2.9952,3.0156,3.0319,3.0592,3.0502,3.0251,2.9761,2.9761,2.9761,2.9761,2.9761,2.9629,1.7407,1.5941,0.0,1.4151,1.5388,1.7125,0.0,0.0,1.9202,2.0494,2.1226,2.1713,2.1864,2.2972,2.415,2.5004,2.588,2.6734,2.7599,2.6986,2.6479,2.66,2.6374,2.6218,2.6218,2.5672,2.5321,2.5321,2.5491,2.5553,2.5437,2.5437,2.5399,2.5303,2.5303,2.5303,2.5303,2.5303,2.5348,2.5394,2.5413,2.5482,2.5601,2.5601,2.5636,2.5742,2.6523,2.6872,2.6986,2.7842,2.7659,2.6796,2.6796,2.6368,2.5701,2.5532,2.5473,2.5488,2.542,2.5383,2.5387,2.5322,2.5303,2.5303,2.5303,2.5303,2.5303,2.5303,2.5303,2.5303,2.5303,2.5437,2.5986,2.7525,2.8044,2.8582,3.0083,3.0398,3.0398,3.0398,3.0398,3.0398,3.0398,3.0398,3.026,2.9799,2.9713,2.9533,2.9093,2.9017,2.8994,2.8994,2.8994,2.8863,2.8515,2.8102,2.7742,2.7393,2.7969,2.8729,2.9626,3.0231,3.0903,3.1608,3.1295,3.1055,3.1015,3.1015,3.1015,3.1015,3.1015,3.0435,1.8173,0.0,0.0,0.0,1.7669,1.8583,1.9996,2.038,2.0759,2.1866,2.2384,2.2405,2.1671,2.2381,2.3151,0.0,2.4342,2.5248,2.611,2.5829,2.5507,2.5441,2.5235,2.5158,2.528,2.5045,2.4917,2.4979,2.5088,2.5192,2.5284,2.5303,2.5303,2.5303,2.5303,2.5303,2.5303,2.5303,2.5313,2.5329,2.5348,2.5391,2.5473,2.5511,2.5601,2.5723,2.6094,2.6229,2.6225,2.6596,2.6513,2.6152,2.6152,2.5945,2.5657,2.5543,2.5511,2.5551,2.5488,2.5465,2.5447,2.5376,2.5354,2.5357,2.5313,2.5303,2.5303,2.5303,2.5303,2.5303,2.5303,2.5668,2.6236,2.6967,2.789,2.8794,2.9486,3.0044,3.0398,3.0398,3.0398,3.0398,3.0398,3.0398,3.0286,2.9924,2.9877,2.9712,2.9291,2.9225,2.916,2.9017,2.8994,2.8839,2.8446,2.8264,2.8047,2.7678,2.7935,2.8443,2.9215,2.9516,3.0252,3.1494,3.1342,3.148,3.1967,3.1677,3.1545,3.1528,3.1329,3.0918,1.8052,0.0,0.0,1.9244,1.9794,2.0352,2.1131,2.1569,2.1909,2.2316,2.2515,2.2256,2.1034,2.1438,2.2048,2.2343,2.3001,2.3766,2.4629,2.45,2.4252,2.4138,2.3933,2.3931,2.4267,2.4554,2.4785,2.4924,2.4986,2.5088,2.5303,2.5303,2.5303,2.5303,2.5303,2.5303,2.5303,2.5303,2.5303,2.5303,2.5303,2.533,2.5406,2.5498,2.5595,2.5703,2.5703,2.5703,2.5703,2.5703,2.5703,2.5703,2.5703,2.5703,2.5683,2.5598,2.5595,2.5629,2.5554,2.5535,2.5526,2.5459,2.5427,2.5391,2.5348,2.5313,2.5303,2.5303,2.5303,2.5303,2.5303,2.5774,2.6294,2.6544,2.7717,2.8832,2.9044,2.9775,3.0398,3.0398,3.0398,3.0398,3.0398,3.0398,3.0323,3.0136,3.0103,2.9958,2.9532,2.9434,2.933,2.9134,2.9044,2.8863,2.859,2.8471,2.829,2.8047,2.802,2.8375,2.9123,2.9176,2.9787,3.1138,3.103,3.125,3.1848,3.1497,3.1446,3.1638,3.1367,3.1356,0.0,0.0,1.9741,1.9781,2.1431,2.2957,2.2462,2.2859,2.2961,2.1625,2.1411,2.1122,2.0039,2.055,2.146,2.2443,2.2618,2.2995,2.3995,2.3235,2.2517,2.2388,2.22,2.2335,0.0,2.3929,2.4591,2.479,2.493,2.5088,2.5303,2.5303,2.5303,2.5303,2.5303,2.5303,2.5303,2.5303,2.5303,2.5303,2.5303,2.533,2.5406,2.5539,2.5634,2.5703,2.5703,2.5703,2.5703,2.5703,2.5703,2.5703,2.5703,2.5703,2.5703,2.5703,2.5703,2.5683,2.5629,2.5601,2.5595,2.5526,2.544,2.5406,2.5398,2.5337,2.5303,2.5303,2.5303,2.5303,2.5303,2.5322,2.5553,2.6409,2.7274,2.814,2.8929,2.9775,3.0398,3.0398,3.0398,3.0398,3.0398,3.0398,3.0398,3.0398,3.0398,3.0215,2.9748,2.9532,2.9392,2.9392,2.9156,2.8994,2.8975,2.8615,2.8394,2.8394,2.8376,2.8737,2.9539,2.9575,2.9989,3.0818,3.0373,3.0159,3.0176,3.0145,3.0547,3.1303,3.1303,3.1709,0.0,0.0,2.0144,2.21,2.3257,2.3822,2.3417,2.3495,2.3223,2.162,2.1173,2.0874,2.0252,2.0433,2.0967,2.1804,2.2103,2.2413,2.3023,2.2792,2.2579,2.2621,2.2376,0.0,0.0,0.0,0.0,2.4538,2.4771,2.493,2.5088,2.5224,2.5303,2.5303,2.5303,2.5303,2.5303,2.5303,2.5303,2.5303,2.5303,2.5339,2.5406,2.5453,2.5493,2.5564,2.5607,2.5634,2.5636,2.5683,2.5703,2.5703,2.5703,2.5703,2.5703,2.5703,2.5703,2.5703,2.5662,2.5661,2.5659,2.5595,2.5531,2.5465,2.5408,2.5346,2.5303,2.5303,2.5303,2.5303,2.5303,2.5303,2.536,2.5668,2.6409,2.7274,2.8121,2.8948,2.9717,3.0294,3.0398,3.0398,3.0398,3.0398,3.0398,3.0398,3.0254,3.0075,2.9924,2.9712,2.9607,2.9607,2.9533,2.9397,2.9289,2.9144,2.8989,2.8797,2.8797,2.8925,2.918,2.9193,2.9575,3.0378,3.0765,3.0966,3.0966,3.1761,3.202,3.1757,3.1977,3.2237,0.0,1.9961,2.0545,2.3114,2.3883,2.3785,2.2929,2.2783,2.2395,2.0871,2.0025,1.9417,1.8896,1.8748,1.9146,2.0463,2.0988,2.1521,2.2323,2.2318,2.2104,2.1708,2.1462,0.0,0.0,0.0,0.0,2.4011,2.4192,2.4478,2.4979,2.5111,2.5224,2.5303,2.5303,2.5303,2.5303,2.5303,2.5303,2.5303,2.5303,2.5339,2.5406,2.5394,2.5441,2.5493,2.5551,2.5561,2.5564,2.5636,2.5661,2.5661,2.5683,2.5703,2.5703,2.5703,2.5703,2.5703,2.5703,2.5703,2.5683,2.5658,2.5567,2.5484,2.5453,2.536,2.5303,2.5303,2.5303,2.5303,2.5303,2.5303,2.5303,2.5303,2.5967,2.6832,2.7717,2.8525,2.9275,2.9833,2.9948,2.9852,2.9563,2.9756,3.0044,3.034,3.0254,3.0136,3.0136,2.9958,2.9813,2.9813,2.9729,2.9643,2.9513,2.9513,2.9435,2.9251,2.9251,2.9228,2.9156,2.9156,2.9329,2.9769,3.0558,3.0962,3.0962,3.2028,3.2428,3.22,3.2457,3.2696,1.9784,2.0369,2.0991,2.2802,2.3392,2.3013,2.1222,2.0939,2.0684,1.9365,1.8057,1.6906,0.0,0.0,1.6149,1.8425,1.9284,2.0179,2.1635,2.1587,2.0942,0.0,0.0,0.0,0.0,0.0,0.0,2.3156,0.0,2.3825,2.4924,2.4998,2.5088,2.5274,2.5284,2.5303,2.5303,2.5303,2.5303,2.5303,2.5303,2.533,2.5391,2.5398,2.5434,2.5479,2.5484,2.5484,2.5493,2.5564,2.5601,2.5605,2.5662,2.5703,2.5703,2.5703,2.5703,2.5703,2.5703,2.5703,2.5703,2.5703,2.5607,2.5493,2.5493,2.542,2.5313,2.5313,2.5313,2.5313,2.5313,2.5313,2.5293,2.5303,2.5928,2.6774,2.764,2.8429,2.8986,2.9025,2.9044,2.8794,2.8025,2.8525,2.9333,3.0198,3.0321,3.034,3.0379,3.0182,3.0013,3.0013,2.9845,2.9731,2.9713,2.9713,2.9713,2.9696,2.9696,2.9607,2.9412,2.9392,2.9265,2.9072,2.9861,3.0265,3.0265,3.1109,3.188,3.2614,3.2651,3.3073,1.9563,2.0637,2.1544,2.2463,2.3021,2.2895,2.1179,2.0726,2.0089,1.8123,1.7001,1.5961,0.0,0.0,0.0,1.5559,1.6107,0.0,1.8199,1.8553,0.0,1.8774,0.0,1.9353,1.9528,1.9785,0.0,0.0,2.3425,2.4337,2.4601,2.4872,2.5022,2.5057,2.5214,2.5303,2.5303,2.5303,2.5303,2.5303,2.5303,2.5303,2.5331,2.534,2.5339,2.5346,2.5406,2.5421,2.5434,2.5508,2.5554,2.5603,2.5629,2.5659,2.5703,2.5703,2.5703,2.5703,2.5703,2.5703,2.5703,2.5703,2.5637,2.5561,2.5526,2.5447,2.5368,2.5368,2.5368,2.536,2.5368,2.5368,2.5371,2.5313,2.5457,2.587,2.6736,2.7082,2.7428,2.8082,2.8198,2.814,2.7928,2.8063,2.8467,2.9313,2.9429,2.9679,3.0321,3.0343,3.0299,3.0299,3.0241,3.0142,2.9939,2.9924,2.9861,2.9713,2.9551,2.9454,2.9412,2.9222,2.9343,2.9879,3.0687,3.1091,3.1091,3.2504,3.2999,3.2614,3.322,3.3605,1.9975,2.0822,2.144,2.2042,2.2134,2.1634,1.9989,1.9724,1.9134,1.6579,1.5521,0.0,0.0,0.0,0.0,0.0,0.0,0.0,1.6065,1.6817,1.7342,0.0,1.8124,0.0,1.9061,1.9356,2.0135,0.0,2.2733,2.3667,2.4458,2.4678,2.4818,2.4917,2.5024,2.5115,2.5163,2.5264,2.5303,2.5303,2.5303,2.5303,2.5303,2.5303,2.5303,2.5293,0.0,2.5354,2.5363,2.5428,2.5488,2.5526,2.559,2.5611,2.566,2.5683,2.5703,2.5703,2.5703,2.5703,2.5703,2.5703,2.5659,2.5598,2.5554,2.5508,2.5428,2.5428,2.5447,2.5434,2.5413,2.5406,2.5383,2.5322,2.5303,2.5534,2.6409,2.6601,2.6736,2.7236,2.7024,2.689,2.7255,2.7332,2.7736,2.8909,2.9102,2.941,3.0294,3.0398,3.0398,3.0398,3.0398,3.0343,3.0196,3.0182,3.0122,3.0007,2.9899,2.9784,2.9661,2.9889,3.0183,3.0544,3.17,3.2277,3.2277,3.3576,3.3966,3.3538,3.3815,3.3986,2.0336,2.0728,2.0891,2.1443,2.1051,2.0147,1.861,1.8494,1.7874,1.5071,0.0,1.2177,0.9067,0.8814,0.9294,0.9904,0.0,1.3233,1.4378,1.5369,1.6069,1.6264,1.6862,1.7654,1.8645,1.9285,2.0241,2.1641,2.1751,2.2535,2.4351,2.4478,2.4591,2.479,2.4832,2.4877,2.501,2.5203,2.5303,2.5303,2.5303,2.5303,2.5303,2.5303,2.5303,2.5303,0.0,0.0,2.5293,2.5363,2.5391,2.5408,2.5543,2.5598,2.5605,2.5682,2.5703,2.5703,2.5703,2.5703,2.5703,2.5703,2.566,2.5607,2.5603,2.5558,2.5503,2.5503,2.5503,2.5508,2.5441,2.5415,2.5406,2.5321,2.5322,2.5514,2.6255,2.6428,2.6428,2.6428,2.5832,2.5534,2.6294,2.6428,2.6967,2.8525,2.8871,2.9256,3.0121,3.0321,3.0398,3.0398,3.0398,3.0398,3.0398,3.0398,3.0398,3.0398,3.0367,3.0254,3.0013,3.0803,3.1238,3.1164,3.2638,3.3412,3.3393,3.4147,3.4468,3.4334,3.4039,3.3883,1.8799,1.9582,2.005,2.0335,2.056,2.0463,1.9353,1.8027,0.0,0.0,1.196,0.9453,0.6894,0.6661,0.6971,0.7373,0.0,0.0,0.0,0.0,1.3172,0.0,0.0,0.0,0.0,0.0,0.0,0.0,0.0,0.0,2.4155,2.441,2.4591,2.479,2.4917,2.4974,2.501,2.5203,2.5303,2.5303,2.5303,2.5303,2.5303,2.5303,2.5303,2.5303,0.0,0.0,2.5303,2.5313,2.5357,2.5413,2.5498,2.5554,2.5605,2.5682,2.5703,2.5703,2.5703,2.5703,2.5703,2.5703,2.5683,2.5662,2.5629,2.5598,2.5573,2.5573,2.5573,2.557,2.5564,2.5511,2.5471,2.5398,2.5339,2.5341,2.5495,2.5534,2.5534,2.5534,2.5399,2.5341,2.5495,2.5534,2.587,2.689,2.764,2.839,2.9217,2.9948,3.0398,3.0398,3.0398,3.0398,3.0398,3.0398,3.0398,3.0398,3.0196,3.0061,2.9999,3.0677,3.1334,3.1996,3.2902,3.3412,3.341,3.3561,3.3259,3.2561,3.2315,3.2222,1.812,1.8609,1.8839,1.9398,1.9061,1.8467,1.7964,0.0,0.0,0.0,1.1028,0.8839,0.5999,0.0,0.0,0.0,0.0,0.0,0.0,0.0,0.0,0.0,0.0,0.0,0.0,0.0,0.0,0.0,0.0,0.0,0.0,2.4284,2.4393,2.4478,2.4648,2.4795,2.4891,2.5053,2.5203,2.5303,2.5303,2.5303,2.5303,2.5303,2.5303,2.5303,0.0,0.0,0.0,2.5303,2.5322,2.5346,2.5421,2.5479,2.5558,2.5611,2.5662,2.5703,2.5703,2.5703,2.5703,2.5703,2.5703,2.5683,2.566,2.5659,2.5659,2.5659,2.5659,2.5637,2.5605,2.559,2.5535,2.5421,2.5337,2.5303,2.5303,2.5303,2.5303,2.5303,2.5303,2.5303,2.5303,2.5303,2.5591,2.6467,2.6967,2.7678,2.8929,2.9467,2.991,3.034,3.0398,3.0398,3.0398,3.0398,3.0398,3.0398,3.0267,3.042,3.086,3.1594,3.218,3.2565,3.3401,3.3595,3.3141,3.3141,3.2866,3.2346,3.2108,3.1946,1.6962,1.7315,1.7453,1.827,1.7568,1.6675,1.6733,1.5654,0.0,1.1991,1.0223,0.8224,0.5524,0.0,0.5152,0.0,0.0,0.0,0.0,0.0,0.0,0.0,0.0,0.0,0.0,0.0,0.0,0.0,0.0,0.0,0.0,2.419,2.419,2.419,2.4393,2.4594,2.4731,2.4911,2.5088,2.5243,2.5274,2.5303,2.5303,2.5303,2.5303,2.5303,0.0,0.0,0.0,2.5303,2.5303,2.5303,2.5368,2.5447,2.5517,2.5587,2.5637,2.5703,2.5703,2.5703,2.5703,2.5703,2.5703,2.5703,2.5703,2.5703,2.5703,2.5703,2.5703,2.5683,2.5634,2.5605,2.5564,2.5434,2.5346,2.5303,2.5303,2.5303,2.5303,2.5303,2.5303,2.5303,2.5303,2.5303,2.5534,2.6217,2.6486,2.7082,2.839,2.8871,2.9352,3.0044,3.0294,3.0398,3.0398,3.0398,3.0398,3.0398,3.0571,3.0987,3.1679,3.2641,3.3083,3.2891,3.3757,3.368,3.2641,3.2641,3.2448,3.205,3.1782,3.1523,1.4015,1.5068,1.595,1.664,1.6862,1.7,1.748,0.0,1.2913,1.2268,0.9039,0.6029,0.493,0.0,0.0,0.0,0.0,0.4749,0.0,0.0,0.0,0.0,0.0,0.0,0.0,0.0,0.0,0.0,0.0,0.0,0.0,2.419,2.419,2.419,2.4393,2.4512,2.4528,2.4845,2.501,2.5034,2.5214,2.5303,2.5303,2.5303,2.5303,2.5303,0.0,0.0,0.0,2.5303,2.5303,2.5322,2.5379,2.5441,2.5517,2.5587,2.5637,2.5703,2.5703,2.5703,2.5703,2.5703,2.5703,2.5703,2.5703,2.5703,2.5703,2.5703,2.5703,2.5703,2.5683,2.5657,2.5561,2.5428,2.5357,2.5303,2.5303,2.5303,2.5303,2.5303,2.5303,2.5303,2.5303,2.5303,2.5322,2.5399,2.6101,2.6659,2.6813,2.8159,2.9121,2.9198,2.9929,3.0398,3.0398,3.0398,3.0398,3.0398,3.1141,3.1621,3.1698,3.3237,3.3699,3.291,3.3757,3.341,3.1814,3.1814,3.1264,3.0228,3.0042,2.9814,1.2303,1.3428,1.4287,1.5072,1.5459,1.5683,1.5844,1.4315,1.2539,1.1505,0.8758,0.6044,0.446,0.3895,0.0,0.0,0.0,0.0,0.3514,0.0,0.0,0.0,0.0,0.0,0.0,0.0,0.0,0.0,0.0,0.0,0.0,0.0,2.3996,2.419,2.4266,2.4375,2.4495,2.4636,2.4804,2.501,2.5088,2.5173,2.5303,2.5303,2.5303,0.0,0.0,0.0,0.0,2.5303,2.5303,2.5293,2.5321,2.5376,2.5447,2.5522,2.5573,2.5657,2.5683,2.5703,2.5703,2.5703,2.5703,2.5703,2.5703,2.5703,2.5703,2.5703,2.5703,2.5703,2.5703,2.5658,2.559,2.5468,2.5413,2.5357,2.5303,2.5303,2.5303,2.5303,2.533,2.5357,2.5322,2.533,2.5348,2.5322,2.5591,2.6005,2.6524,2.7178,2.7794,2.8313,2.9602,3.0398,3.0398,3.0398,3.0609,3.116,3.1506,3.1929,3.241,3.3064,3.3026,3.2199,3.2526,3.2102,3.0929,3.0929,3.054,2.9813,2.9748,2.9514,1.067,1.1962,1.2741,1.3604,1.4066,1.4366,1.4534,1.3446,1.2077,1.0859,0.8393,0.5896,0.4045,0.3414,0.2615,0.0878,0.0,0.0855,0.029,0.0,0.0,0.0,0.0,0.0,0.0,0.0,0.0,0.0,0.0,0.0,0.0,0.0,2.3714,2.4036,2.4151,2.4266,2.441,2.4461,2.462,2.4858,2.4911,2.5041,2.5214,2.5214,0.0,0.0,0.0,0.0,0.0,2.5303,2.5303,2.5303,2.5303,2.5348,2.5413,2.5459,2.5535,2.5605,2.5659,2.5683,2.5703,2.5703,2.5703,2.5703,2.5703,2.5703,2.5703,2.5703,2.5703,2.5703,2.5703,2.5658,2.5595,2.5547,2.5465,2.5403,2.5348,2.5313,2.5303,2.5303,2.5339,2.5365,2.5303,2.5339,2.5346,2.5322,2.5303,2.5514,2.614,2.6447,2.6832,2.7448,2.8794,2.966,2.966,3.0121,3.066,3.1275,3.2025,3.2468,3.2545,3.3026,3.266,3.1352,3.1495,3.1143,3.0267,3.0228,2.9992,2.9626,2.9626,2.9377,0.8849,1.0621,1.1402,1.2207,1.2828,1.341,1.4155,1.2858,1.131,1.0556,0.7731,0.5014,0.375,0.2434,0.0703,-0.1769,-0.2536,0.0,-0.3399,0.0,0.0,0.0,0.0,0.0,0.0,0.0,0.0,0.0,0.0,0.0,0.0,0.0,2.3369,2.3692,2.4016,2.419,2.419,2.441,2.4512,2.4512,2.4716,2.4864,2.501,2.501,0.0,0.0,0.0,0.0,0.0,2.5303,2.5303,2.5303,2.5303,2.5348,2.5394,2.5394,2.5498,2.5601,2.5601,2.5637,2.5703,2.5703,2.5703,2.5703,2.5703,2.5703,2.5703,2.5703,2.5703,2.5703,2.5703,2.5658,2.5601,2.5601,2.5503,2.5398,2.5406,2.5337,2.5303,2.5303,2.5303,2.5303,2.5303,2.5303,2.5303,2.5303,2.5303,2.5303,2.5303,2.6082,2.6601,2.6621,2.739,2.7928,2.7928,2.9448,3.0398,3.0398,3.2776,3.343,3.1775,3.3314,3.3006,3.0456,3.0992,3.0871,2.9999,2.9796,2.9607,2.9412,2.9412,2.9246,0.4459,0.7424,0.9622,1.0984,1.161,1.1716,1.0978,0.987,0.8487,0.6788,0.515,0.3057,-0.0161,-0.0894,-0.2445,-0.6756,-0.7496,0.0,0.0,0.0,0.0,0.0,0.0,0.0,0.0,0.0,0.0,0.0,0.0,0.0,0.0,0.0,0.0,2.3692,2.4034,2.419,2.419,2.4247,2.4357,2.4495,2.4559,2.4682,2.485,0.0,0.0,0.0,0.0,0.0,0.0,2.5234,2.5303,2.5303,2.5303,2.5313,2.5339,2.5383,2.5428,2.5463,2.5526,2.5551,2.5567,2.5629,2.5634,2.5636,2.5683,2.5703,2.5703,2.5703,2.5703,2.5703,2.5703,2.5683,2.5657,2.5554,2.5508,2.5447,2.5346,2.5322,2.5303,2.5303,2.5339,2.5354,2.5303,2.5339,2.5346,2.5322,2.5303,2.5303,2.5303,2.5534,2.5707,2.5707,2.5967,2.6621,2.7794,2.839,2.8929,2.9486,3.0275,3.0467,2.9929,3.1006,3.0948,2.9544,3.0285,3.0554,3.0267,3.0215,3.0052,2.9796,2.9532,2.9351,0.0737,0.3787,0.6083,0.8219,0.8756,0.8521,0.762,0.6145,0.457,0.333,0.1962,0.0081,-0.2948,-0.358,-0.5283,-1.0237,-1.1204,0.0,0.0,0.0,0.0,0.0,0.0,0.0,0.0,0.0,0.0,0.0,0.0,0.0,0.0,0.0,0.0,2.2625,2.3666,2.419,2.419,2.419,2.4247,2.4393,2.4393,2.4495,2.4685,0.0,0.0,0.0,0.0,0.0,0.0,2.5214,2.5303,2.5303,2.5303,2.5303,2.5313,2.5337,2.5376,2.542,2.5453,2.5488,2.5503,2.557,2.5629,2.5657,2.5683,2.5703,2.5703,2.5703,2.5683,2.5661,2.5661,2.5637,2.5603,2.5526,2.5473,2.5441,2.5354,2.5322,2.5303,2.5303,2.5339,2.5346,2.5303,2.533,2.5357,2.5322,2.5303,2.5303,2.5303,2.5331,2.5339,2.5339,2.5363,2.5812,2.6895,2.7547,2.8102,2.8621,2.9236,2.9429,2.9102,2.9948,2.9987,2.9121,2.987,3.0254,3.0254,3.0169,3.0052,2.9877,2.9644,2.9513,0.0,-0.0204,0.1511,0.4361,0.4635,0.4212,0.412,0.182,0.0,0.0052,-0.1704,-0.3691,-0.4965,-0.5786,-0.7788,-1.245,-1.3867,0.0,0.0,0.0,0.0,0.0,0.0,0.0,0.0,0.0,0.0,0.0,0.0,0.0,0.0,0.0,0.0,0.0,2.2874,2.4024,2.4116,2.4171,2.419,2.419,2.419,2.4303,2.4478,0.0,0.0,0.0,0.0,0.0,0.0,2.5203,2.5303,2.5303,2.5303,2.5303,2.5303,2.5303,2.5348,2.5398,2.5391,2.5434,2.5493,2.559,2.5657,2.5703,2.5703,2.5703,2.5703,2.5683,2.5658,2.5601,2.5598,2.5551,2.5508,2.5484,2.5453,2.5406,2.5391,2.5348,2.5303,2.5303,2.5303,2.5303,2.5303,2.5303,2.5303,2.5303,2.5303,2.5303,2.5303,2.5412,2.5476,2.5418,2.5523,2.5571,2.5513,2.6873,2.7729,2.7729,2.9182,2.9721,2.8961,2.9778,2.9883,2.9124,2.9704,3.0028,3.0028,2.9829,2.9748,2.9748,2.9713,2.9696,-0.8325,0.0,0.0473,0.1471,0.174,0.1442,0.0,-0.2694,-0.5081,0.0,0.0,0.0,0.0,-0.8482,-0.9703,-1.535,0.0,0.0,0.0,0.0,0.0,0.0,0.0,0.0,0.0,0.0,0.0,0.0,0.0,0.0,0.0,0.0,0.0,0.0,2.1345,2.2254,2.3253,2.3896,2.419,2.419,2.419,2.4228,0.0,0.0,0.0,0.0,0.0,0.0,0.0,2.5046,2.5163,2.5303,2.5303,2.5303,2.5303,2.5303,2.5303,2.5312,2.5312,2.5371,2.5441,2.5558,2.5657,2.5703,2.5703,2.5703,2.5683,2.5636,2.5607,2.5595,2.5543,2.5503,2.5498,2.5434,2.542,2.5403,2.533,2.5303,2.5303,2.5303,2.5303,2.5303,2.5303,2.5303,2.5303,2.5303,2.5303,2.5303,2.5303,2.5931,2.6137,2.5471,2.606,2.6218,2.5571,2.5846,2.6055,2.6055,2.6424,2.6851,2.733,2.8136,2.8762,2.9166,2.9932,3.0311,3.0311,3.0273,3.0247,3.0228,2.9864,2.9696,-0.757,-0.6325,-0.3987,-0.0521,-0.0901,-0.2405,-0.3652,-0.6864,0.0,0.0,0.0,0.0,0.0,0.0,0.0,0.0,0.0,0.0,0.0,0.0,0.0,0.0,0.0,0.0,0.0,0.0,0.0,0.0,0.0,0.0,0.0,0.0,0.0,0.0,0.0,2.109,2.2811,2.3248,2.3708,2.419,2.419,2.419,0.0,0.0,0.0,0.0,0.0,0.0,2.501,2.5099,2.5203,2.5303,2.5303,2.5303,2.5303,2.5303,2.5303,2.5293,2.533,2.5413,2.5489,2.5587,2.5657,2.5683,2.5661,2.5659,2.5657,2.5605,2.5558,2.5493,2.5451,2.5434,2.5406,2.5363,2.5346,2.5348,2.5303,2.5303,2.5303,2.5303,2.5303,2.5303,2.5303,2.5303,2.5303,2.5303,2.5303,2.5303,2.5303,2.5768,2.5917,2.5452,2.5912,2.6057,2.559,2.5567,2.5564,2.5493,2.5493,2.5897,2.6753,2.7602,2.8604,2.9822,3.0264,3.05,3.05,3.0462,3.0451,3.0441,3.0163,3.0022,-0.3735,-0.6424,-0.768,-0.2547,-0.3279,-0.5621,-0.7002,0.0,0.0,0.0,0.0,0.0,0.0,-1.131,0.0,0.0,0.0,0.0,0.0,0.0,0.0,0.0,0.0,0.0,0.0,0.0,0.0,0.0,0.0,0.0,0.0,0.0,0.0,0.0,0.0,0.0,2.2019,2.2285,2.2933,2.3968,2.3987,2.408,2.4209,0.0,0.0,0.0,0.0,0.0,2.5065,2.5203,2.5274,2.5303,2.5303,2.5303,2.5303,2.5303,2.5322,2.534,2.5406,2.5493,2.5603,2.5607,2.5659,2.5683,2.5629,2.5601,2.5601,2.5595,2.5508,2.5406,2.5391,2.5329,2.5293,2.5313,2.5313,2.5322,2.5321,2.533,2.5321,2.5322,2.5313,2.5313,2.5313,2.5303,2.5303,2.5303,2.5303,2.5303,2.5303,2.547,2.5561,2.5413,2.5639,2.5729,2.5593,2.5636,2.5631,2.5511,2.5526,2.5965,2.6957,2.7848,2.904,3.0567,3.0606,3.0606,3.0606,3.0552,3.0516,3.0498,3.0419,3.0348,-0.0677,-0.1163,-0.249,-0.6179,-0.5412,-0.4702,-0.8417,0.0,0.0,0.0,0.0,0.0,0.0,-0.9922,-0.6636,0.0,0.0,0.0,0.0,0.0,0.0,0.0,0.0,0.0,0.0,0.0,0.0,0.0,0.0,0.0,0.0,0.0,0.0,0.0,0.0,0.0,0.0,2.0873,2.2021,2.2857,2.3069,2.3547,2.4209,2.4426,0.0,0.0,0.0,0.0,2.5234,2.5099,2.5152,2.5303,2.5303,2.5303,2.5303,2.5303,2.533,2.5406,2.5531,2.5573,2.5605,2.5661,2.5683,2.5683,2.5629,2.5601,2.5595,2.5539,2.5471,2.5391,2.533,2.5303,2.5313,2.5371,2.5383,2.5394,2.5465,2.5477,2.5459,2.5406,2.5383,2.5363,2.5303,2.5303,2.5303,2.5303,2.5303,2.5303,2.5303,2.6009,2.6226,2.549,2.6129,2.6329,2.5585,2.5511,2.5551,2.5573,2.5573,2.6275,2.7843,2.879,2.9706,3.0586,3.0606,3.0606,3.0606,3.0594,3.0567,3.0498,3.0304,3.0164,0.0,0.0,-0.0957,-0.4975,-0.5356,-0.5545,0.0,0.0,0.0,0.0,0.0,0.0,0.0,0.0,0.0,0.0,0.0,0.0,0.0,0.0,0.0,0.0,0.0,0.0,0.0,0.0,0.0,0.0,0.0,0.0,0.0,0.0,0.0,0.0,0.0,0.0,0.0,1.9035,2.0372,2.1749,2.2854,2.3373,2.3358,2.4153,2.4561,0.0,0.0,2.4993,2.5141,2.5152,2.5214,2.5303,2.5303,2.5312,2.5363,2.5398,2.5453,2.5522,2.559,2.5611,2.566,2.5683,2.5703,2.5683,2.5629,2.5601,2.5595,2.5526,2.5488,2.5453,2.5427,2.542,2.5427,2.5447,2.5459,2.5451,2.5484,2.5493,2.5484,2.5471,2.5459,2.5447,2.5408,2.5376,2.5354,2.5354,2.5312,2.5303,2.5303,2.5677,2.579,2.5395,2.5769,2.588,2.5486,2.5503,2.5554,2.5551,2.6019,2.6848,2.8057,2.8939,2.9776,3.0586,3.0606,3.0606,3.0606,3.0561,3.0529,3.0498,3.0362,3.0266,0.2347,0.0478,-0.1913,-0.3409,-0.506,0.0,0.0,0.0,0.0,0.0,0.0,0.0,0.0,0.0,0.0,0.0,0.0,0.0,0.0,0.0,0.0,0.0,0.0,0.0,0.0,0.0,0.0,0.0,0.0,0.0,0.0,0.0,0.0,0.0,0.0,0.0,0.0,1.7561,1.8935,2.0784,2.2206,2.2841,2.2767,2.3658,2.417,2.4407,2.4747,2.4937,2.501,2.5163,2.5264,2.5313,2.5322,2.5371,2.5434,2.5508,2.5558,2.5603,2.5629,2.566,2.5703,2.5703,2.5703,2.5683,2.5629,2.5592,2.5595,2.5525,2.5506,2.5495,2.5485,2.5472,2.5481,2.5483,2.5486,2.547,2.5498,2.55,2.5495,2.5496,2.5492,2.5504,2.5498,2.5447,2.5406,2.5394,2.5337,2.5303,2.5303,2.5303,2.5322,2.5312,2.5371,2.5413,2.5415,2.5535,2.5567,2.5493,2.6376,2.7153,2.7743,2.876,2.9627,3.0314,3.0508,3.0606,3.0606,3.0559,3.0524,3.0498,3.0462,3.0428,0.933,0.1885,-0.5689,-0.3885,-0.5518,0.0,-0.8633,-0.895,0.0,-0.5589,0.0,0.0,0.0,0.0,0.0,0.0,0.0,0.0,0.0,0.0,0.0,0.0,0.0,0.0,0.0,0.0,0.0,0.0,0.0,0.0,0.0,0.0,0.0,0.0,0.0,0.0,0.0,0.0,1.8346,2.0065,2.0407,2.147,2.3147,2.2875,2.3212,2.4044,2.4388,2.4723,2.501,2.5022,2.5122,2.5322,2.5371,2.5428,2.5493,2.5564,2.5598,2.5605,2.5662,2.5703,2.5703,2.5703,2.5703,2.5683,2.5629,2.5605,2.5593,2.5527,2.5494,2.5489,2.5421,2.5403,2.5416,2.5404,2.5414,2.5427,2.5488,2.5496,2.5503,2.5508,2.5507,2.55,2.5492,2.5447,2.5406,2.5394,2.5337,2.5303,2.5303,2.5303,2.5312,2.5391,2.5406,2.5428,2.5498,2.5558,2.5567,2.5493,2.6376,2.6868,2.6805,2.8405,2.9355,2.9483,3.0217,3.0606,3.0606,3.06,3.0554,3.0498,3.0554,3.0524,0.4853,-0.0751,-0.6688,-1.1205,-1.2004,0.0,0.0,-0.9791,-0.7812,0.1256,0.3406,0.0,0.0,0.0,0.0,0.0,0.0,0.0,0.0,0.0,0.0,0.0,0.0,0.0,0.0,0.0,0.0,0.0,0.0,0.0,0.0,0.0,0.0,0.0,0.0,0.0,0.0,0.0,1.7647,1.9034,1.9963,2.0705,2.1233,2.2165,2.3035,2.3844,2.4081,2.4385,2.4708,2.4905,2.5034,2.5143,2.5374,2.5493,2.5564,2.5636,2.5661,2.5661,2.5683,2.5703,2.5703,2.5703,2.5662,2.5637,2.5603,2.5566,2.5527,2.5506,2.5504,2.5488,2.5461,2.5451,2.5464,2.5453,2.5465,2.5481,2.5498,2.5493,2.5503,2.5503,2.5489,2.5505,2.5566,2.5964,2.6084,2.5546,2.5866,2.5953,2.538,2.5303,2.534,2.5391,2.5441,2.5479,2.5558,2.5593,2.5595,2.5561,2.6409,2.709,2.7556,2.8643,2.9501,3.0079,3.0335,3.0492,3.0492,3.0492,3.0462,3.0441,3.0507,3.0491,0.2991,-0.1692,-0.629,-1.3148,0.0,0.0,-1.0376,-0.9659,-0.6668,0.3388,0.0,0.0,0.0,0.0,0.0,0.0,0.0,0.0,0.0,0.0,0.0,0.0,0.0,0.0,0.0,0.0,0.0,0.0,0.0,0.0,0.0,0.0,0.0,0.0,0.0,0.0,0.0,0.0,1.6804,1.7592,1.8749,1.967,2.0354,2.1549,2.2509,2.3218,2.3707,2.4081,2.4371,2.47,2.4917,2.5056,2.5304,2.5492,2.5605,2.5682,2.5703,2.5703,2.5703,2.5703,2.5703,2.5682,2.5636,2.5601,2.5567,2.5511,2.5477,2.5477,2.5459,2.5441,2.5441,2.5459,2.5471,2.5441,2.5441,2.5441,2.5441,2.5441,2.5447,2.5451,2.5712,2.5842,2.5634,2.6502,2.6942,2.6048,2.6366,2.6455,2.5813,2.5495,2.536,2.5429,2.547,2.552,2.5566,2.5584,2.5602,2.5602,2.6182,2.6861,2.7653,2.8676,2.9513,3.0149,3.0355,3.0442,3.0439,3.0439,3.0417,3.041,3.0482,3.0472,0.5744,-0.0093,-0.4681,0.0,0.0,0.0,-1.0938,-0.8236,-0.4685,-0.0229,0.0,0.0,0.0,0.0,0.0,0.0,0.0,0.0,0.0,0.0,0.0,0.0,0.0,0.0,0.0,0.0,0.0,0.0,0.0,0.0,0.0,0.0,0.0,0.0,0.0,0.0,0.0,0.0,1.5799,1.5814,1.6413,1.8207,2.0991,2.0971,2.1397,2.2163,2.3218,2.3806,2.4007,2.4353,2.4733,2.512,2.5174,2.5357,2.5605,2.5662,2.5703,2.5703,2.5703,2.5703,2.5683,2.5609,2.5601,2.5595,2.5526,2.544,2.5394,2.5394,2.5346,2.5303,2.5303,2.5357,2.5376,2.5313,2.5303,2.5303,2.5303,2.5303,2.5322,2.5395,2.6164,2.6548,2.5752,2.705,2.7894,2.6948,2.6767,2.668,2.6602,2.5895,2.5424,2.5487,2.5492,2.5493,2.5493,2.5561,2.5601,2.5601,2.5661,2.6047,2.6773,2.8407,2.9316,2.9405,3.0197,3.0561,3.0498,3.0498,3.0472,3.041,3.0482,3.0472,0.43,-0.1383,0.0,-0.8842,0.0,0.0,0.0,-0.9834,0.0,0.0,0.0,0.0,0.0,0.0,0.0,0.0,0.0,0.0,0.0,0.0,0.0,0.0,0.0,0.0,0.0,0.0,0.0,0.0,0.0,0.0,0.0,0.0,0.0,0.0,0.0,0.0,0.0,0.0,0.0,1.6841,1.6759,1.7562,1.9186,1.9654,2.0695,2.2124,2.2434,2.3041,2.3824,2.4301,2.4733,2.5111,2.5129,2.5291,2.5539,2.5554,2.5595,2.5611,2.559,2.5609,2.5683,2.5564,2.5535,2.5526,2.5459,2.5383,2.533,2.533,2.5322,2.5303,2.5303,2.5313,2.5312,2.5293,2.5303,2.5303,2.5303,2.5303,2.5313,2.5331,2.6088,2.6669,2.6485,2.7885,2.8735,2.7853,2.766,2.7168,2.592,2.5549,2.5434,2.5488,2.5492,2.5493,2.5493,2.5526,2.5551,2.5601,2.6195,2.6658,2.6927,2.7956,2.8817,2.9464,3.0205,3.0561,3.0498,3.0498,3.0472,3.041,3.0482,3.0472,0.4036,-0.036,0.0,-0.8128,-0.9289,-0.8949,-0.6137,0.0,0.0,0.0,0.0,0.0,0.0,0.0,0.0,0.0,0.0,0.0,0.0,0.0,0.0,0.0,0.0,0.0,0.0,0.0,0.0,0.0,0.0,0.0,0.0,0.0,0.0,0.0,0.0,0.0,0.0,0.0,0.0,0.0,1.6791,1.7233,1.8197,1.9014,2.0066,2.1309,2.218,2.3058,2.3917,2.4248,2.4629,2.4981,2.4979,2.5183,2.5451,2.5484,2.5547,2.5595,2.5511,2.5564,2.5636,2.5493,2.5465,2.5453,2.5376,2.533,2.5303,2.5303,2.5303,2.5303,2.5303,2.5303,2.5303,2.5303,2.5303,2.5303,2.5303,2.5303,2.5303,2.5303,2.6351,2.7161,2.6856,2.8528,2.9608,2.871,2.8225,2.7348,2.5661,2.5398,2.5409,2.5496,2.545,2.5415,2.5415,2.5758,2.6004,2.6065,2.6922,2.7448,2.7519,2.8316,2.917,3.0048,3.0443,3.0611,3.0545,3.0505,3.0472,3.041,3.0441,3.043,0.4349,0.0,0.0,-0.546,-0.6539,0.0,0.0436,0.0,0.0,0.0,0.0,0.0,0.0,0.0,0.0,0.0,0.0,0.0,0.0,0.0,0.0,0.0,0.0,0.0,0.0,0.0,0.0,0.0,0.0,0.0,0.0,0.0,0.0,0.0,0.0,0.0,0.0,0.0,0.0,0.0,0.0,1.7161,1.778,1.8779,1.9531,2.0081,2.2185,2.3458,2.4041,2.4171,2.4428,2.4771,2.4797,2.5022,2.5379,2.5446,2.5511,2.5567,2.5513,2.5535,2.5564,2.5434,2.5398,2.5403,2.5322,2.5303,2.5303,2.5274,2.5293,2.5303,2.5274,2.5293,2.5322,2.5399,2.536,2.5303,2.5303,2.5303,2.5303,2.5303,2.6752,2.7766,2.7041,2.8945,3.024,2.9304,2.8451,2.7324,2.5707,2.5396,2.5362,2.5483,2.5376,2.5303,2.5303,2.6088,2.665,2.6797,2.7686,2.8268,2.8398,2.9179,2.9961,3.0761,3.0726,3.0665,3.0594,3.0529,3.0472,3.0398,3.0398,3.0398,0.2888,0.0498,0.0,0.0,0.1972,0.3358,0.0,0.0,0.0,0.0,0.0,0.0,0.0,0.0,0.0,0.0,0.0,0.0,0.0,0.0,0.0,0.0,0.0,0.0,0.0,0.0,0.0,0.0,0.0,0.0,0.0,0.0,0.0,0.0,0.0,0.0,0.0,0.0,0.0,0.0,1.7109,1.7183,1.7338,1.7887,1.8771,1.9937,2.1609,2.2543,2.2926,2.3838,2.4339,2.4575,2.4752,2.4917,2.5105,2.5293,2.5403,2.5428,2.5371,2.5415,2.5508,2.5371,2.5354,2.5403,2.5322,2.5303,2.5264,2.5111,2.5173,2.5264,2.5099,2.5173,2.5476,2.6159,2.5813,2.5303,2.5303,2.5303,2.5303,2.5303,2.626,2.7235,2.7727,2.8806,2.9272,2.8338,2.8067,2.7381,2.5712,2.5427,2.54,2.5498,2.5376,2.5303,2.5303,2.5537,2.5997,2.6744,2.7674,2.8511,2.9203,2.9416,2.9611,2.9806,3.0349,3.0594,3.0513,3.0516,3.0472,3.0398,3.0398,3.0398,0.804,0.0,0.0,0.6343,0.0,0.0,0.0,0.0,0.0,0.0,0.0,0.0,0.0,0.0,0.0,0.0,0.0,0.0,0.0,0.0,0.0,0.0,0.0,0.0,0.0,0.0,0.0,0.0,0.0,0.0,0.0,0.0,0.0,0.0,0.0,0.0,1.6789,1.6968,1.7183,1.7499,1.7482,1.7551,1.7687,1.8224,1.9091,2.0246,2.1277,2.1882,2.2244,2.3327,2.3866,2.4088,2.4671,2.4993,2.5152,2.5264,2.5348,2.5391,2.5312,2.5371,2.5428,2.5226,2.5245,2.532,2.5194,2.5152,2.5122,2.5034,2.5077,2.5122,2.5022,2.5152,2.5514,2.639,2.5928,2.5399,2.5832,2.5591,2.5303,2.5303,2.6105,2.6943,2.7391,2.8203,2.844,2.7477,2.7373,2.6968,2.5659,2.5448,2.5439,2.5535,2.5428,2.5363,2.5391,2.6184,2.6932,2.7445,2.8678,2.9606,3.0052,3.0049,3.0033,3.0033,3.0374,3.0537,3.0498,3.0482,3.0419,3.0398,3.0398,3.0398,1.221,0.0,0.8142,1.024,1.1241,0.0,0.0,0.0,0.0,0.0,0.0,0.0,0.0,0.0,0.0,0.0,0.0,0.0,0.0,0.0,0.0,0.0,0.0,0.0,0.0,0.0,0.0,0.0,0.0,0.0,0.0,0.0,0.0,0.0,0.0,0.0,1.6892,1.7224,1.7492,1.771,1.7866,1.8103,1.841,1.8994,1.9653,2.0336,2.0908,2.1316,2.1705,2.2694,2.3176,2.3364,2.4233,2.4755,2.5042,2.5091,2.5224,2.5368,2.5322,2.533,2.5343,2.5124,2.5141,2.5214,2.5046,2.4986,2.4962,2.4924,2.4962,2.4979,2.4974,2.5244,2.5726,2.6621,2.6274,2.5909,2.6486,2.6043,2.5476,2.5322,2.6105,2.6797,2.6786,2.7558,2.7896,2.7055,2.6845,2.6534,2.5838,2.5547,2.5456,2.5573,2.5599,2.5596,2.5488,2.7109,2.8143,2.8188,2.9636,3.0547,3.0657,3.0617,3.0575,3.0581,3.0516,3.0491,3.0491,3.0428,3.0398,3.0398,3.0398,3.0398,0.0,0.0,0.8264,0.0,1.1795,0.0,0.0,0.0,0.0,0.0,0.0,0.0,0.0,0.0,0.0,0.0,0.0,0.0,0.0,0.0,0.0,0.0,0.0,0.0,0.0,0.0,0.0,0.0,0.0,0.0,0.0,0.0,0.0,0.0,0.0,0.0,1.7224,1.7572,1.7749,1.7794,1.827,1.8735,1.9162,1.9442,1.941,1.9273,2.0132,2.0691,2.1005,2.1962,2.2351,2.2405,2.2695,2.3301,2.4014,2.4197,2.4707,2.5313,2.5293,2.5313,2.5303,2.5274,2.5163,2.5034,2.501,2.493,2.4785,2.4623,2.4776,2.4974,2.4855,2.5614,2.6659,2.7525,2.764,2.7371,2.6736,2.6505,2.6197,2.5437,2.6105,2.677,2.6715,2.7488,2.804,2.785,2.7239,2.6783,2.6724,2.6007,2.5483,2.5503,2.6113,2.6214,2.5485,2.7113,2.8168,2.8125,2.9095,2.9928,3.0498,3.0513,3.0491,3.0428,3.0425,3.0414,3.0414,3.039,3.0398,3.0398,3.0398,3.0398,-0.0811,-0.0281,0.2051,0.0,0.0,0.0,0.0,0.0,0.0,0.0,0.0,0.0,0.0,0.0,0.0,0.0,0.0,0.0,0.0,0.0,0.0,0.0,0.0,0.0,0.0,0.0,0.0,0.0,0.0,0.0,0.0,1.7002,1.7158,1.7294,1.7631,0.0,1.8027,1.817,1.8249,1.8249,1.8877,1.9191,1.925,1.9567,1.9559,1.9372,1.9838,2.0129,2.0333,2.1292,2.1692,2.176,2.2401,2.2901,2.3256,2.3332,2.3889,2.462,2.462,2.4928,2.5274,2.5163,2.5077,2.4986,2.4917,2.4771,2.4639,2.4654,2.4771,2.4891,2.4917,2.5394,2.6217,2.7582,2.789,2.7794,2.7409,2.6948,2.6352,2.5573,2.5762,2.6071,2.6082,2.6832,2.7405,2.7348,2.7469,2.741,2.6966,2.6539,2.6308,2.6347,2.663,2.6864,2.701,2.818,2.8923,2.8895,2.9663,3.0236,3.0488,3.0498,3.0491,3.0452,3.0425,3.0398,3.0398,3.0398,3.0398,3.0398,3.0398,3.0398,0.0,0.0,-0.3969,0.0,0.0,0.0,0.0,0.0,0.0,0.0,0.0,0.0,0.0,0.0,0.0,0.0,0.0,0.0,0.0,0.0,0.0,0.0,0.0,0.0,0.0,0.0,0.0,0.0,0.0,0.0,0.0,1.7545,1.7726,1.7928,1.8173,1.8413,1.8643,1.8662,1.868,1.8715,1.9256,1.9434,1.9306,1.9688,1.9809,1.972,1.9821,1.9847,1.9915,2.0727,2.1044,2.1111,2.1874,2.2293,2.2466,2.2466,2.3024,2.3802,2.4014,2.4485,2.5005,2.5064,2.501,2.4943,2.4864,2.4682,2.4545,2.4746,2.4814,2.4864,2.4974,2.5305,2.6005,2.7544,2.8063,2.814,2.7928,2.7044,2.6111,2.5576,2.5498,2.5597,2.5855,2.6464,2.7033,2.7437,2.7888,2.7964,2.7331,2.7049,2.6822,2.6658,2.6806,2.7177,2.7851,2.868,2.924,2.9409,2.9944,3.0319,3.0472,3.0472,3.0472,3.0472,3.0428,3.0402,3.0428,3.0402,3.0398,3.0398,3.0398,3.0367,0.0,-0.675,0.0,0.0,0.0,0.0,0.0,0.0,0.0,0.0,0.0,0.0,0.0,0.0,0.0,0.0,0.0,0.0,0.0,0.0,0.0,0.0,0.0,0.0,0.0,0.0,0.0,0.0,0.0,0.0,1.767,1.8217,1.8547,1.8547,1.8566,1.8644,1.8803,1.8803,1.8857,1.8984,1.9141,1.9357,1.9582,1.9869,1.9993,1.9993,1.9993,2.0003,2.0012,2.0255,2.0353,2.0361,2.04,2.0908,2.1562,2.1562,2.212,2.2985,2.3821,2.4129,2.4302,2.5034,2.508,2.4828,2.4949,2.4747,2.4545,2.4746,2.4891,2.4998,2.501,2.5746,2.6755,2.7678,2.8467,2.8832,2.8063,2.6563,2.5389,2.5398,2.5465,2.5761,2.6581,2.6828,2.7457,2.9118,2.8708,2.8209,2.8222,2.7454,2.6579,2.5759,2.6403,2.6884,2.6875,2.7725,2.8532,2.9179,2.9248,2.9602,3.0364,3.0421,3.0421,3.0421,3.041,3.0439,3.049,3.0439,3.0398,3.0398,3.0398,3.0267,0.0,0.0,0.0,0.0,0.0,0.0,0.0,0.0,0.0,0.0,0.0,0.0,0.0,0.0,0.0,0.0,0.0,0.0,0.0,0.0,0.0,0.0,0.0,0.0,0.0,0.0,0.0,0.0,0.0,0.0,1.8296,1.8471,1.8717,1.8977,1.8977,1.9136,1.9439,1.9452,1.9471,1.9526,1.9638,1.9764,1.9869,2.0088,2.0197,2.0197,2.0197,2.0197,2.0197,2.0277,2.0312,2.0312,2.0312,2.0485,2.0735,2.0735,2.1254,2.2004,2.2312,2.3167,2.4149,2.4428,2.4709,2.4943,2.4986,2.4864,2.4731,2.4891,2.4962,2.5034,2.5163,2.5382,2.5933,2.7369,2.843,2.9006,2.8717,2.7775,2.6843,2.6385,2.5868,2.5967,2.7439,2.7717,2.8137,2.9316,2.9235,2.8852,2.8359,2.7518,2.6833,2.652,2.7282,2.8008,2.8485,2.9269,2.9822,3.0014,2.9989,3.01,3.039,3.0398,3.0417,3.0472,3.0417,3.0414,3.0449,3.0414,3.0398,3.0398,3.0398,3.0254,0.0,0.0,0.0,0.0,0.0,0.0,0.0,0.0,0.0,0.0,0.0,0.0,0.0,0.0,0.0,0.0,0.0,0.0,0.0,0.0,0.0,0.0,0.0,0.0,0.0,0.0,0.0,0.0,0.0,0.0,1.8807,1.8895,1.9077,1.9388,1.9457,1.9576,1.9809,1.9847,1.9847,1.979,1.9943,1.9993,2.0012,2.0205,2.0312,2.0312,2.0312,2.0312,2.0312,2.0312,2.0312,2.0312,2.0312,2.0312,2.0312,2.0312,2.0639,2.1139,2.1408,2.2447,2.3706,2.3995,2.4521,2.5022,2.5088,2.4993,2.4891,2.5053,2.5046,2.5034,2.5163,2.552,2.6155,2.7332,2.8593,2.9467,2.9159,2.8236,2.7335,2.6882,2.6097,2.5987,2.7536,2.8036,2.8524,2.9404,2.9519,2.9231,2.8418,2.7539,2.6992,2.6992,2.7499,2.827,2.9347,2.9613,2.9935,3.0443,3.0158,3.0102,3.0379,3.0398,3.0417,3.0472,3.0417,3.0355,3.0267,3.0355,3.0355,3.0267,3.0267,3.0095,0.0,0.0,0.0,0.0,0.0,0.0,0.0,0.0,0.0,0.0,0.0,0.0,0.0,0.0,0.0,0.0,0.0,0.0,0.0,0.0,0.0,0.0,0.0,0.0,0.0,0.0,0.0,0.0,0.0,0.0,1.9198,1.9476,1.9669,1.979,1.9943,1.9953,1.9821,1.9953,1.9953,1.9821,1.9953,2.0012,2.0022,2.0205,2.0312,2.0312,2.0312,2.0312,2.0312,2.0312,2.0312,2.0312,2.0292,2.0292,2.0292,2.0292,2.0292,2.0408,2.1196,2.2023,2.2917,2.3783,2.4483,2.5008,2.5244,2.5173,2.5046,2.5264,2.5163,2.501,2.4998,2.6289,2.7599,2.7586,2.9034,3.0179,2.9313,2.7813,2.6679,2.6811,2.6126,2.5823,2.6854,2.7715,2.8555,2.9434,2.9531,2.9219,2.8379,2.75,2.6953,2.6953,2.694,2.7566,2.9135,2.8531,2.8753,3.0294,2.9602,2.9525,3.0359,3.0398,3.0398,3.0398,3.0398,3.0267,3.0013,3.0267,3.0254,2.9999,2.9984,2.9763,0.0662,0.0,0.0,0.0,0.0,0.0,0.0,0.0,0.0,0.0,0.0,0.0,0.0,0.0,0.0,0.0,0.0,0.0,0.0,0.0,0.0,0.0,0.0,0.0,0.0,0.0,0.0,0.0,0.0,1.9587,1.9638,1.9794,1.9912,1.9934,2.0115,2.0197,2.0162,2.0188,2.0188,2.0162,2.0197,2.0225,2.0233,2.0277,2.0312,2.0312,2.0312,2.0312,2.0312,2.0312,2.0312,2.0292,2.0308,2.0296,2.0296,2.0296,2.0296,2.0321,2.0546,2.1177,2.2002,2.2936,2.3767,2.4551,2.5247,2.5367,2.5307,2.5352,2.5293,2.5152,2.4923,2.6217,2.7573,2.7428,2.8937,3.0321,3.0102,2.8772,2.7636,2.7717,2.6572,2.6071,2.7675,2.7617,2.7656,2.8535,2.8125,2.7617,2.7315,2.6531,2.5976,2.5912,2.702,2.7935,2.833,2.9248,2.9979,3.0371,3.0179,3.016,3.0379,3.0398,3.0398,3.0398,3.0398,3.0367,3.0299,3.0163,3.0003,2.978,2.9625,2.9513,0.0,0.0,0.0,0.0,0.0,0.0,0.0,0.0,0.0,0.0,0.0,0.0,0.0,0.0,0.0,0.0,0.0,0.0,0.0,0.0,0.0,0.0,0.0,0.0,0.0,0.0,0.0,0.0,1.941,1.9824,1.988,2.0031,2.0124,2.0124,2.0241,2.0312,2.0312,2.0312,2.0312,2.0312,2.0312,2.0312,2.0312,2.0312,2.0312,2.0312,2.0312,2.0312,2.0312,2.0312,2.0312,2.03,2.0296,2.0307,2.0307,2.0307,2.0307,2.0295,2.0304,2.0855,2.1632,2.2178,2.3191,2.4282,2.478,2.5137,2.5398,2.5371,2.5225,2.5031,2.476,2.6076,2.7443,2.732,2.8891,3.0402,3.0449,2.9175,2.8041,2.8093,2.6759,2.5943,2.7031,2.7109,2.7168,2.7676,2.7615,2.7491,2.7457,2.6968,2.6766,2.7045,2.7964,2.8694,2.9027,2.9902,3.0441,3.041,3.0398,3.0398,3.0398,3.0398,3.0355,3.0241,3.0355,3.0299,3.0114,3.0032,2.9861,2.957,2.9332,2.9225,0.0,0.0,0.0,0.0,0.0,0.0,0.0,0.0,0.0,0.0,0.0,0.0,0.0,0.0,0.0,0.0,0.0,0.0,0.0,0.0,0.0,0.0,0.0,0.0,0.0,0.0,0.0,1.9263,1.9595,1.9858,1.9984,2.0197,2.0312,2.0312,2.0312,2.0312,2.0312,2.0312,2.0312,2.0312,2.0312,2.0312,2.0312,2.0312,2.0285,2.0277,2.0285,2.0285,2.0277,2.03,2.03,2.03,2.0296,2.0307,2.0307,2.0307,2.0307,2.0295,2.0304,2.0815,2.1469,2.1578,2.2663,2.3961,2.409,2.4664,2.5275,2.5283,2.508,2.479,2.472,2.601,2.7358,2.7449,2.8976,3.0409,3.0355,2.9174,2.809,2.7987,2.6685,2.5633,2.5683,2.6348,2.6855,2.6855,2.7547,2.8054,2.8044,2.8072,2.8353,2.9072,2.9167,2.9495,3.0287,3.0392,3.0398,3.0398,3.0398,3.0398,3.0398,3.0398,3.0299,3.0061,3.0254,3.0128,2.9661,2.9829,2.9695,2.9351,2.9112,2.8994,0.0,0.0,0.0,0.0,0.0,0.0,0.0,0.0,0.0,0.0,0.0,0.0,0.0,0.0,0.0,0.0,0.0,0.0,0.0,0.0,0.0,0.0,0.0,0.0,0.0,0.0,0.0,1.8592,1.9291,1.9801,1.9984,2.0197,2.0312,2.0312,2.0312,2.0312,2.0312,2.0312,2.0312,2.0312,2.0312,2.0312,2.0312,2.0312,2.0205,2.0069,2.0233,2.0205,2.0078,2.0229,2.0301,2.03,2.0296,2.0307,2.0307,2.0307,2.0307,2.0295,2.0304,2.041,2.0687,2.1435,2.1951,2.2528,2.3862,2.4335,2.4554,2.5138,2.5141,2.5101,2.5779,2.6738,2.7698,2.8341,2.9533,3.0297,2.961,2.8779,2.7963,2.728,2.6353,2.5683,2.5703,2.584,2.5936,2.5886,2.6598,2.711,2.7,2.7586,2.8062,2.8155,2.8732,2.9184,2.9357,2.9998,3.0398,3.0398,3.0398,3.0398,3.0398,3.0398,3.0386,3.0323,3.015,2.9861,2.9454,2.9272,2.9141,2.9067,2.9021,2.8994,0.0,0.0,0.0,0.5193,0.0,0.0,0.0,0.0,0.0,0.0,0.0,0.0,0.0,0.0,0.0,0.0,0.0,0.0,0.0,0.0,0.0,0.0,0.0,0.0,0.0,0.0,1.632,1.8017,1.891,1.9507,1.9834,1.9944,2.0097,2.0285,2.0312,2.0312,2.0312,2.0312,2.0312,2.0312,2.0312,2.0312,2.0312,2.0312,2.0241,2.0161,2.0269,2.0241,2.0169,2.0257,2.0302,2.0308,2.0344,2.0322,2.0307,2.0307,2.0316,2.0357,2.0315,2.0349,2.0472,2.0945,2.1706,2.2591,2.3407,2.4175,2.4834,2.5206,2.5152,2.5201,2.6079,2.6956,2.7816,2.8689,2.9717,3.0292,2.9512,2.8743,2.7945,2.712,2.6268,2.584,2.6269,2.6348,2.6463,2.6835,2.7589,2.8057,2.797,2.8685,2.9186,2.914,2.9506,2.9756,2.9756,3.016,3.0398,3.0398,3.0398,3.0398,3.0398,3.0398,3.0343,3.0209,2.9746,2.9475,2.9412,2.9134,2.8994,2.8994,2.8994,2.8994,0.0,0.0,0.0,0.0,0.0,0.4742,0.0,0.0,0.0,0.0,0.0,0.0,0.0,0.0,0.0,0.0,0.0,0.0,0.0,0.0,0.0,0.0,0.0,0.0,0.0,0.0,0.0,1.6324,1.733,1.8161,1.8957,1.9175,1.9564,2.0161,2.0233,2.0269,2.0312,2.0312,2.0312,2.0312,2.0312,2.0312,2.0312,2.0312,2.0277,2.0241,2.0277,2.0292,2.0262,2.0295,2.0314,2.032,2.0357,2.0351,2.0308,2.0308,2.0336,2.037,2.0327,2.0387,2.0508,2.0474,2.1657,2.3062,2.303,2.4103,2.5322,2.5322,2.533,2.5532,2.6395,2.7242,2.8138,2.9068,2.9939,3.0296,2.9448,2.8706,2.7936,2.6933,2.6172,2.5917,2.6621,2.6758,2.6951,2.7585,2.8471,2.9039,2.8954,2.9792,3.0398,3.0398,3.0398,3.0398,3.0398,3.0398,3.0398,3.0398,3.0355,3.0355,3.0398,3.0355,3.0196,2.9954,2.9377,2.9156,2.933,2.9112,2.8994,2.8994,2.8994,2.8952,0.0,0.0,0.0,0.0,0.8293,0.0,0.0,0.0,0.0,0.0,0.0,0.0,0.0,0.0,0.0,0.0,0.0,0.0,0.0,0.0,0.0,0.0,0.0,0.0,0.0,0.0,0.0,0.0,1.2855,1.4377,1.6403,1.7292,1.8371,1.973,1.9944,2.0115,2.0304,2.0312,2.0312,2.0312,2.0312,2.0312,2.0312,2.0312,2.0197,2.0031,2.0214,2.0235,2.0142,2.0313,2.0394,2.0385,2.0322,2.0315,2.0308,2.0308,2.0308,2.0311,2.0307,2.0396,2.0492,2.0428,2.1598,2.3022,2.3062,2.4166,2.5383,2.5383,2.5936,2.6696,2.7516,2.8348,2.9233,3.0113,3.0516,3.0255,2.8681,2.8312,2.7793,2.6172,2.5718,2.5652,2.582,2.5859,2.5836,2.5812,2.7195,2.8196,2.8058,2.9421,3.0398,3.0398,3.0398,3.0398,3.0398,3.0398,3.0398,3.0398,3.0182,3.015,3.0398,3.0163,2.9939,2.9748,2.9494,2.9246,2.9062,2.8998,2.8994,2.8994,2.8994,2.8815,0.0,0.0,0.0,0.0,0.0,0.0,0.0,0.0,0.2972,0.0,0.0,0.0,0.0,0.0,0.0,0.0,0.0,0.0,0.0,0.0,0.0,0.0,0.0,0.0,0.0,0.0,0.0,0.0,0.0,0.9006,0.9463,1.0675,1.2344,1.458,1.6324,1.8149,2.0115,2.0241,2.0312,2.0312,2.0312,2.0312,2.0292,2.0294,2.0246,2.0178,2.0296,2.0307,2.0238,2.0391,2.0435,2.0391,2.0418,2.0366,2.0295,2.0295,2.0332,2.0361,2.0396,2.0488,2.0621,2.1066,2.2045,2.3143,2.3548,2.4484,2.5391,2.5346,2.5618,2.6198,2.7554,2.8193,2.8857,3.0229,3.0607,3.0191,2.8608,2.8242,2.7725,2.5987,2.5629,2.5601,2.5595,2.6429,2.7067,2.6961,2.841,2.9279,2.8673,2.966,3.0398,3.0398,3.0398,3.0398,3.0398,3.0398,3.0323,3.0182,2.9939,2.988,2.9992,2.9765,2.9626,2.9532,2.9291,2.9112,2.8994,2.8994,2.8994,2.8994,2.8994,2.8773,1.4812,0.0,0.0,0.0,0.0,0.0,0.0,0.0,0.0,0.0,0.0,0.0,0.0,0.0,0.0,0.0,0.0,0.0,0.0,0.0,0.0,0.0,0.0,0.0,0.0,0.0,0.0,0.0,0.0,0.0,0.2538,0.3478,0.5606,0.8974,1.1908,1.5116,1.8643,1.9707,2.0241,2.0312,2.0312,2.03,2.0292,2.0302,2.0308,2.034,2.0371,2.0374,2.0357,2.047,2.048,2.0467,2.0484,2.0438,2.0347,2.0327,2.0355,2.0411,2.0453,2.0662,2.1035,2.1633,2.2559,2.352,2.4005,2.4762,2.5408,2.5357,2.5513,2.6051,2.7538,2.8167,2.8786,3.0272,3.0662,3.0234,2.8633,2.8254,2.7688,2.5932,2.5564,2.5535,2.5473,2.6548,2.7348,2.7307,2.8736,2.9563,2.8854,2.9717,3.0398,3.0398,3.0398,3.0398,3.0398,3.0323,3.0169,2.9845,2.9746,2.9678,2.9626,2.9493,2.9412,2.9412,2.9134,2.8994,2.8994,2.8994,2.8994,2.8994,2.8905,2.8633,0.0,0.0,0.0,1.2389,0.0,0.0,0.0,0.0,0.7281,0.0,0.0,0.0,0.0,0.0,0.0,0.0,0.0,0.0,0.0,0.0,0.0,0.0,0.0,0.0,0.0,0.0,0.0,0.0,0.0,0.0,0.0,-0.3129,-0.089,0.4057,0.726,1.0986,1.5313,1.8465,2.0115,2.0312,2.0312,2.0299,2.0307,2.0307,2.0346,2.0402,2.0406,2.0435,2.0486,2.0508,2.0539,2.0585,2.0516,2.0506,2.0482,2.0425,2.0402,2.0391,2.0391,2.0993,2.1784,2.1874,2.2963,2.4271,2.4288,2.4865,2.5473,2.542,2.6055,2.6934,2.7772,2.8718,2.9656,3.0498,3.0793,3.041,2.8672,2.8256,2.7674,2.5935,2.5508,2.542,2.5394,2.5504,2.5565,2.5485,2.6966,2.8046,2.795,2.939,3.0398,3.0398,3.0398,3.0398,3.0398,3.015,2.9845,2.9434,2.9607,2.9626,2.9433,2.9412,2.9412,2.9412,2.9134,2.8994,2.8994,2.8994,2.8994,2.8994,2.859,2.8237,0.0,0.0,1.8837,1.4083,0.0,0.0,0.0,0.0,0.0,0.0,0.0,0.0,0.0,0.0,0.0,0.0,0.0,0.0,0.0,0.0,0.0,0.0,0.0,0.0,0.0,0.0,0.0,0.0,0.0,0.0,0.0,-1.1303,-0.9265,-0.6487,0.1324,0.7528,1.1857,1.7411,2.0236,2.0308,2.0308,2.0302,2.0294,2.0383,2.0425,2.0395,2.0486,2.0515,2.051,2.0542,2.0585,2.0605,2.0585,2.0547,2.0507,2.0471,2.0467,2.0462,2.0527,2.0742,2.1092,2.1719,2.2656,2.3667,2.4141,2.489,2.5547,2.5428,2.5661,2.6265,2.7644,2.8315,2.8998,3.0364,3.0722,3.0456,2.9344,2.8594,2.7785,2.6565,2.5835,2.5565,2.61,2.6215,2.6232,2.6188,2.7644,2.8713,2.8709,2.9698,3.0398,3.0398,3.0398,3.0398,3.0398,3.0037,2.9729,2.9607,2.9357,2.9206,2.9134,2.9134,2.9134,2.9134,2.9062,2.8994,2.8994,2.8994,2.8863,2.859,2.7929,2.7691,1.9484,2.007,0.0,0.0,1.4176,0.0,0.5503,0.0,0.0,0.0,0.0,0.0,0.0,0.0,0.0,0.0,0.0,0.0,0.0,0.0,0.0,0.0,0.0,0.0,0.0,0.0,0.0,0.0,0.0,0.0,0.0,0.0,-1.5858,-1.3561,-0.5578,0.1833,0.8424,1.4307,1.8274,2.0307,2.0307,2.0305,2.0332,2.0444,2.0484,2.0477,2.0563,2.0585,2.054,2.0566,2.0564,2.0563,2.054,2.0508,2.048,2.0527,2.0539,2.0541,2.0566,2.0976,2.1582,2.2148,2.3125,2.4179,2.4633,2.5152,2.559,2.5471,2.5707,2.6314,2.7715,2.8379,2.9022,3.0421,3.0718,3.0439,2.9676,2.8749,2.788,2.7284,2.6439,2.5983,2.6515,2.6851,2.7063,2.7063,2.8236,2.9102,2.9102,2.9871,3.0398,3.0398,3.0398,3.0355,3.0267,2.9973,2.9748,2.9607,2.9312,2.9089,2.9017,2.8994,2.8994,2.8994,2.8994,2.8994,2.8994,2.8994,2.8651,2.7994,2.7338,2.6997]}]]